[[{"header":{"parameterUnit":"m.s-1","parameterCategory":1,"la1":31.0,"la2":29.5877,"lo1":-88.7671,"lo2":-86.6584,"dy":0.0162,"dx":0.0185,"nx":115,"ny":88,"refTime":"2023-05-28T18:00:00:Z","depth":0,"parameterNumber":2,"parameterNumberName":"U-component_of_WINDS"},"data":[0.0,0.0,0.0,0.0,0.0,0.0,0.0,0.0,0.0,0.0,0.0,0.0,0.0,0.0,0.0,0.0,0.0,0.0,0.0,0.0,0.0,0.0,0.0,0.0,0.0,0.0,0.0,0.0,0.0,0.0,0.0,0.0,0.0,0.0,0.0,0.0,0.0,0.0,0.0,0.0,0.0,0.0,0.0,0.0,0.0,0.0,0.0,0.0,0.0,0.0,0.0,0.0,0.0,0.0,0.0,0.0,0.0,0.0,0.0,0.0,0.0,0.0,0.0,0.0,0.0,0.0,0.0,0.0,0.0,0.0,0.0,0.0,0.0,0.0,0.0,0.0,0.0,0.0,0.0,0.0,0.0,0.0,0.0,0.0,0.0,0.0,0.0,0.0,0.0,0.0,0.0,0.0,0.0,0.0,0.0,0.0,0.0,0.0,0.0,0.0,0.0,0.0,0.0,0.0,0.0,0.0,0.0,0.0,0.0,0.0,0.0,0.0,0.0,0.0,0.0,0.0,0.0,0.0,0.0,0.0,0.0,0.0,0.0,0.0,0.0,0.0,0.0,0.0,0.0,0.0,0.0,0.0,0.0,0.0,0.0,0.0,0.0,0.0,0.0,0.0,0.0,0.0,0.0,0.0,0.0,0.0,0.0,0.0,0.0,0.0,0.0,0.0,0.0,0.0,0.0,0.0,0.0,0.0,0.0,0.0,0.0,0.0,0.0,0.0,0.0,0.0,0.0,0.0,0.0,0.0,0.0,0.0,0.0,0.0,0.0,0.0,0.0,0.0,0.0,0.0,0.0,0.0,0.0,0.0,0.0,0.0,0.0,0.0,0.0,0.0,0.0,0.0,0.0,0.0,0.0,0.0,0.0,0.0,0.0,0.0,0.0,0.0,0.0,0.0,0.0,0.0,0.0,0.0,0.0,0.0,0.0,0.0,0.0,0.0,0.0,0.0,0.0,0.0,0.0,0.0,0.0,0.0,0.0,0.0,0.0,0.0,0.0,0.0,0.0,0.0,0.0,0.0,0.0,0.0,0.0,0.0,0.0,0.0,0.0,0.0,0.0,0.0,0.0,0.0,0.0,0.0,0.0,0.0,0.0,0.0,0.0,0.0,0.0,0.0,0.0,0.0,0.0,0.0,0.0,0.0,0.0,0.0,0.0,0.0,0.0,0.0,0.0,0.0,0.0,0.0,0.0,0.0,0.0,0.0,0.0,0.0,0.0,0.0,0.0,0.0,0.0,0.0,0.0,0.0,0.0,0.0,0.0,0.0,0.0,0.0,0.0,0.0,0.0,0.0,0.0,0.0,0.0,0.0,0.0,0.0,0.0,0.0,0.0,0.0,0.0,0.0,0.0,0.0,0.0,0.0,0.0,0.0,0.0,0.0,0.0,0.0,0.0,0.0,0.0,0.0,0.0,0.0,0.0,0.0,0.0,0.0,0.0,0.0,0.0,0.0,0.0,0.0,0.0,0.0,0.0,0.0,0.0,0.0,0.0,0.0,0.0,0.0,0.0,0.0,0.0,0.0,0.0,0.0,0.0,0.0,0.0,0.0,0.0,0.0,0.0,0.0,0.0,0.0,0.0,0.0,0.0,0.0,0.0,0.0,0.0,0.0,0.0,0.0,0.0,0.0,0.0,0.0,0.0,0.0,0.0,0.0,0.0,0.0,0.0,0.0,0.0,0.0,0.0,0.0,0.0,0.0,0.0,0.0,0.0,0.0,0.0,0.0,0.0,0.0,0.0,0.0,0.0,0.0,0.0,0.0,0.0,0.0,0.0,0.0,0.0,0.0,0.0,0.0,0.0,0.0,0.0,0.0,0.0,0.0,0.0,0.0,0.0,0.0,0.0,0.0,0.0,0.0,0.0,0.0,0.0,0.0,0.0,0.0,0.0,0.0,0.0,0.0,0.0,0.0,0.0,0.0,0.0,0.0,0.0,0.0,0.0,0.0,0.0,0.0,0.0,0.0,0.0,0.0,0.0,0.0,0.0,0.0,0.0,0.0,0.0,0.0,0.0,0.0,0.0,0.0,0.0,0.0,0.0,0.0,0.0,0.0,0.0,0.0,0.0,0.0,0.0,0.0,0.0,0.0,0.0,0.0,0.0,0.0,0.0,0.0,0.0,0.0,0.0,0.0,0.0,0.0,0.0,0.0,0.0,0.0,0.0,0.0,0.0,0.0,0.0,0.0,0.0,0.0,0.0,0.0,0.0,0.0,0.0,0.0,0.0,0.0,0.0,0.0,0.0,0.0,0.0,0.0,0.0,0.0,0.0,0.0,0.0,0.0,0.0,0.0,0.0,0.0,0.0,0.0,0.0,0.0,0.0,0.0,0.0,0.0,0.0,0.0,0.0,0.0,0.0,0.0,0.0,0.0,0.0,0.0,0.0,0.0,0.0,0.0,0.0,0.0,0.0,0.0,0.0,0.0,0.0,0.0,0.0,0.0,0.0,0.0,0.0,0.0,0.0,0.0,0.0,0.0,0.0,0.0,0.0,0.0,0.0,0.0,0.0,0.0,0.0,0.0,0.0,0.0,0.0,0.0,0.0,0.0,0.0,0.0,0.0,0.0,0.0,0.0,0.0,0.0,0.0,0.0,0.0,0.0,0.0,0.0,0.0,0.0,0.0,0.0,0.0,0.0,0.0,0.0,0.0,0.0,0.0,0.0,0.0,0.0,0.0,0.0,0.0,0.0,0.0,0.0,0.0,0.0,0.0,0.0,0.0,0.0,0.0,0.0,0.0,0.0,0.0,0.0,0.0,0.0,0.0,0.0,0.0,0.0,0.0,0.0,0.0,0.0,0.0,0.0,0.0,0.0,0.0,0.0,0.0,0.0,0.0,0.0,0.0,0.0,0.0,0.0,0.0,0.0,0.0,0.0,0.0,0.0,0.0,0.0,0.0,0.0,0.0,0.0,0.0,0.0,0.0,0.0,0.0,0.0,0.0,0.0,0.0,0.0,0.0,0.0,0.0,0.0,0.0,0.0,0.0,0.0,0.0,0.0,0.0,0.0,0.0,0.0,0.0,0.0,0.0,0.0,0.0,0.0,0.0,0.0,0.0,0.0,0.0,0.0,0.0,0.0,0.0,0.0,0.0,0.0,0.0,0.0,0.0,0.0,0.0,0.0,0.0,0.0,0.0,0.0,0.0,0.0,0.0,0.0,0.0,0.0,0.0,0.0,0.0,0.0,0.0,0.0,0.0,0.0,0.0,0.0,0.0,0.0,0.0,0.0,0.0,0.0,0.0,0.0,0.0,0.0,0.0,0.0,0.0,0.0,0.0,0.0,0.0,0.0,0.0,0.0,0.0,0.0,0.0,0.0,0.0,0.0,0.0,0.0,0.0,0.0,0.0,0.0,0.0,0.0,0.0,0.0,0.0,0.0,0.0,0.0,0.0,0.0,0.0,0.0,0.0,0.0,0.0,0.0,0.0,0.0,0.0,0.0,0.0,0.0,0.0,0.0,0.0,0.0,0.0,0.0,0.0,0.0,0.0,0.0,0.0,0.0,0.0,0.0,0.0,0.0,0.0,0.0,0.0,0.0,0.0,0.0,0.0,0.0,0.0,0.0,0.0,0.0,0.0,0.0,0.0,0.0,0.0,0.0,0.0,0.0,0.0,0.0,0.0,0.0,0.0,0.0,0.0,0.0,0.0,0.0,0.0,0.0,0.0,0.0,0.0,0.0,0.0,0.0,0.0,0.0,0.0,0.0,0.0,0.0,0.0,0.0,0.0,0.0,0.0,0.0,0.0,0.0,0.0,0.0,0.0,0.0,0.0,0.0,0.0,0.0,0.0,0.0,0.0,0.0,0.0,0.0,0.0,0.0,0.0,0.0,0.0,0.0,0.0,0.0,0.0,0.0,0.0,0.0,0.0,0.0,0.0,0.0,0.0,0.0,0.0,0.0,0.0,0.0,0.0,0.0,0.0,0.0,0.0,0.0,0.0,0.0,0.0,0.0,0.0,0.0,0.0,0.0,0.0,0.0,0.0,0.0,0.0,0.0,0.0,0.0,0.0,0.0,0.0,0.0,0.0,0.0,0.0,0.0,0.0,0.0,0.0,0.0,0.0,0.0,0.0,0.0,0.0,0.0,0.0,0.0,0.0,0.0,0.0,0.0,0.0,0.0,0.0,0.0,0.0,0.0,0.0,0.0,0.0,0.0,0.0,0.0,0.0,0.0,0.0,0.0,0.0,0.0,0.0,0.0,0.0,0.0,0.0,0.0,0.0,0.0,0.0,0.0,0.0,0.0,0.0,0.0,0.0,0.0,-1.5413,0.0,0.0,0.0,0.0,0.0,0.0,0.0,0.0,0.0,0.0,0.0,0.0,0.0,0.0,0.0,0.0,0.0,0.0,0.0,0.0,0.0,0.0,0.0,0.0,0.0,0.0,0.0,0.0,0.0,0.0,0.0,0.0,0.0,0.0,0.0,0.0,0.0,0.0,0.0,0.0,0.0,0.0,0.0,0.0,0.0,0.0,0.0,0.0,0.0,0.0,0.0,0.0,0.0,0.0,0.0,0.0,0.0,0.0,0.0,0.0,0.0,0.0,0.0,0.0,0.0,0.0,0.0,0.0,0.0,0.0,0.0,0.0,0.0,0.0,0.0,0.0,0.0,0.0,0.0,0.0,0.0,0.0,0.0,0.0,0.0,0.0,0.0,0.0,0.0,0.0,0.0,0.0,0.0,0.0,0.0,0.0,0.0,0.0,0.0,0.0,0.0,0.0,0.0,0.0,0.0,0.0,0.0,0.0,0.0,0.0,-1.65,-1.6262,-1.6088,-1.5869,-1.5568,0.0,0.0,0.0,0.0,0.0,0.0,0.0,0.0,0.0,0.0,0.0,0.0,0.0,0.0,0.0,0.0,0.0,0.0,0.0,0.0,0.0,0.0,0.0,0.0,0.0,0.0,0.0,0.0,0.0,0.0,0.0,0.0,0.0,0.0,0.0,0.0,0.0,0.0,0.0,0.0,0.0,0.0,0.0,0.0,0.0,0.0,0.0,0.0,0.0,0.0,0.0,0.0,0.0,0.0,0.0,0.0,0.0,0.0,0.0,0.0,0.0,0.0,0.0,0.0,0.0,0.0,0.0,0.0,0.0,0.0,0.0,0.0,0.0,0.0,0.0,0.0,0.0,0.0,0.0,0.0,0.0,0.0,0.0,0.0,0.0,0.0,0.0,0.0,0.0,0.0,0.0,0.0,0.0,0.0,0.0,0.0,0.0,0.0,0.0,0.0,0.0,0.0,0.0,0.0,0.0,0.0,0.0,0.0,0.0,0.0,0.0,0.0,-1.6579,-1.6386,-1.5976,0.0,0.0,0.0,0.0,0.0,0.0,0.0,0.0,0.0,0.0,0.0,0.0,0.0,0.0,0.0,0.0,0.0,0.0,0.0,0.0,0.0,0.0,0.0,0.0,0.0,0.0,0.0,0.0,0.0,0.0,0.0,0.0,0.0,0.0,0.0,0.0,0.0,0.0,0.0,0.0,0.0,0.0,0.0,0.0,0.0,0.0,0.0,0.0,0.0,0.0,0.0,0.0,0.0,0.0,0.0,0.0,0.0,0.0,0.0,0.0,0.0,0.0,0.0,0.0,0.0,0.0,0.0,0.0,0.0,0.0,0.0,0.0,0.0,0.0,0.0,0.0,0.0,0.0,0.0,0.0,0.0,0.0,0.0,0.0,0.0,0.0,0.0,0.0,0.0,0.0,0.0,0.0,0.0,0.0,0.0,0.0,0.0,0.0,0.0,0.0,0.0,0.0,0.0,0.0,0.0,0.0,0.0,0.0,0.0,0.0,-1.7756,-1.7734,-1.7734,0.0,-1.6495,0.0,0.0,0.0,0.0,0.0,0.0,0.0,0.0,0.0,0.0,0.0,0.0,0.0,0.0,0.0,0.0,0.0,0.0,0.0,0.0,0.0,0.0,0.0,0.0,0.0,0.0,0.0,0.0,0.0,0.0,0.0,0.0,0.0,0.0,0.0,0.0,0.0,0.0,0.0,0.0,0.0,0.0,0.0,0.0,0.0,0.0,0.0,0.0,0.0,0.0,0.0,0.0,0.0,0.0,0.0,0.0,0.0,0.0,0.0,0.0,0.0,0.0,0.0,0.0,0.0,0.0,0.0,0.0,0.0,0.0,0.0,0.0,0.0,0.0,0.0,0.0,0.0,0.0,0.0,0.0,0.0,0.0,0.0,0.0,0.0,0.0,0.0,0.0,0.0,0.0,0.0,0.0,0.0,0.0,0.0,0.0,0.0,0.0,0.0,0.0,0.0,0.0,0.0,0.0,0.0,0.0,0.0,0.0,0.0,0.0,-1.8795,-1.919,-1.8822,-1.8131,0.0,0.0,0.0,0.0,0.0,0.0,0.0,0.0,0.0,0.0,0.0,0.0,0.0,0.0,0.0,0.0,0.0,0.0,0.0,0.0,0.0,0.0,0.0,0.0,0.0,0.0,0.0,0.0,0.0,0.0,0.0,0.0,0.0,0.0,0.0,0.0,0.0,0.0,0.0,0.0,0.0,0.0,0.0,0.0,0.0,0.0,0.0,0.0,0.0,0.0,0.0,0.0,0.0,0.0,0.0,0.0,0.0,0.0,0.0,0.0,0.0,0.0,0.0,0.0,0.0,0.0,0.0,0.0,0.0,0.0,0.0,0.0,0.0,0.0,0.0,0.0,0.0,0.0,0.0,0.0,0.0,0.0,0.0,0.0,0.0,0.0,0.0,0.0,0.0,0.0,0.0,0.0,0.0,0.0,0.0,0.0,0.0,0.0,0.0,0.0,0.0,0.0,0.0,0.0,0.0,0.0,0.0,0.0,0.0,0.0,-1.9336,-1.9978,-2.0592,-2.0006,-1.9162,-1.816,0.0,0.0,0.0,0.0,0.0,0.0,0.0,0.0,0.0,0.0,0.0,0.0,0.0,0.0,0.0,0.0,0.0,0.0,0.0,0.0,0.0,0.0,0.0,0.0,0.0,0.0,0.0,0.0,0.0,0.0,0.0,0.0,0.0,0.0,0.0,0.0,0.0,0.0,0.0,0.0,0.0,0.0,0.0,0.0,0.0,0.0,0.0,0.0,0.0,0.0,0.0,0.0,0.0,0.0,0.0,0.0,0.0,0.0,0.0,0.0,0.0,0.0,0.0,0.0,0.0,0.0,0.0,0.0,0.0,0.0,0.0,0.0,0.0,0.0,0.0,0.0,0.0,0.0,0.0,0.0,0.0,0.0,0.0,0.0,0.0,0.0,0.0,0.0,0.0,0.0,0.0,0.0,0.0,0.0,0.0,0.0,0.0,0.0,0.0,0.0,0.0,0.0,0.0,0.0,0.0,0.0,0.0,0.0,-1.9551,-2.0471,-2.1305,-2.2051,-2.132,-2.0518,0.0,0.0,0.0,0.0,0.0,0.0,0.0,0.0,0.0,0.0,0.0,0.0,0.0,0.0,0.0,0.0,0.0,0.0,0.0,0.0,0.0,0.0,0.0,0.0,0.0,0.0,0.0,0.0,0.0,0.0,0.0,0.0,0.0,0.0,0.0,0.0,0.0,0.0,0.0,0.0,0.0,0.0,0.0,0.0,0.0,0.0,0.0,0.0,0.0,0.0,0.0,0.0,0.0,0.0,0.0,0.0,0.0,0.0,0.0,0.0,0.0,0.0,0.0,0.0,0.0,0.0,0.0,0.0,0.0,0.0,0.0,0.0,0.0,0.0,0.0,0.0,0.0,0.0,0.0,0.0,0.0,0.0,0.0,0.0,0.0,0.0,0.0,0.0,0.0,0.0,0.0,0.0,0.0,0.0,0.0,0.0,0.0,0.0,0.0,0.0,0.0,0.0,0.0,0.0,0.0,0.0,0.0,0.0,0.0,-2.0926,-2.2282,-2.2926,-2.2828,-2.2099,-2.1281,0.0,0.0,0.0,0.0,0.0,0.0,0.0,0.0,0.0,0.0,0.0,0.0,0.0,0.0,0.0,0.0,0.0,0.0,0.0,0.0,0.0,0.0,0.0,0.0,0.0,0.0,0.0,0.0,0.0,0.0,0.0,0.0,0.0,0.0,0.0,0.0,0.0,0.0,0.0,0.0,0.0,0.0,0.0,0.0,0.0,0.0,0.0,0.0,0.0,0.0,0.0,0.0,0.0,0.0,0.0,0.0,0.0,0.0,0.0,0.0,0.0,0.0,0.0,0.0,0.0,0.0,0.0,0.0,0.0,0.0,0.0,0.0,0.0,0.0,0.0,0.0,0.0,0.0,0.0,0.0,0.0,0.0,0.0,0.0,0.0,0.0,0.0,0.0,0.0,0.0,0.0,0.0,0.0,0.0,0.0,0.0,0.0,0.0,0.0,0.0,0.0,0.0,0.0,0.0,0.0,0.0,0.0,0.0,0.0,-2.235,0.0,-2.4194,-2.377,-2.279,-2.1961,0.0,0.0,0.0,0.0,0.0,0.0,0.0,0.0,0.0,0.0,0.0,0.0,0.0,0.0,0.0,0.0,0.0,0.0,0.0,0.0,0.0,0.0,0.0,0.0,0.0,0.0,0.0,0.0,0.0,0.0,0.0,0.0,0.0,0.0,0.0,0.0,0.0,0.0,0.0,0.0,0.0,0.0,0.0,0.0,0.0,0.0,0.0,0.0,0.0,0.0,0.0,0.0,0.0,0.0,0.0,0.0,0.0,0.0,0.0,0.0,0.0,0.0,0.0,0.0,0.0,0.0,0.0,0.0,0.0,0.0,0.0,0.0,0.0,0.0,0.0,0.0,0.0,0.0,0.0,0.0,0.0,0.0,0.0,0.0,0.0,0.0,0.0,0.0,0.0,0.0,0.0,0.0,0.0,0.0,0.0,0.0,0.0,0.0,0.0,0.0,0.0,0.0,0.0,0.0,0.0,0.0,0.0,0.0,-2.2173,-2.373,-2.4614,-2.5065,-2.497,-2.3516,-2.2596,0.0,0.0,0.0,0.0,0.0,0.0,0.0,0.0,0.0,0.0,0.0,0.0,0.0,0.0,0.0,0.0,0.0,0.0,0.0,0.0,0.0,0.0,0.0,0.0,0.0,0.0,0.0,0.0,0.0,0.0,0.0,0.0,0.0,0.0,0.0,0.0,0.0,0.0,0.0,0.0,0.0,0.0,0.0,0.0,0.0,0.0,0.0,0.0,0.0,0.0,0.0,0.0,0.0,0.0,0.0,0.0,0.0,0.0,0.0,0.0,0.0,0.0,0.0,0.0,0.0,0.0,0.0,0.0,0.0,0.0,0.0,0.0,0.0,0.0,0.0,0.0,0.0,0.0,0.0,0.0,0.0,0.0,0.0,0.0,0.0,0.0,0.0,0.0,0.0,0.0,0.0,0.0,0.0,0.0,0.0,0.0,0.0,0.0,0.0,0.0,0.0,0.0,0.0,0.0,0.0,0.0,0.0,0.0,0.0,-2.4844,-2.6126,-2.6494,-2.5903,-2.4925,-2.3872,0.0,0.0,0.0,0.0,0.0,0.0,0.0,0.0,0.0,0.0,0.0,0.0,0.0,0.0,0.0,0.0,0.0,0.0,0.0,0.0,0.0,0.0,0.0,0.0,0.0,0.0,0.0,0.0,0.0,0.0,0.0,0.0,0.0,0.0,0.0,0.0,0.0,0.0,0.0,0.0,0.0,0.0,0.0,0.0,0.0,0.0,0.0,0.0,0.0,0.0,0.0,0.0,0.0,0.0,0.0,0.0,0.0,0.0,0.0,0.0,0.0,0.0,0.0,0.0,0.0,0.0,0.0,0.0,0.0,0.0,0.0,0.0,0.0,0.0,0.0,0.0,0.0,0.0,0.0,0.0,0.0,0.0,0.0,0.0,0.0,0.0,0.0,0.0,0.0,0.0,0.0,0.0,0.0,0.0,0.0,0.0,0.0,0.0,0.0,0.0,0.0,0.0,0.0,0.0,0.0,0.0,0.0,0.0,0.0,-2.7066,-2.7756,-2.7833,-2.7246,-2.621,-2.5012,-2.3661,0.0,0.0,0.0,0.0,0.0,0.0,0.0,0.0,0.0,0.0,0.0,0.0,0.0,0.0,0.0,0.0,0.0,0.0,0.0,0.0,0.0,0.0,0.0,0.0,0.0,0.0,0.0,0.0,0.0,0.0,0.0,0.0,0.0,0.0,0.0,0.0,0.0,0.0,0.0,0.0,0.0,0.0,0.0,0.0,0.0,0.0,0.0,0.0,0.0,0.0,0.0,0.0,0.0,0.0,0.0,0.0,0.0,0.0,0.0,0.0,0.0,0.0,0.0,0.0,0.0,0.0,0.0,0.0,0.0,0.0,0.0,0.0,0.0,0.0,0.0,0.0,0.0,0.0,0.0,0.0,0.0,0.0,0.0,0.0,0.0,0.0,0.0,0.0,0.0,0.0,0.0,0.0,0.0,0.0,0.0,0.0,0.0,0.0,0.0,0.0,0.0,0.0,0.0,0.0,0.0,0.0,0.0,0.0,-3.0114,-2.9572,-2.9188,-2.8887,-2.7407,-2.6098,0.0,0.0,0.0,0.0,0.0,0.0,0.0,0.0,0.0,0.0,0.0,0.0,0.0,0.0,0.0,0.0,0.0,0.0,0.0,0.0,0.0,0.0,0.0,0.0,0.0,0.0,0.0,0.0,0.0,0.0,0.0,0.0,0.0,0.0,0.0,0.0,0.0,0.0,0.0,0.0,0.0,0.0,0.0,0.0,0.0,0.0,0.0,0.0,0.0,0.0,0.0,0.0,0.0,0.0,0.0,0.0,0.0,0.0,0.0,0.0,0.0,0.0,0.0,0.0,0.0,0.0,0.0,0.0,0.0,0.0,0.0,0.0,0.0,0.0,0.0,0.0,0.0,0.0,0.0,0.0,0.0,0.0,0.0,0.0,0.0,0.0,0.0,0.0,0.0,0.0,0.0,0.0,0.0,0.0,0.0,0.0,0.0,0.0,0.0,0.0,0.0,0.0,0.0,0.0,0.0,0.0,0.0,0.0,0.0,-3.1622,-3.2476,-3.2043,-3.0267,-2.9223,-2.7732,0.0,0.0,0.0,0.0,0.0,0.0,0.0,0.0,0.0,0.0,0.0,0.0,0.0,0.0,0.0,0.0,0.0,0.0,0.0,0.0,0.0,0.0,0.0,0.0,0.0,0.0,0.0,0.0,0.0,0.0,0.0,0.0,0.0,0.0,0.0,0.0,0.0,0.0,0.0,0.0,0.0,0.0,0.0,0.0,0.0,0.0,0.0,0.0,0.0,0.0,0.0,0.0,0.0,0.0,0.0,0.0,0.0,0.0,0.0,0.0,0.0,0.0,0.0,0.0,0.0,0.0,0.0,0.0,0.0,0.0,0.0,0.0,0.0,0.0,0.0,0.0,0.0,0.0,0.0,0.0,0.0,0.0,0.0,0.0,0.0,0.0,0.0,0.0,0.0,0.0,0.0,0.0,0.0,0.0,0.0,0.0,0.0,0.0,0.0,0.0,0.0,0.0,0.0,0.0,0.0,0.0,0.0,0.0,-3.1523,-3.3212,-3.4454,-3.4374,-3.2857,-3.1126,-2.9109,0.0,0.0,0.0,0.0,0.0,0.0,0.0,0.0,0.0,0.0,0.0,0.0,0.0,0.0,0.0,0.0,0.0,0.0,0.0,0.0,0.0,0.0,0.0,0.0,0.0,0.0,0.0,0.0,0.0,0.0,0.0,0.0,0.0,0.0,0.0,0.0,0.0,0.0,0.0,0.0,0.0,0.0,0.0,0.0,0.0,0.0,0.0,0.0,0.0,0.0,0.0,0.0,0.0,0.0,0.0,0.0,0.0,0.0,0.0,0.0,0.0,0.0,0.0,0.0,0.0,0.0,0.0,0.0,0.0,0.0,0.0,0.0,0.0,0.0,0.0,0.0,0.0,0.0,0.0,0.0,0.0,0.0,0.0,0.0,0.0,0.0,0.0,0.0,0.0,0.0,0.0,0.0,0.0,0.0,0.0,0.0,0.0,0.0,0.0,0.0,0.0,0.0,0.0,0.0,0.0,0.0,0.0,0.0,-3.3207,-3.4669,-3.5798,-3.6276,-3.5895,-3.3022,-3.0425,0.0,0.0,0.0,0.0,0.0,0.0,0.0,0.0,0.0,0.0,0.0,0.0,0.0,0.0,0.0,0.0,0.0,0.0,0.0,0.0,0.0,0.0,0.0,0.0,0.0,0.0,0.0,0.0,0.0,0.0,0.0,0.0,0.0,0.0,0.0,0.0,0.0,0.0,0.0,0.0,0.0,0.0,0.0,0.0,0.0,0.0,0.0,0.0,0.0,0.0,0.0,0.0,0.0,0.0,0.0,0.0,0.0,0.0,0.0,0.0,0.0,0.0,0.0,0.0,0.0,0.0,0.0,0.0,0.0,0.0,0.0,0.0,0.0,0.0,0.0,0.0,0.0,0.0,0.0,0.0,0.0,0.0,0.0,0.0,0.0,0.0,0.0,0.0,0.0,0.0,0.0,0.0,0.0,0.0,0.0,0.0,0.0,0.0,0.0,0.0,0.0,0.0,0.0,0.0,0.0,0.0,0.0,0.0,-3.3652,-3.5935,-3.7111,-3.7482,-3.7062,-3.4331,-3.2047,0.0,0.0,0.0,0.0,0.0,0.0,0.0,0.0,0.0,0.0,0.0,0.0,0.0,0.0,0.0,0.0,0.0,0.0,0.0,0.0,0.0,0.0,0.0,0.0,0.0,0.0,0.0,0.0,0.0,0.0,0.0,0.0,0.0,0.0,0.0,0.0,0.0,0.0,0.0,0.0,0.0,0.0,0.0,0.0,0.0,0.0,0.0,0.0,-2.2992,0.0,0.0,0.0,0.0,0.0,0.0,0.0,0.0,0.0,0.0,0.0,0.0,0.0,0.0,0.0,0.0,0.0,0.0,0.0,0.0,0.0,0.0,0.0,0.0,0.0,0.0,0.0,0.0,0.0,0.0,0.0,0.0,0.0,0.0,0.0,0.0,0.0,0.0,0.0,0.0,0.0,0.0,0.0,0.0,0.0,0.0,0.0,0.0,0.0,0.0,0.0,0.0,0.0,0.0,0.0,0.0,0.0,0.0,0.0,-3.4529,-3.6745,-3.7923,-3.8325,-3.7859,-3.5726,-3.3345,0.0,0.0,0.0,0.0,0.0,0.0,0.0,0.0,0.0,0.0,0.0,0.0,0.0,0.0,0.0,0.0,0.0,0.0,0.0,0.0,0.0,0.0,0.0,0.0,0.0,0.0,0.0,0.0,0.0,0.0,0.0,0.0,0.0,0.0,0.0,0.0,0.0,0.0,0.0,0.0,0.0,0.0,0.0,0.0,0.0,0.0,0.0,0.0,0.0,0.0,0.0,0.0,0.0,0.0,0.0,0.0,0.0,0.0,0.0,0.0,0.0,0.0,0.0,0.0,0.0,0.0,0.0,0.0,0.0,0.0,0.0,0.0,0.0,0.0,0.0,0.0,0.0,0.0,0.0,0.0,0.0,0.0,0.0,0.0,0.0,0.0,0.0,0.0,0.0,0.0,0.0,0.0,0.0,0.0,0.0,0.0,0.0,0.0,0.0,0.0,0.0,0.0,0.0,0.0,0.0,0.0,0.0,-3.3102,-3.544,-3.7349,-3.8547,-3.8939,-3.8588,-3.7008,-3.4421,-3.0771,0.0,0.0,0.0,0.0,0.0,0.0,0.0,0.0,0.0,0.0,0.0,0.0,0.0,0.0,0.0,0.0,0.0,0.0,0.0,0.0,0.0,0.0,0.0,0.0,0.0,0.0,0.0,0.0,0.0,0.0,0.0,0.0,0.0,0.0,0.0,0.0,0.0,0.0,-2.2002,-2.3245,0.0,0.0,0.0,0.0,0.0,0.0,0.0,0.0,-2.4809,0.0,0.0,0.0,0.0,0.0,0.0,0.0,0.0,0.0,0.0,0.0,0.0,0.0,0.0,0.0,0.0,0.0,0.0,0.0,0.0,0.0,0.0,0.0,0.0,0.0,0.0,0.0,0.0,0.0,0.0,0.0,0.0,0.0,0.0,0.0,0.0,0.0,0.0,0.0,0.0,0.0,0.0,0.0,0.0,0.0,0.0,0.0,0.0,0.0,0.0,0.0,0.0,0.0,0.0,0.0,0.0,-3.048,-3.2969,-3.5454,-3.7923,-3.9074,-3.9454,-3.8983,-3.7591,-3.5219,-3.1875,0.0,0.0,0.0,0.0,0.0,0.0,0.0,0.0,0.0,0.0,0.0,0.0,0.0,0.0,0.0,0.0,0.0,0.0,0.0,0.0,0.0,0.0,0.0,0.0,0.0,0.0,0.0,0.0,0.0,0.0,0.0,0.0,0.0,0.0,0.0,0.0,0.0,0.0,0.0,-2.4285,-2.5106,0.0,0.0,0.0,0.0,0.0,0.0,0.0,0.0,-2.6787,0.0,0.0,0.0,0.0,0.0,0.0,0.0,0.0,0.0,0.0,0.0,0.0,0.0,0.0,0.0,0.0,0.0,0.0,0.0,0.0,0.0,0.0,0.0,0.0,0.0,0.0,0.0,0.0,0.0,0.0,0.0,0.0,0.0,0.0,0.0,0.0,0.0,0.0,0.0,0.0,0.0,0.0,0.0,0.0,0.0,0.0,0.0,0.0,0.0,0.0,0.0,0.0,0.0,0.0,0.0,-3.0805,-3.3046,-3.5566,-3.8392,-3.8939,-3.9093,-3.9043,-3.7296,-3.4807,0.0,0.0,0.0,0.0,0.0,0.0,0.0,0.0,0.0,0.0,0.0,0.0,0.0,0.0,0.0,0.0,0.0,0.0,0.0,0.0,0.0,0.0,0.0,0.0,0.0,0.0,0.0,0.0,0.0,0.0,0.0,0.0,0.0,0.0,0.0,0.0,0.0,0.0,0.0,0.0,-2.571,-2.6592,-2.7697,0.0,0.0,0.0,0.0,0.0,0.0,-2.8292,-2.8025,0.0,0.0,0.0,0.0,0.0,0.0,0.0,0.0,0.0,0.0,0.0,0.0,0.0,0.0,0.0,0.0,0.0,0.0,0.0,0.0,0.0,0.0,0.0,0.0,0.0,0.0,0.0,0.0,0.0,0.0,0.0,0.0,0.0,0.0,0.0,0.0,0.0,0.0,0.0,0.0,0.0,0.0,0.0,0.0,0.0,0.0,0.0,0.0,0.0,0.0,0.0,0.0,0.0,0.0,0.0,-3.0909,-3.2999,-3.5556,-3.8528,-3.855,-3.8669,-3.9043,-3.6893,-3.4212,0.0,0.0,0.0,0.0,0.0,0.0,0.0,0.0,0.0,0.0,0.0,0.0,0.0,0.0,0.0,0.0,0.0,0.0,0.0,0.0,0.0,0.0,0.0,0.0,0.0,0.0,0.0,0.0,0.0,0.0,0.0,0.0,0.0,0.0,0.0,0.0,0.0,0.0,0.0,0.0,0.0,-2.7941,-2.9713,-2.9971,0.0,0.0,0.0,0.0,-3.0023,-2.9526,0.0,0.0,0.0,0.0,0.0,0.0,0.0,0.0,0.0,0.0,0.0,0.0,0.0,0.0,0.0,0.0,0.0,0.0,0.0,0.0,0.0,0.0,0.0,0.0,0.0,0.0,0.0,0.0,0.0,0.0,0.0,0.0,0.0,0.0,0.0,0.0,0.0,0.0,0.0,0.0,0.0,0.0,0.0,0.0,0.0,0.0,0.0,0.0,0.0,0.0,0.0,0.0,0.0,0.0,0.0,0.0,-3.0239,-3.262,-3.5209,-3.7844,-3.8221,-3.8545,-3.9043,-3.6878,-3.4226,0.0,0.0,0.0,0.0,0.0,0.0,0.0,0.0,0.0,0.0,0.0,0.0,0.0,0.0,0.0,0.0,0.0,0.0,0.0,0.0,0.0,0.0,0.0,0.0,0.0,0.0,0.0,0.0,0.0,0.0,0.0,0.0,0.0,0.0,0.0,0.0,0.0,0.0,0.0,0.0,0.0,-2.8322,-3.1143,-3.1532,-3.1954,0.0,0.0,-3.3151,-3.3084,-3.1719,0.0,0.0,0.0,0.0,0.0,0.0,0.0,0.0,0.0,0.0,0.0,0.0,0.0,0.0,0.0,0.0,0.0,0.0,0.0,0.0,0.0,0.0,0.0,0.0,0.0,0.0,0.0,0.0,0.0,0.0,0.0,0.0,0.0,0.0,0.0,0.0,0.0,0.0,0.0,0.0,0.0,0.0,0.0,0.0,0.0,0.0,0.0,0.0,0.0,0.0,0.0,0.0,0.0,0.0,0.0,-2.8421,-3.0697,-3.2724,-3.5102,-3.7777,-3.7675,-3.7872,-3.845,-3.6227,-3.3798,0.0,0.0,0.0,0.0,0.0,0.0,0.0,0.0,0.0,0.0,0.0,0.0,0.0,0.0,0.0,0.0,0.0,0.0,0.0,0.0,0.0,0.0,0.0,0.0,0.0,0.0,0.0,0.0,0.0,0.0,0.0,0.0,0.0,0.0,0.0,0.0,0.0,0.0,0.0,0.0,0.0,0.0,-3.2126,-3.2812,0.0,0.0,0.0,-3.3796,-3.4084,0.0,0.0,0.0,0.0,0.0,0.0,0.0,0.0,0.0,0.0,0.0,0.0,0.0,0.0,0.0,0.0,0.0,0.0,0.0,0.0,0.0,0.0,0.0,0.0,0.0,0.0,0.0,0.0,0.0,0.0,0.0,0.0,0.0,0.0,0.0,0.0,0.0,0.0,0.0,0.0,0.0,0.0,0.0,0.0,0.0,0.0,0.0,0.0,0.0,0.0,0.0,0.0,0.0,0.0,0.0,0.0,0.0,-3.0909,-3.2756,-3.4968,-3.7492,-3.7222,-3.7327,-3.792,-3.5733,0.0,0.0,0.0,0.0,0.0,0.0,0.0,0.0,0.0,0.0,0.0,0.0,0.0,0.0,0.0,0.0,0.0,0.0,0.0,0.0,0.0,0.0,0.0,0.0,0.0,0.0,0.0,-2.2511,0.0,0.0,0.0,0.0,0.0,0.0,0.0,0.0,0.0,0.0,0.0,0.0,0.0,0.0,-3.1591,-3.3248,-3.4332,-3.5187,0.0,0.0,-3.4797,-3.5013,-3.4192,-3.3117,0.0,0.0,0.0,0.0,0.0,0.0,0.0,0.0,0.0,0.0,0.0,0.0,0.0,0.0,0.0,0.0,0.0,0.0,0.0,0.0,0.0,0.0,0.0,0.0,0.0,0.0,0.0,0.0,0.0,0.0,0.0,0.0,0.0,0.0,0.0,0.0,0.0,0.0,0.0,0.0,0.0,0.0,0.0,0.0,0.0,0.0,0.0,0.0,0.0,0.0,0.0,0.0,0.0,0.0,0.0,-3.0185,-3.249,-3.4729,-3.6777,-3.6955,-3.7311,-3.792,-3.5748,-3.3477,0.0,0.0,0.0,0.0,0.0,0.0,0.0,0.0,0.0,0.0,0.0,0.0,0.0,0.0,0.0,0.0,0.0,0.0,0.0,0.0,0.0,0.0,0.0,0.0,0.0,0.0,0.0,0.0,0.0,0.0,0.0,0.0,0.0,0.0,0.0,0.0,0.0,0.0,0.0,0.0,0.0,-3.2541,-3.4729,-3.6375,-3.7548,0.0,0.0,-3.7313,-3.6631,-3.5552,-3.4223,-3.2597,0.0,0.0,0.0,0.0,0.0,0.0,0.0,0.0,0.0,0.0,0.0,0.0,0.0,0.0,0.0,0.0,0.0,0.0,0.0,0.0,0.0,0.0,0.0,0.0,0.0,0.0,0.0,0.0,0.0,0.0,0.0,0.0,0.0,0.0,0.0,0.0,0.0,0.0,0.0,0.0,0.0,0.0,0.0,0.0,0.0,0.0,0.0,0.0,0.0,0.0,0.0,0.0,0.0,-2.9123,-3.0762,-3.2707,-3.4505,-3.6118,-3.6704,-3.714,-3.7374,-3.5532,-3.369,0.0,0.0,0.0,0.0,0.0,0.0,0.0,0.0,0.0,0.0,0.0,0.0,0.0,0.0,0.0,0.0,0.0,0.0,0.0,0.0,0.0,0.0,0.0,0.0,0.0,0.0,0.0,0.0,-2.2672,-2.2712,-2.2712,0.0,0.0,0.0,0.0,0.0,0.0,0.0,0.0,0.0,0.0,-3.3289,-3.5452,-3.6702,0.0,0.0,-3.7807,-3.7077,-3.6974,-3.5806,-3.4268,-3.2448,-3.1526,0.0,0.0,0.0,0.0,0.0,0.0,0.0,0.0,0.0,0.0,0.0,0.0,0.0,0.0,0.0,0.0,0.0,0.0,0.0,0.0,0.0,0.0,0.0,0.0,0.0,0.0,0.0,0.0,0.0,0.0,0.0,0.0,0.0,0.0,0.0,0.0,0.0,0.0,0.0,0.0,0.0,0.0,0.0,0.0,0.0,0.0,0.0,0.0,0.0,0.0,0.0,0.0,-2.9486,-3.1187,-3.3045,-3.4595,-3.5762,-3.6593,-3.6999,-3.6938,-3.5363,-3.3842,0.0,0.0,0.0,0.0,0.0,0.0,0.0,0.0,0.0,0.0,0.0,0.0,0.0,0.0,0.0,0.0,0.0,0.0,0.0,0.0,0.0,0.0,0.0,0.0,0.0,0.0,0.0,0.0,-2.2712,-2.2712,-2.2712,0.0,0.0,0.0,0.0,0.0,0.0,0.0,0.0,0.0,0.0,-3.3891,-3.5792,-3.6669,-3.7473,-3.8478,-3.76,-3.6812,-3.6788,-3.5778,-3.4398,-3.2562,0.0,0.0,0.0,0.0,0.0,0.0,0.0,0.0,0.0,0.0,0.0,0.0,0.0,0.0,0.0,0.0,0.0,0.0,0.0,0.0,0.0,0.0,0.0,0.0,0.0,0.0,0.0,0.0,0.0,0.0,-2.8545,0.0,0.0,0.0,0.0,0.0,0.0,0.0,0.0,0.0,0.0,0.0,0.0,0.0,0.0,0.0,0.0,0.0,0.0,0.0,0.0,0.0,0.0,-2.9975,-3.122,-3.3512,-3.5043,-3.581,-3.6578,-3.6999,-3.6938,-3.5363,-3.3814,-3.2382,0.0,0.0,0.0,0.0,0.0,0.0,0.0,0.0,0.0,0.0,0.0,0.0,0.0,0.0,0.0,0.0,0.0,0.0,0.0,0.0,0.0,0.0,0.0,0.0,0.0,0.0,-2.2737,-2.2733,-2.275,0.0,0.0,0.0,0.0,0.0,0.0,0.0,0.0,0.0,0.0,-3.2921,-3.4374,-3.5809,-3.639,-3.7015,-3.7811,-3.7426,-3.6821,-3.6133,-3.5545,-3.4667,0.0,0.0,0.0,0.0,0.0,0.0,0.0,0.0,0.0,0.0,0.0,0.0,0.0,0.0,0.0,0.0,0.0,0.0,0.0,0.0,0.0,0.0,0.0,0.0,0.0,0.0,0.0,-2.9259,-2.9928,0.0,0.0,0.0,0.0,0.0,0.0,0.0,0.0,0.0,0.0,0.0,-3.2318,-3.1759,0.0,0.0,0.0,0.0,0.0,0.0,0.0,0.0,0.0,0.0,0.0,0.0,-3.0491,-3.2609,-3.3995,-3.5299,-3.6494,-3.6859,-3.6999,-3.6999,-3.5363,-3.317,-3.0343,0.0,0.0,0.0,0.0,0.0,0.0,0.0,0.0,0.0,0.0,0.0,0.0,0.0,0.0,0.0,0.0,0.0,0.0,0.0,0.0,0.0,0.0,0.0,0.0,0.0,-2.4024,0.0,0.0,0.0,0.0,0.0,0.0,0.0,0.0,0.0,0.0,0.0,-2.9901,-3.2115,-3.3146,-3.435,-3.6197,-3.65,-3.6709,0.0,0.0,0.0,0.0,0.0,0.0,0.0,0.0,0.0,0.0,0.0,0.0,0.0,0.0,-2.8768,-2.788,-2.7734,-2.7734,-2.7734,0.0,0.0,0.0,0.0,0.0,0.0,0.0,0.0,0.0,0.0,0.0,0.0,0.0,0.0,-3.1426,0.0,-3.2064,0.0,0.0,0.0,0.0,0.0,0.0,0.0,0.0,-3.3477,-3.4004,-3.4631,-3.4085,-3.3974,0.0,-3.349,-3.2288,0.0,0.0,0.0,0.0,0.0,0.0,0.0,0.0,-3.1275,-3.3399,-3.4572,-3.5721,-3.6846,-3.6969,-3.6999,-3.6953,-3.5115,-3.2816,-3.0037,-2.8419,-2.668,0.0,0.0,0.0,0.0,0.0,0.0,0.0,0.0,0.0,0.0,0.0,0.0,0.0,0.0,0.0,0.0,0.0,0.0,0.0,0.0,0.0,0.0,0.0,-2.4824,0.0,0.0,0.0,0.0,0.0,0.0,0.0,0.0,0.0,-2.7975,-2.899,-3.051,-3.273,-3.3226,-3.4074,-3.5879,0.0,0.0,0.0,0.0,0.0,0.0,0.0,-3.355,-3.2873,-3.2418,-3.1829,-3.089,-3.0541,-3.0402,-3.0402,0.0,0.0,-2.9273,-2.9095,-2.9104,-2.9079,-2.9054,-2.8989,-2.8864,-2.8611,-2.8434,0.0,0.0,0.0,0.0,0.0,0.0,0.0,0.0,-3.2865,-3.3261,0.0,-3.3844,0.0,0.0,0.0,0.0,0.0,-3.4105,0.0,0.0,-3.5975,-3.6243,-3.6826,-3.6843,-3.674,-3.652,-3.5792,-3.5333,-3.5079,-3.2283,0.0,0.0,0.0,0.0,0.0,0.0,-3.2365,-3.3705,-3.5211,-3.6295,-3.691,-3.6985,-3.6968,-3.6844,-3.4682,-3.2798,-3.1351,-2.9327,-2.7614,-2.6237,-2.4813,0.0,0.0,0.0,0.0,0.0,0.0,0.0,0.0,0.0,0.0,0.0,0.0,0.0,0.0,0.0,0.0,0.0,0.0,0.0,0.0,-2.4853,0.0,0.0,0.0,0.0,0.0,0.0,0.0,0.0,0.0,0.0,-2.9247,-2.984,-3.0985,-3.3051,0.0,0.0,0.0,0.0,-3.4659,-3.453,-3.425,-3.4041,-3.3915,-3.3658,-3.3424,-3.3293,0.0,0.0,-3.0815,-3.0567,-3.0509,-3.0463,-3.0525,-3.0463,-3.0479,-3.0371,-3.0325,-3.0314,-3.019,-3.0121,-2.9978,-2.9561,-2.9297,-3.7968,0.0,0.0,0.0,0.0,-3.4087,-3.4469,-3.4716,-3.5193,-3.55,-3.5671,-3.5597,0.0,0.0,0.0,0.0,0.0,0.0,-3.7291,-3.7692,-3.7983,-3.8265,-3.8437,-3.8303,-3.8196,-3.8131,-3.7819,-3.7379,-3.6788,-3.5407,-3.349,-3.1143,0.0,0.0,0.0,0.0,-3.2823,-3.4997,-3.5802,-3.6619,-3.7585,-3.7397,-3.6664,-3.5386,-3.4593,-3.3075,-3.0782,-2.9623,-2.8209,-2.6412,-2.5402,0.0,0.0,0.0,0.0,0.0,0.0,0.0,0.0,0.0,0.0,0.0,0.0,0.0,0.0,0.0,0.0,0.0,0.0,0.0,-2.6129,-2.6343,-2.6407,0.0,0.0,0.0,0.0,0.0,0.0,0.0,0.0,0.0,-2.9524,-2.9867,-3.0627,0.0,0.0,-3.3044,-3.3785,-3.4121,-3.4226,-3.4075,-3.3848,0.0,0.0,-3.3335,-3.3176,-3.3016,-3.2667,-3.2303,-3.194,-3.184,-3.1828,-3.1828,-3.1828,-3.1828,-3.1767,-3.1017,-3.0422,-3.0282,-3.0215,-3.0068,-2.9738,-2.9426,-2.9287,-4.1386,-3.9435,-3.7665,-3.6625,-3.6203,-3.6666,-3.706,-3.7413,-3.7794,-3.8126,-3.842,-3.8295,-3.8172,-3.808,-3.7794,0.0,0.0,0.0,-3.9166,-3.9723,-3.9908,-4.032,-4.0812,-4.0683,-4.0412,-4.0055,-3.9692,-3.9112,-3.8336,-3.7577,-3.599,-3.3611,0.0,0.0,-3.2253,-3.2597,-3.3678,-3.5382,-3.6032,-3.675,-3.7555,-3.7408,-3.6601,-3.5172,-3.4745,-3.3406,-3.0905,-3.0125,-2.8735,-2.6472,-2.5935,-2.494,0.0,0.0,0.0,0.0,0.0,0.0,0.0,0.0,0.0,0.0,0.0,-2.1568,-2.173,0.0,0.0,0.0,-2.5129,-2.6152,-2.6825,-2.6925,0.0,0.0,0.0,0.0,0.0,0.0,0.0,-2.8039,-2.8488,-2.9047,-2.9779,-3.0009,-3.0462,-3.1594,-3.1885,-3.2164,-3.2688,0.0,-3.3045,-3.2846,-3.2908,-3.2823,-3.2389,-3.2473,-3.2529,-3.2395,-3.2245,-3.223,-3.2394,-3.2398,-3.2398,-3.2398,-3.2398,-3.2398,-3.2398,-3.172,-3.1144,-3.101,-3.0956,-3.0767,-3.0353,-3.0018,-2.9797,-4.4228,-4.3838,-4.0847,-3.9491,-3.9305,-3.9287,-3.9751,-4.0457,-4.0333,-4.0748,-4.1474,-4.1301,-4.1172,-4.1058,-4.0689,0.0,-4.0271,-4.0008,-4.066,-4.198,-4.17,-4.2259,-4.3464,-4.3336,-4.2832,-4.1981,-4.1309,-4.0584,-3.9784,-3.9048,-3.7922,-3.6473,-3.494,-3.4065,-3.384,-3.4279,-3.4718,-3.5124,-3.6107,-3.6782,-3.7058,-3.7139,-3.6651,-3.5576,-3.4909,-3.355,-3.1451,-3.07,-2.9104,-2.6518,-2.6371,-2.5493,-2.3522,0.0,0.0,0.0,0.0,0.0,0.0,0.0,0.0,0.0,0.0,0.0,0.0,0.0,0.0,0.0,-2.6033,0.0,-2.6859,-2.6876,0.0,0.0,0.0,-2.6892,-2.6708,-2.6725,-2.7195,-2.8344,0.0,0.0,-3.0013,-3.0167,-3.0391,-3.1062,-3.0991,-3.1085,-3.1597,-3.163,-3.1485,-3.1279,-3.1688,-3.1775,-3.1107,-3.1358,-3.1638,-3.1537,-3.14,-3.1547,-3.2028,-3.2167,-3.2213,-3.2167,-3.2228,-3.2198,-3.2228,-3.209,-3.2189,-3.19,-3.1914,-3.1838,-3.1433,-3.0955,-3.0526,-4.6085,-4.4915,-4.4153,-4.2742,-4.1014,-4.1029,-4.1126,-4.1311,-4.1278,-4.1364,-4.1508,-4.1443,-4.1235,-4.0959,-4.1377,-4.1341,-4.0999,-4.197,-4.2505,-4.2679,-4.2894,-4.3199,-4.3482,-4.3304,-4.28,-4.2033,-4.1843,-4.136,-4.0601,-3.9842,-3.8957,-3.8043,-3.7107,-3.5993,-3.4751,-3.4576,-3.4976,-3.5966,-3.6497,-3.6829,-3.693,-3.6724,-3.593,-3.4491,-3.3677,-3.2535,-3.1026,-3.0301,-2.8909,-2.6741,-2.6534,-2.5793,-2.4271,-2.3006,0.0,0.0,0.0,0.0,0.0,0.0,0.0,0.0,0.0,-2.2385,-2.3052,0.0,-2.4706,0.0,-2.6016,-2.6606,-2.6674,-2.6742,0.0,0.0,-2.6708,-2.664,-2.6555,-2.6954,-2.7531,-2.826,-2.8715,-2.921,-2.9831,-2.9875,-2.9796,-2.9807,-3.0335,-3.0723,-3.0617,-3.1021,-3.12,-3.0952,-3.1002,-3.1029,-3.0711,-3.0691,-3.0706,-3.0685,-3.0658,-3.072,-3.0874,-3.0863,-3.0863,-3.0863,-3.0863,-3.0878,-3.0894,-3.0878,-3.0799,-3.0647,-3.117,-3.1668,-3.1263,-3.0777,-3.0312,-4.6958,-4.5807,-4.5454,-4.4283,-4.2649,-4.2667,-4.2667,-4.2667,-4.2667,-4.2652,-4.2591,-4.2551,-4.2357,-4.2073,-4.2322,-4.2248,-4.1977,-4.2513,-4.2849,-4.2988,-4.2981,-4.3193,-4.3482,-4.3296,-4.2775,-4.1992,-4.1992,-4.1619,-4.0912,-4.0446,-3.9664,-3.8612,-3.8203,-3.7176,-3.5628,-3.5322,-3.5464,-3.5967,-3.6142,-3.6303,-3.6493,-3.6202,-3.5256,-3.3736,-3.3204,-3.2123,-3.0417,-2.9675,-2.8506,-2.6782,-2.6343,-2.5668,-2.459,-2.32,-2.244,0.0,0.0,0.0,0.0,0.0,0.0,0.0,0.0,0.0,0.0,0.0,-2.531,-2.5556,-2.613,-2.6486,-2.6554,-2.6572,-2.6589,-2.6571,-2.684,-2.6937,-2.6829,-2.7406,-2.8004,-2.8476,-2.8792,-2.9118,-2.9516,-2.9499,-2.935,-2.9143,-2.953,-2.9823,-2.9675,-2.9934,-3.0057,-2.9853,-3.0077,-3.0229,-3.0093,-2.973,-2.9617,-2.9879,-2.994,-3.0048,-3.034,-3.0402,-3.0402,-3.0402,-3.0402,-3.0402,-3.0402,-3.0402,-3.0324,-3.0152,-3.0419,-3.0623,-3.0274,-3.0032,-2.9804,-4.733,-4.6438,-4.5732,-4.4896,-4.4005,-4.4005,-4.4005,-4.4005,-4.4005,-4.4005,-4.3989,-4.3867,-4.3703,-4.3496,-4.3251,-4.3012,-4.2765,-4.2458,-4.2598,-4.3103,-4.2753,-4.2921,-4.3482,-4.3314,-4.2775,-4.1992,-4.1992,-4.1612,-4.0912,-4.0808,-4.0014,-3.8646,-3.8513,-3.7754,-3.6353,-3.6127,-3.5917,-3.5706,-3.5604,-3.5684,-3.5862,-3.5571,-3.463,-3.3113,-3.2824,-3.1783,-2.9802,-2.9021,-2.8006,-2.6686,-2.6061,-2.5394,-2.4661,-2.3335,-2.2605,0.0,-2.1506,0.0,0.0,0.0,0.0,0.0,0.0,0.0,0.0,-2.525,-2.5846,-2.615,-2.6241,-2.6347,-2.6451,-2.6485,-2.6519,-2.6602,-2.7136,-2.7446,-2.7358,-2.7965,-2.85,-2.8772,-2.8849,-2.8973,-2.9141,-2.9048,-2.8871,-2.8605,-2.8505,-2.849,-2.8576,-2.8732,-2.8841,-2.8589,-2.8991,-2.9206,-2.9052,-2.8541,-2.8319,-2.8833,-2.8895,-2.9202,-2.9658,-2.9756,-2.9802,-2.9787,-2.9679,-2.9756,-2.9879,-2.9817,-2.9771,-2.9498,-2.9388,-2.927,-2.9224,-2.9231,-2.9144,-4.7813,-4.6494,-4.6327,-4.5398,-4.4023,-4.4005,-4.4005,-4.4005,-4.4005,-4.4005,-4.3989,-4.3913,-4.3749,-4.358,-4.3462,-4.3214,-4.2899,-4.324,-4.3349,-4.3283,-4.3522,-4.3569,-4.3499,-4.3353,-4.2832,-4.2009,-4.1992,-4.1636,-4.0894,-4.0233,-3.9474,-3.8617,-3.8013,-3.7232,-3.6353,0.0,0.0,0.0,-3.5983,-3.5735,-3.5347,-3.4607,-3.371,-3.265,-3.139,0.0,-2.9281,-2.8572,-2.757,-2.623,-2.5958,0.0,0.0,0.0,0.0,0.0,0.0,0.0,0.0,0.0,0.0,0.0,-2.4694,-2.5106,-2.5144,-2.5577,-2.5917,-2.6026,-2.6189,-2.6313,-2.633,-2.6434,-2.6702,-2.7181,-2.7329,-2.7572,-2.7976,-2.8553,-2.8919,-2.8816,-2.9118,-2.9108,-2.8562,-2.8265,-2.7926,-2.7419,-2.7067,-2.6936,-2.6983,-2.793,-2.8542,-2.8468,-2.8121,-2.7859,-2.778,-2.7203,-2.6896,-2.6934,-2.6965,-2.7072,-2.7257,-2.7272,-2.7211,-2.7257,-2.7149,-2.7226,-2.7226,-2.7149,-2.7402,-2.7513,-2.7497,-2.771,-2.884,-2.8809,-2.844,-4.8203,0.0,-4.6661,-4.5769,0.0,-4.4172,-4.4005,-4.4005,-4.4005,-4.4005,-4.4005,-4.3929,-4.3849,-4.3749,-4.3565,-4.3339,-4.305,-4.3125,-4.3023,-4.2807,-4.2785,-4.2671,-4.2539,-4.2315,-4.1981,-4.1536,-4.1091,-4.0687,-4.0267,-3.9526,-3.8784,-3.8065,-3.7685,-3.7094,-3.6318,-3.6212,-3.6115,-3.5973,-3.5668,-3.5324,-3.4863,-3.3939,-3.2955,-3.1953,0.0,0.0,0.0,0.0,0.0,0.0,0.0,0.0,0.0,0.0,0.0,-2.3295,-2.2681,-2.2481,-2.2968,-2.3634,-2.4195,-2.4675,-2.516,-2.5464,-2.5448,-2.5731,-2.5899,-2.5954,-2.6151,-2.6258,-2.6258,-2.6328,-2.6477,-2.6773,-2.7122,-2.7429,-2.7599,-2.8145,-2.8429,-2.8183,-2.8303,-2.8259,-2.7768,-2.7476,-2.7202,-2.6848,-2.6598,-2.643,-2.6507,-2.7048,-2.7466,-2.7419,-2.7165,-2.6919,-2.6872,-2.6641,-2.6349,-2.6418,-2.638,-2.6364,-2.638,-2.6402,-2.6402,-2.638,-2.6364,-2.6364,-2.6364,-2.638,-2.6435,-2.6481,-2.6455,-2.6468,-2.7166,-2.7586,-2.7796,-4.8426,-4.7646,-4.6828,-4.6046,-4.5231,-4.4376,-4.4005,-4.4005,0.0,0.0,0.0,-4.3945,-4.3913,-4.3881,-4.3651,-4.3445,-4.3251,-4.2861,-4.2552,-4.2348,-4.1892,-4.167,-4.1582,-4.1284,-4.1071,-4.0851,-4.0118,-3.9652,-3.9474,-3.8772,-3.8116,-3.7547,-3.7357,-3.6978,-3.6335,-3.6229,-3.6036,-3.5667,-3.5344,-3.4904,-3.4373,-3.3364,-3.2353,-3.1326,-2.9908,-2.8758,-2.7965,-2.6693,-2.5982,-2.5819,-2.5302,-2.5005,-2.497,-2.4302,-2.3888,-2.3872,-2.3404,-2.3396,-2.4039,-2.4236,-2.4611,-2.5285,-2.5543,-2.5637,-2.5619,-2.5789,-2.5917,-2.5917,-2.6079,-2.6185,-2.6185,-2.6203,-2.6252,-2.6385,-2.6934,-2.7241,-2.7145,-2.7617,-2.7879,-2.749,-2.7454,-2.7274,-2.6952,-2.6685,-2.6455,-2.6324,-2.6047,-2.601,-2.6057,-2.6279,-2.6526,-2.6526,-2.6364,-2.6195,-2.618,-2.601,-2.6048,-2.5903,-2.5918,-2.5958,-2.601,-2.601,-2.6048,-2.5903,-2.598,-2.5896,-2.5927,-2.5903,-2.599,-2.5857,-2.5811,-2.5719,-2.5429,-2.617,-2.6777,-4.8444,-4.7627,-4.6828,-4.6048,-4.5212,-4.4358,-4.4005,-4.4005,-4.4005,-4.4005,-4.4005,-4.3989,-4.3942,-4.3881,-4.3802,-4.3652,-4.3445,-4.3178,-4.286,-4.255,-4.2187,-4.187,-4.1604,-4.1426,-4.0896,-4.0106,-3.9927,-3.9479,-3.8755,-3.8013,-3.7599,-3.7426,-3.6801,-3.6422,-3.6297,-3.6229,-3.6122,-3.5932,-3.5538,-3.4877,-3.3909,-3.2859,-3.1878,-3.0965,-2.9393,-2.8152,-2.7344,-2.6597,-2.5842,-2.5195,-2.5049,-2.5005,-2.497,-2.4318,-2.3888,-2.3888,-2.3919,-2.3975,-2.4105,-2.4742,-2.524,-2.5524,-2.5749,-2.5807,-2.5701,-2.5864,-2.599,-2.599,-2.6115,-2.6185,-2.6185,-2.6203,-2.6435,-2.7,-2.7199,-2.7422,-2.7669,-2.7846,-2.7769,-2.7357,-2.7406,-2.6998,-2.6303,-2.6,-2.5633,-2.5072,-2.4921,-2.4671,-2.4902,-2.5588,-2.6272,-2.6303,-2.5857,-2.5496,-2.5404,-2.4964,-2.4758,-2.461,-2.4666,-2.4748,-2.4779,-2.4764,-2.4779,-2.4656,-2.4712,-2.4681,-2.4666,-2.4594,-2.4817,-2.505,-2.5128,-2.5123,-2.5059,-2.5189,-2.5049,-4.8686,-4.8203,-4.7033,-4.629,-4.5844,-4.4562,-4.4005,-4.4005,-4.4005,-4.4005,-4.4005,-4.4005,-4.3974,-4.3961,-4.3899,-4.3751,-4.3529,-4.3322,-4.3068,-4.2747,-4.2396,-4.2127,-4.187,-4.1609,-4.1024,-4.0113,-3.9527,-3.8866,-3.8027,-3.7258,-3.6835,-3.6835,-3.6456,-3.6284,-3.6284,-3.6276,-3.617,-3.5997,-3.5689,-3.498,-3.3921,-3.2964,-3.1968,-3.092,-2.9409,-2.8201,-2.7343,-2.6621,-2.5935,-2.5194,-2.5162,-2.5143,-2.5162,-2.484,-2.4665,-2.4665,-2.4703,-2.4812,-2.4909,-2.5365,-2.5675,-2.5749,-2.5952,-2.6043,-2.5972,-2.5974,-2.6008,-2.5992,-2.6115,-2.6221,-2.6258,-2.6258,-2.6409,-2.6708,-2.6758,-2.6783,-2.6895,-2.6866,-2.6749,-2.6469,-2.633,-2.6066,-2.5572,-2.5339,-2.5097,-2.4656,-2.441,-2.4302,-2.4281,-2.481,-2.5241,-2.5226,-2.4964,-2.4789,-2.4743,-2.4533,-2.4312,-2.4281,-2.4281,-2.4281,-2.4281,-2.4281,-2.4266,-2.4281,-2.4281,-2.4281,-2.4266,-2.4297,-2.4367,-2.4356,-2.4459,-2.443,-2.4214,-2.3766,-2.3496,-4.8797,-4.8481,-4.7088,-4.629,-4.5825,-4.4562,-4.4005,-4.4005,-4.4005,-4.4005,-4.4005,-4.4005,-4.4005,-4.3989,-4.3929,-4.3832,-4.3647,-4.3425,-4.3196,-4.2939,-4.2634,-4.2374,-4.2089,-4.1668,-4.0937,-4.0032,-3.9047,-3.8135,-3.7347,-3.6619,-3.6284,-3.6284,-3.6284,-3.6284,-3.6284,-3.6284,-3.6212,-3.5997,-3.5783,-3.5178,-3.4102,-3.3189,-3.2193,-3.1059,-2.9643,-2.853,-2.7777,-2.7033,-2.6322,-2.5621,-2.5573,-2.5493,-2.533,-2.5317,-2.5317,-2.5333,-2.5371,-2.547,-2.5672,-2.5877,-2.597,-2.597,-2.6168,-2.6273,-2.6257,-2.6169,-2.6117,-2.6151,-2.6239,-2.6276,-2.6329,-2.6347,-2.6347,-2.6347,-2.6313,-2.6274,-2.6079,-2.5972,-2.5826,-2.5637,-2.5464,-2.5346,-2.5127,-2.4946,-2.4782,-2.4605,-2.4426,-2.4323,-2.4302,-2.4281,-2.4281,-2.4281,-2.4281,-2.4327,-2.4281,-2.4133,-2.4056,-2.4071,-2.3902,-2.3748,-2.3748,-2.381,-2.3825,-2.3748,-2.3784,-2.3738,-2.382,-2.38,-2.3687,-2.3564,-2.3492,-2.3396,-2.3069,-2.2692,-2.2512,-4.8481,-4.772,-4.6865,-4.5621,-4.4321,-4.4079,-4.4005,-4.4005,-4.4005,-4.4005,-4.4005,-4.4005,-4.4005,-4.3989,-4.3929,-4.3899,-4.3849,-4.3617,-4.3375,-4.3142,-4.2844,-4.2516,-4.218,-4.1328,-4.0358,-3.9375,-3.8412,-3.753,-3.6693,-3.6416,-3.6284,-3.6284,-3.6284,-3.6284,-3.6284,-3.6284,-3.6195,-3.6019,-3.5975,-3.5443,-3.4381,-3.3278,-3.2332,-3.1543,-2.9929,-2.9009,-2.8791,-2.814,-2.7308,-2.6498,-2.6366,-2.6053,-2.5413,-2.5355,-2.5397,-2.5397,-2.5551,-2.5719,-2.5879,-2.6061,-2.6168,-2.6202,-2.6345,-2.6468,-2.6467,-2.6467,-2.645,-2.645,-2.645,-2.6468,-2.6502,-2.6485,-2.6485,-2.6485,-2.6382,-2.6259,-2.6185,-2.6063,-2.5899,-2.5619,-2.5597,-2.5451,-2.5185,-2.5045,-2.4846,-2.46,-2.4498,-2.4436,-2.4323,-2.4317,-2.4281,-2.4281,-2.4281,-2.4266,-2.421,-2.3763,-2.3502,-2.3394,-2.2902,-2.2717,-2.2717,-2.2655,-2.2536,-2.2871,-2.2646,-2.2703,-2.2643,-2.2482,-2.2526,-2.2578,-2.2449,-2.2204,-2.2067,-2.2083,-2.2292,-4.8513,-4.7675,-4.6845,-4.5547,-4.4098,-4.4005,-4.4005,-4.4005,-4.4005,-4.4005,-4.4005,-4.4005,-4.4005,-4.4005,-4.3958,-4.3945,-4.3915,-4.3783,-4.3617,-4.3357,-4.3105,-4.2553,-4.1753,-4.125,-4.0225,-3.8775,-3.8208,-3.7484,-3.6727,-3.6402,-3.6284,-3.6284,-3.6284,-3.6284,-3.6284,-3.6284,-3.6255,-3.6122,-3.6041,-3.5735,-3.5142,-3.3816,-3.2605,-3.1591,-3.0509,-2.9638,-2.912,-2.8772,-2.8057,-2.6919,-2.6769,-2.6425,-2.5707,-2.5677,-2.5696,-2.5715,-2.5881,-2.6025,-2.6078,-2.6257,-2.6363,-2.638,-2.6485,-2.6554,-2.6571,-2.6589,-2.6623,-2.6606,-2.6555,-2.652,-2.6537,-2.6555,-2.6537,-2.6554,-2.6503,-2.6417,-2.6276,-2.6152,-2.6043,-2.5844,-2.5694,-2.5559,-2.5391,-2.5178,-2.4926,-2.4701,-2.458,-2.4477,-2.4416,-2.4359,-2.4302,-2.4281,-2.4281,-2.4117,-2.381,-2.3517,-2.3148,-2.2778,-2.2505,-2.232,-2.2259,-2.2305,-2.232,-2.2274,-2.2202,-2.221,-2.2375,-2.2296,-2.2262,-2.2068,-2.1812,-2.1634,-2.1435,-2.1541,-2.1707,-4.8296,-4.7404,-4.6352,-4.5154,-4.4023,-4.4005,-4.4005,-4.4005,-4.4005,-4.4005,-4.4005,-4.4005,-4.4005,-4.4005,-4.4005,-4.3974,-4.3929,-4.3931,-4.3767,-4.3494,-4.3138,-4.2432,-4.1499,-4.0767,-3.982,-3.8569,-3.7981,-3.7373,-3.6678,-3.6461,-3.6339,-3.6322,-3.6284,-3.6284,-3.6284,-3.6284,-3.6276,-3.6204,-3.6079,-3.5847,-3.5336,-3.4078,-3.2937,-3.2079,-3.1112,-3.0282,-2.9642,-2.9572,-2.8929,-2.7509,-2.7391,-2.6963,-2.6054,-2.6007,-2.6026,-2.6079,-2.6203,-2.6291,-2.6291,-2.6433,-2.652,-2.652,-2.6572,-2.6623,-2.6623,-2.6674,-2.6708,-2.6708,-2.6606,-2.6589,-2.6623,-2.664,-2.6623,-2.664,-2.6623,-2.6537,-2.6399,-2.6311,-2.6187,-2.6045,-2.586,-2.5675,-2.5578,-2.5259,-2.4985,-2.4862,-2.4661,-2.4518,-2.4498,-2.438,-2.4281,-2.4281,-2.4281,-2.404,-2.344,-2.3071,-2.2767,-2.2212,-2.1874,-2.1627,-2.175,-2.175,-2.1735,-2.1381,-2.1636,-2.1712,-2.1516,-2.161,-2.1719,-2.1568,-2.1385,-2.1159,-2.0863,-2.1026,-2.1008,-4.7538,-4.6551,-4.4997,-4.425,-4.4005,-4.4005,-4.4005,-4.4005,-4.4005,-4.4005,-4.4005,-4.4005,-4.4005,-4.4005,-4.4005,-4.4005,-4.3989,-4.3929,-4.3761,-4.3485,-4.2742,-4.21,-4.1578,-3.995,-3.8993,-3.8572,-3.768,-3.6958,-3.6564,-3.6502,-3.6423,-3.6301,-3.6322,-3.6284,-3.6284,-3.6284,-3.6276,-3.6208,-3.6079,-3.5608,-3.4785,-3.3893,-3.3305,-3.2963,-3.1687,-3.0838,-3.0767,-3.0801,-3.0042,-2.8477,-2.8394,-2.7724,-2.6405,-2.6259,-2.6329,-2.6433,-2.6468,-2.6468,-2.6502,-2.6554,-2.6606,-2.6589,-2.6657,-2.6708,-2.6691,-2.6691,-2.6708,-2.6708,-2.6674,-2.6691,-2.6691,-2.6691,-2.6691,-2.6691,-2.664,-2.6606,-2.6589,-2.6399,-2.6259,-2.6187,-2.6061,-2.5844,-2.5619,-2.5317,-2.5107,-2.4966,-2.4766,-2.4584,-2.4518,-2.438,-2.4317,-2.4281,-2.4251,-2.4071,-2.3409,-2.2871,-2.2212,-2.1627,-2.1165,-2.0549,-2.0428,-2.0397,-2.0458,-2.0487,-2.0652,-2.0668,-2.0472,-2.0424,-2.0479,-2.0518,-2.0736,-2.059,-2.0299,-2.0483,-2.05,-4.7273,-4.5854,-4.4737,-4.4211,-4.4135,-4.4119,-4.4089,-4.4005,-4.4005,-4.4005,-4.4005,-4.4005,-4.4005,-4.4005,-4.4005,-4.4005,-4.4005,-4.3992,-4.3616,-4.3042,-4.258,-4.1684,-4.0408,-3.9549,-3.8762,-3.8097,-3.7627,-3.7184,-3.6831,-3.6705,-3.6544,-3.6461,-3.6423,-3.6385,-3.6305,-3.6284,-3.628,-3.6255,-3.6084,-3.5617,-3.4802,-3.3901,-3.3182,-3.2655,-3.1554,-3.0952,-3.0912,-3.0912,-3.0403,-2.9376,-2.8891,-2.8172,-2.7218,-2.6667,-2.6434,-2.6502,-2.652,-2.6571,-2.6555,-2.664,-2.6674,-2.6657,-2.6691,-2.6708,-2.6708,-2.6708,-2.6708,-2.6708,-2.6708,-2.6708,-2.6708,-2.6708,-2.6708,-2.6691,-2.6674,-2.664,-2.6606,-2.6537,-2.6468,-2.638,-2.6239,-2.6005,-2.5694,-2.5486,-2.5336,-2.5103,-2.4946,-2.4766,-2.4605,-2.4482,-2.438,-2.4317,-2.4266,-2.4071,-2.3409,-2.2732,-2.2089,-2.1411,-2.0857,-2.0518,-2.032,-2.032,-2.0379,-2.0395,-2.0302,-2.0302,-2.0366,-2.0333,-2.02,-2.0104,-2.0295,-2.0172,-1.9711,-2.001,-2.0004,-4.6594,-4.5215,-4.4601,-4.4314,-4.4229,-4.4199,-4.4135,-4.407,-4.402,-4.4005,-4.4005,-4.4005,-4.4005,-4.3949,-4.3745,-4.3615,-4.3615,-4.3615,-4.3271,-4.2674,-4.1994,-4.1004,-3.9875,-3.9246,-3.8593,-3.7917,-3.7667,-3.741,-3.7027,-3.6849,-3.6725,-3.6582,-3.6523,-3.6461,-3.6381,-3.6322,-3.6284,-3.6259,-3.6088,-3.5553,-3.4571,-3.382,-3.2916,-3.2036,-3.1385,-3.1052,-3.0992,-3.0992,-3.0673,-2.9914,-2.9194,-2.8337,-2.7379,-2.6824,-2.6572,-2.6572,-2.6606,-2.664,-2.664,-2.6674,-2.6708,-2.6708,-2.6708,-2.6708,-2.6708,-2.6708,-2.6708,-2.6708,-2.6708,-2.6708,-2.6708,-2.6708,-2.6708,-2.6708,-2.6708,-2.6691,-2.6657,-2.6623,-2.6555,-2.6485,-2.6327,-2.6094,-2.584,-2.5691,-2.5486,-2.5224,-2.5103,-2.4886,-2.465,-2.4523,-2.4457,-2.4323,-2.4281,-2.4133,-2.3717,-2.3179,-2.2274,-2.1535,-2.0841,-2.0487,-2.0287,-2.0287,-2.0287,-2.0287,-2.0287,-2.0287,-2.0287,-2.0287,-2.0183,-2.0025,-2.0013,-1.9993,-1.9745,-1.9602,-1.9594,-4.5453,-4.4622,-4.4501,-4.4411,-4.43,-4.4259,-4.4199,-4.4057,-4.3977,-4.3819,-4.3708,-4.3856,-4.3726,-4.3726,-4.3058,-4.2797,-4.2797,-4.2705,-4.2585,-4.2341,-4.1048,-4.0206,-3.9751,-3.8917,-3.8394,-3.8051,-3.7757,-3.7392,-3.7068,-3.6989,-3.6888,-3.6705,-3.6585,-3.6523,-3.6502,-3.6364,-3.6322,-3.6259,-3.6105,-3.5314,-3.3994,-3.3545,-3.273,-3.1444,-3.1207,-3.1171,-3.1207,-3.1207,-3.0866,-3.0173,-2.9379,-2.8281,-2.7029,-2.6708,-2.6708,-2.6691,-2.6708,-2.6708,-2.6708,-2.6708,-2.6708,-2.6708,-2.6708,-2.6708,-2.6708,-2.6708,-2.6708,-2.6708,-2.6708,-2.6708,-2.6708,-2.6708,-2.6708,-2.6708,-2.6708,-2.6708,-2.6691,-2.664,-2.6589,-2.6502,-2.6328,-2.622,-2.613,-2.5877,-2.5581,-2.5413,-2.5182,-2.4946,-2.471,-2.4584,-2.4441,-2.4359,-2.4317,-2.4174,-2.3994,-2.3686,-2.264,-2.1704,-2.0996,-2.0472,-2.0333,-2.0287,-2.0287,-2.0287,-2.0287,-2.0287,-2.0287,-2.0287,-2.02,-2.0061,-1.999,-1.9866,-1.9718,-1.9549,-1.9359,-4.511,-4.4712,-4.4659,-4.4551,-4.4444,-4.4373,-4.3968,-4.3323,-4.3241,-4.2932,-4.2422,-4.2352,-4.2352,-4.2314,-4.2054,-4.1962,-4.1924,-4.1441,-4.113,-4.1007,-4.0467,-3.9841,-3.9227,-3.8799,-3.8417,-3.8085,-3.7775,-3.754,-3.7392,-3.7185,-3.7009,-3.6908,-3.6768,-3.6647,-3.6523,-3.6444,-3.6402,-3.628,-3.6105,-3.5279,-3.3926,-3.3528,-3.2696,-3.1376,-3.119,-3.119,-3.119,-3.119,-3.1072,-3.0818,-2.9651,-2.8316,-2.7029,-2.6708,-2.6708,-2.6708,-2.6708,-2.6708,-2.6708,-2.6708,-2.6708,-2.6708,-2.6708,-2.6708,-2.6708,-2.6708,-2.6708,-2.6708,-2.6708,-2.6708,-2.6708,-2.6708,-2.6708,-2.6708,-2.6708,-2.6708,-2.6708,-2.6674,-2.664,-2.6589,-2.6468,-2.6345,-2.6203,-2.595,-2.5749,-2.5562,-2.5352,-2.5103,-2.4906,-2.467,-2.4544,-2.4441,-2.438,-2.4281,-2.4112,-2.3887,-2.3179,-2.2336,-2.1581,-2.0949,-2.0703,-2.0448,-2.0416,-2.0287,-2.0287,-2.0287,-2.0287,-2.0252,-2.0166,-2.0078,-1.999,-1.9845,-1.9662,-1.9483,-1.9354,-4.5061,-4.4914,-4.4808,-4.451,-4.4151,-4.4031,-4.3432,-4.2594,-4.2481,-4.2143,-4.1708,-4.1642,-4.1605,-4.1534,-4.1293,-4.1163,-4.107,-4.0304,-3.9918,-3.9918,-3.9824,-3.947,-3.8943,-3.8765,-3.8499,-3.8153,-3.7897,-3.7739,-3.7631,-3.7429,-3.7241,-3.7145,-3.6987,-3.6811,-3.6687,-3.6547,-3.6461,-3.636,-3.611,-3.5296,-3.4055,-3.3549,-3.2696,-3.1427,-3.119,-3.119,-3.119,-3.119,-3.119,-3.0937,-2.9805,-2.8299,-2.6894,-2.6708,-2.6708,-2.6708,-2.6708,-2.6708,-2.6708,-2.6708,-2.6708,-2.6708,-2.6708,-2.6708,-2.6708,-2.6708,-2.6708,-2.6708,-2.6708,-2.6708,-2.6708,-2.6708,-2.6708,-2.6708,-2.6708,-2.6708,-2.6708,-2.6708,-2.6691,-2.664,-2.6555,-2.6468,-2.6328,-2.615,-2.5915,-2.5694,-2.547,-2.524,-2.5025,-2.4751,-2.4625,-2.4482,-2.438,-2.4302,-2.4287,-2.3994,-2.364,-2.2978,-2.2286,-2.1781,-2.1411,-2.0998,-2.0802,-2.0416,-2.0287,-2.0287,-2.0287,-2.0235,-2.015,-2.0078,-1.9973,-1.9812,-1.965,-1.9589,-1.9446,-4.5216,-4.5038,-4.4891,-4.4247,-4.3479,-4.3299,-4.2704,-4.1897,-4.1717,-4.1572,-4.145,-4.1281,-4.1307,-4.1215,-4.0583,-4.0327,-4.0178,-3.9602,-3.9231,-3.9212,-3.9198,-3.9101,-3.8983,-3.8795,-3.8515,-3.8236,-3.8119,-3.7984,-3.7757,-3.7649,-3.754,-3.7392,-3.7164,-3.7007,-3.6911,-3.6687,-3.6544,-3.6461,-3.6191,-3.5322,-3.3977,-3.3566,-3.2763,-3.1393,-3.1241,-3.119,-3.119,-3.119,-3.1157,-3.0954,-2.9721,-2.835,-2.7097,-2.6742,-2.6708,-2.6708,-2.6708,-2.6708,-2.6708,-2.6708,-2.6708,-2.6708,-2.6708,-2.6708,-2.6708,-2.6708,-2.6708,-2.6708,-2.6708,-2.6708,-2.6708,-2.6708,-2.6708,-2.6708,-2.6708,-2.6708,-2.6708,-2.6708,-2.6708,-2.6674,-2.6624,-2.6555,-2.6468,-2.6292,-2.6043,-2.5789,-2.5549,-2.5298,-2.5084,-2.4866,-2.4625,-2.4503,-2.4421,-2.4338,-2.4287,-2.422,-2.3917,-2.364,-2.3009,-2.2548,-2.2028,-2.1572,-2.1317,-2.0914,-2.0474,-2.0428,-2.0347,-2.0341,-2.0192,-2.0025,-1.9919,-1.9797,-1.969,-1.9629,-1.952,-4.5065,-4.4371,-4.4217,-4.3589,-4.2733,-4.253,-4.1964,-4.1147,-4.0999,-4.0632,-4.0149,-3.9881,-3.9914,-3.9802,-3.963,-3.9435,-3.9412,-3.9212,-3.9101,-3.9101,-3.9101,-3.9078,-3.8964,-3.8795,-3.8643,-3.8515,-3.8338,-3.8171,-3.7983,-3.7863,-3.7721,-3.754,-3.7392,-3.7184,-3.6989,-3.6908,-3.6731,-3.6506,-3.6339,-3.5702,-3.466,-3.3887,-3.3087,-3.2107,-3.1498,-3.1224,-3.119,-3.119,-3.0903,-3.0378,-2.9534,-2.8586,-2.7571,-2.6996,-2.6708,-2.6708,-2.6708,-2.6708,-2.6708,-2.6708,-2.6708,-2.6708,-2.6708,-2.6708,-2.6708,-2.6708,-2.6708,-2.6708,-2.6708,-2.6708,-2.6708,-2.6708,-2.6708,-2.6708,-2.6708,-2.6708,-2.6708,-2.6708,-2.6708,-2.6708,-2.664,-2.6589,-2.6485,-2.6345,-2.6115,-2.5881,-2.5605,-2.5359,-2.5182,-2.4946,-2.4706,-2.4605,-2.4503,-2.44,-2.4338,-2.4302,-2.422,-2.4164,-2.3748,-2.3317,-2.2709,-2.2124,-2.2,-2.1834,-2.1268,-2.1069,-2.0795,-2.0632,-2.0355,-2.0064,-1.9884,-1.9762,-1.9708,-1.9632,-1.9556,-4.4733,-4.4144,-4.3636,-4.2864,-4.2028,-4.1843,-4.1252,-4.0477,-4.0234,-3.9946,-3.9469,-3.9322,-3.9288,-3.9269,-3.9188,-3.9142,-3.9142,-3.9115,-3.9101,-3.9101,-3.9101,-3.9078,-3.8979,-3.8866,-3.878,-3.8692,-3.8567,-3.8403,-3.8201,-3.8052,-3.7897,-3.7792,-3.7595,-3.7411,-3.726,-3.7066,-3.6888,-3.6629,-3.6409,-3.5834,-3.4924,-3.4044,-3.3192,-3.2347,-3.1616,-3.119,-3.119,-3.119,-3.0852,-3.0142,-2.9397,-2.8619,-2.7841,-2.7114,-2.6708,-2.6708,-2.6708,-2.6708,-2.6708,-2.6708,-2.6708,-2.6708,-2.6708,-2.6708,-2.6708,-2.6708,-2.6708,-2.6708,-2.6708,-2.6708,-2.6708,-2.6708,-2.6708,-2.6708,-2.6708,-2.6708,-2.6708,-2.6708,-2.6708,-2.6674,-2.6657,-2.6623,-2.6554,-2.6398,-2.6205,-2.5972,-2.5701,-2.5492,-2.5314,-2.5045,-2.4806,-2.4666,-2.4544,-2.4441,-2.4359,-2.4317,-2.4281,-2.4271,-2.4179,-2.3794,-2.3322,-2.2701,-2.2536,-2.2397,-2.1997,-2.1598,-2.1224,-2.0837,-2.0451,-2.0177,-1.9921,-1.9744,-1.969,-1.9672,-1.9578,-4.427,-4.397,-4.3061,-4.2154,-4.1359,-4.1146,-4.0658,-3.9936,-3.9729,-3.9588,-3.9533,-3.9445,-3.9393,-3.9399,-3.9283,-3.921,-3.921,-3.9156,-3.9115,-3.9101,-3.9101,-3.9078,-3.9021,-3.8979,-3.8899,-3.8768,-3.8704,-3.8578,-3.8399,-3.8218,-3.8118,-3.8,-3.7774,-3.7631,-3.7503,-3.7259,-3.7007,-3.6791,-3.6547,-3.6042,-3.5214,-3.4345,-3.3488,-3.2622,-3.1633,-3.1224,-3.119,-3.1157,-3.0903,-3.0241,-2.9499,-2.8822,-2.801,-2.7249,-2.6793,-2.6708,-2.6708,-2.6708,-2.6708,-2.6708,-2.6708,-2.6708,-2.6708,-2.6708,-2.6708,-2.6708,-2.6708,-2.6708,-2.6708,-2.6708,-2.6708,-2.6708,-2.6708,-2.6708,-2.6708,-2.6708,-2.6708,-2.6708,-2.6708,-2.6708,-2.6708,-2.6674,-2.6589,-2.6503,-2.638,-2.6079,-2.5809,-2.5567,-2.5375,-2.5123,-2.4851,-2.463,-2.4528,-2.4462,-2.438,-2.4281,-2.4281,-2.4281,-2.4266,-2.4051,-2.3769,-2.3313,-2.3069,-2.2827,-2.264,-2.2158,-2.1504,-2.1084,-2.0655,-2.0138,-1.9825,-1.9726,-1.9723,-1.9705,-1.965,-4.3682,-4.2391,-4.2143,-4.1466,-4.0669,-4.0463,-4.0288,-4.0026,-3.9826,-3.9728,-3.9682,-3.9539,-3.9496,-3.9483,-3.9388,-3.936,-3.9346,-3.9242,-3.9137,-3.9101,-3.9101,-3.9101,-3.9059,-3.9017,-3.8954,-3.8851,-3.8792,-3.8667,-3.8491,-3.843,-3.8318,-3.8101,-3.8035,-3.7862,-3.7631,-3.7521,-3.7279,-3.6989,-3.6771,-3.644,-3.5876,-3.5018,-3.412,-3.3179,-3.189,-3.1241,-3.119,-3.119,-3.1106,-3.0835,-3.026,-2.9516,-2.8704,-2.7926,-2.7266,-2.681,-2.6708,-2.6708,-2.6708,-2.6708,-2.6708,-2.6708,-2.6708,-2.6708,-2.6708,-2.6708,-2.6708,-2.6708,-2.6708,-2.6708,-2.6708,-2.6708,-2.6708,-2.6708,-2.6708,-2.6708,-2.6708,-2.6708,-2.6708,-2.6708,-2.6708,-2.6674,-2.6606,-2.6537,-2.638,-2.6151,-2.5917,-2.5642,-2.5416,-2.5185,-2.495,-2.469,-2.4569,-2.4487,-2.44,-2.4323,-2.4281,-2.4281,-2.4281,-2.4281,-2.3999,-2.3907,-2.3656,-2.3512,-2.3423,-2.2774,-2.1938,-2.134,-2.0879,-2.0303,-1.9744,-1.9726,-1.9723,-1.9723,-1.9705,-4.2786,-4.1921,-4.1439,-4.0947,-4.0474,-4.0344,-4.0244,-4.0128,-4.0007,-3.9922,-3.9859,-3.9705,-3.9647,-3.9642,-3.9508,-3.9439,-3.94,-3.9264,-3.9183,-3.9142,-3.9129,-3.9101,-3.9101,-3.9059,-3.9007,-3.8935,-3.8862,-3.874,-3.8667,-3.8541,-3.843,-3.8283,-3.8168,-3.8017,-3.7828,-3.7685,-3.7447,-3.7182,-3.697,-3.671,-3.6222,-3.5473,-3.4309,-3.3172,-3.1893,-3.119,-3.119,-3.119,-3.119,-3.1089,-3.0801,-3.0091,-2.9059,-2.8247,-2.7469,-2.686,-2.6708,-2.6708,-2.6708,-2.6708,-2.6708,-2.6708,-2.6708,-2.6708,-2.6708,-2.6708,-2.6708,-2.6708,-2.6708,-2.6708,-2.6708,-2.6708,-2.6708,-2.6708,-2.6708,-2.6708,-2.6708,-2.6708,-2.6708,-2.6708,-2.6708,-2.6691,-2.664,-2.6555,-2.6434,-2.6241,-2.599,-2.5717,-2.5454,-2.5243,-2.5045,-2.4826,-2.467,-2.4549,-2.4426,-2.4343,-2.4281,-2.4281,-2.4281,-2.4281,-2.4189,-2.4189,-2.422,-2.4045,-2.3804,-2.3119,-2.2328,-2.1748,-2.0982,-2.0189,-1.9726,-1.9723,-1.9723,-1.9723,-1.9705,-4.1938,-4.1763,-4.0944,-4.0586,-4.0512,-4.0452,-4.036,-4.0252,-4.0167,-4.0099,-4.0017,-3.9892,-3.9826,-3.9781,-3.9635,-3.9551,-3.9464,-3.9343,-3.9256,-3.9183,-3.9142,-3.9115,-3.9101,-3.9087,-3.9078,-3.9007,-3.8921,-3.8866,-3.8743,-3.8618,-3.851,-3.8444,-3.8283,-3.8135,-3.8052,-3.7827,-3.7595,-3.7372,-3.7163,-3.6834,-3.6416,-3.5739,-3.4586,-3.3022,-3.1797,-3.1244,-3.121,-3.119,-3.119,-3.119,-3.119,-3.0378,-2.9228,-2.8399,-2.7536,-2.6826,-2.6708,-2.6708,-2.6708,-2.6708,-2.6708,-2.6708,-2.6708,-2.6708,-2.6708,-2.6708,-2.6708,-2.6708,-2.6708,-2.6708,-2.6708,-2.6708,-2.6708,-2.6708,-2.6708,-2.6708,-2.6708,-2.6708,-2.6708,-2.6708,-2.6708,-2.6691,-2.664,-2.6589,-2.6469,-2.6329,-2.6063,-2.5807,-2.5549,-2.5301,-2.5103,-2.4886,-2.4731,-2.4528,-2.4385,-2.4343,-2.4302,-2.4281,-2.4281,-2.4281,-2.4281,-2.4281,-2.4281,-2.4281,-2.3953,-2.3289,-2.2644,-2.2002,-2.116,-2.0152,-1.9723,-1.9723,-1.9723,-1.9723,-1.9705,-4.166,-4.0978,-4.0784,-4.0661,-4.066,-4.0595,-4.0527,-4.046,-4.0368,-4.028,-4.0168,-4.0098,-3.9986,-3.9881,-3.9785,-3.9658,-3.9539,-3.942,-3.9354,-3.9237,-3.9183,-3.9156,-3.9115,-3.9101,-3.9087,-3.9045,-3.8964,-3.8848,-3.8807,-3.8701,-3.859,-3.851,-3.8446,-3.835,-3.8168,-3.8017,-3.7827,-3.7576,-3.7353,-3.7048,-3.6661,-3.6011,-3.5074,-3.3349,-3.2026,-3.1356,-3.123,-3.119,-3.119,-3.119,-3.119,-3.0345,-2.9297,-2.8772,-2.7977,-2.7029,-2.6708,-2.6708,-2.6708,-2.6708,-2.6708,-2.6708,-2.6708,-2.6708,-2.6708,-2.6708,-2.6708,-2.6708,-2.6708,-2.6708,-2.6708,-2.6708,-2.6708,-2.6708,-2.6708,-2.6708,-2.6708,-2.6708,-2.6708,-2.6708,-2.6708,-2.6708,-2.6657,-2.6606,-2.6503,-2.6329,-2.6081,-2.5864,-2.5645,-2.5416,-2.5182,-2.4966,-2.4751,-2.4549,-2.4359,-2.4338,-2.4281,-2.4281,-2.4281,-2.4281,-2.4281,-2.4281,-2.4281,-2.4281,-2.4076,-2.3524,-2.2893,-2.2185,-2.1205,-2.0107,-1.9861,-1.9723,-1.9723,-1.9723,-1.9723,-4.1176,-4.0815,-4.0759,-4.0733,-4.0694,-4.066,-4.0617,-4.0565,-4.0519,-4.0417,-4.0304,-4.0271,-4.0177,-4.0059,-3.9986,-3.9826,-3.9635,-3.9521,-3.9439,-3.9335,-3.9256,-3.9183,-3.9142,-3.9096,-3.9101,-3.9059,-3.8964,-3.8877,-3.8837,-3.875,-3.8673,-3.8609,-3.8559,-3.8446,-3.83,-3.8152,-3.8002,-3.7757,-3.7558,-3.726,-3.6751,-3.5905,-3.4579,-3.3645,-3.2256,-3.1378,-3.1271,-3.121,-3.119,-3.1123,-3.0835,-3.004,-2.9247,-2.8501,-2.7909,-2.6945,-2.6708,-2.6708,-2.6708,-2.6708,-2.6708,-2.6708,-2.6708,-2.6708,-2.6708,-2.6708,-2.6708,-2.6708,-2.6708,-2.6708,-2.6708,-2.6708,-2.6708,-2.6708,-2.6708,-2.6708,-2.6708,-2.6708,-2.6708,-2.6708,-2.6708,-2.6708,-2.6691,-2.6606,-2.652,-2.6329,-2.6115,-2.5919,-2.5738,-2.5473,-2.5236,-2.497,-2.4751,-2.4564,-2.438,-2.4317,-2.4281,-2.4281,-2.4281,-2.4281,-2.4281,-2.4281,-2.4281,-2.4281,-2.3963,-2.3728,-2.2797,-2.1963,-2.1001,-2.0152,-1.9891,-1.9723,-1.9723,-1.9723,-1.9723,-4.0806,-4.0794,-4.0815,-4.0765,-4.0733,-4.0726,-4.0673,-4.0636,-4.061,-4.0546,-4.0449,-4.0427,-4.0351,-4.0224,-4.0118,-3.9954,-3.9728,-3.9611,-3.9521,-3.9458,-3.9354,-3.9256,-3.9165,-3.9156,-3.9115,-3.9087,-3.8993,-3.8925,-3.8848,-3.8765,-3.8707,-3.8658,-3.8593,-3.8525,-3.8462,-3.8302,-3.8104,-3.7915,-3.7721,-3.7375,-3.6464,-3.5153,-3.3975,-3.363,-3.2203,-3.1408,-3.1349,-3.1271,-3.1249,-3.1026,-3.055,-2.9786,-2.9025,-2.8247,-2.7486,-2.6843,-2.6708,-2.6708,-2.6708,-2.6708,-2.6708,-2.6708,-2.6708,-2.6708,-2.6708,-2.6708,-2.6708,-2.6708,-2.6708,-2.6708,-2.6708,-2.6708,-2.6708,-2.6708,-2.6708,-2.6708,-2.6708,-2.6708,-2.6708,-2.6708,-2.6708,-2.6708,-2.6691,-2.6589,-2.6502,-2.6364,-2.6151,-2.5954,-2.5754,-2.547,-2.5201,-2.497,-2.4735,-2.4528,-2.44,-2.4317,-2.4281,-2.4281,-2.4281,-2.4281,-2.4281,-2.4281,-2.4266,-2.4235,-2.4251,-2.3887,-2.2827,-2.1842,-2.108,-2.0433,-1.9954,-1.9723,-1.9723,-1.9723,-1.9723,-4.0846,-4.0794,-4.0814,-4.0796,-4.0771,-4.0784,-4.0746,-4.0687,-4.068,-4.0665,-4.0573,-4.0535,-4.0452,-4.0342,-4.0177,-4.0026,-3.9889,-3.9747,-3.9611,-3.9539,-3.947,-3.9354,-3.9224,-3.9178,-3.9142,-3.9101,-3.9021,-3.8968,-3.8896,-3.878,-3.8689,-3.8692,-3.8673,-3.8643,-3.851,-3.8399,-3.8269,-3.8069,-3.7809,-3.711,-3.6028,-3.4942,-3.3965,-3.3099,-3.2244,-3.1634,-3.1483,-3.1368,-3.1293,-3.1172,-3.0501,-2.9753,-2.9027,-2.8264,-2.7486,-2.6945,-2.6708,-2.6708,-2.6708,-2.6708,-2.6708,-2.6708,-2.6708,-2.6708,-2.6708,-2.6708,-2.6708,-2.6708,-2.6708,-2.6708,-2.6708,-2.6708,-2.6708,-2.6708,-2.6708,-2.6708,-2.6708,-2.6708,-2.6708,-2.6708,-2.6708,-2.6708,-2.6708,-2.6589,-2.6485,-2.6346,-2.6205,-2.599,-2.5789,-2.5489,-2.5123,-2.4851,-2.4715,-2.4528,-2.44,-2.4302,-2.4281,-2.4281,-2.4281,-2.4281,-2.4235,-2.4241,-2.4179,-2.4179,-2.4164,-2.3682,-2.2493,-2.163,-2.1137,-2.0541,-1.9894,-1.9726,-1.9723,-1.9723,-1.9738,-4.0888,-4.0865,-4.0812,-4.0808,-4.0796,-4.0803,-4.0784,-4.0752,-4.0752,-4.07,-4.066,-4.0619,-4.0561,-4.0436,-4.0252,-4.0128,-4.0027,-3.99,-3.9758,-3.9611,-3.9533,-3.9426,-3.9328,-3.9224,-3.917,-3.9101,-3.9017,-3.895,-3.8896,-3.8807,-3.875,-3.8707,-3.8707,-3.8692,-3.8575,-3.8494,-3.8385,-3.8028,-3.7431,-3.6666,-3.5845,-3.4725,-3.3682,-3.3095,-3.2255,-3.185,-3.167,-3.15,-3.137,-3.1111,-3.0255,-2.9437,-2.8791,-2.7926,-2.6979,-2.681,-2.6708,-2.6708,-2.6708,-2.6708,-2.6708,-2.6708,-2.6708,-2.6708,-2.6708,-2.6708,-2.6708,-2.6708,-2.6708,-2.6708,-2.6708,-2.6708,-2.6708,-2.6708,-2.6708,-2.6708,-2.6708,-2.6708,-2.6708,-2.6708,-2.6708,-2.6708,-2.6691,-2.6589,-2.6502,-2.6398,-2.6205,-2.597,-2.5752,-2.5524,-2.5123,-2.4706,-2.4609,-2.4528,-2.4405,-2.4281,-2.4281,-2.4281,-2.4281,-2.4266,-2.4194,-2.4148,-2.3963,-2.3594,-2.3271,-2.2682,-2.1906,-2.1591,-2.1292,-2.0545,-1.9759,-1.9816,-1.9872,-1.9798,-1.9813,-4.0898,-4.0888,-4.0859,-4.0831,-4.0794,-4.0796,-4.0803,-4.0797,-4.079,-4.0759,-4.0733,-4.0694,-4.0619,-4.0496,-4.0349,-4.0262,-4.0186,-4.0027,-3.9881,-3.9758,-3.9611,-3.9527,-3.9413,-3.9304,-3.9197,-3.911,-3.9078,-3.8993,-3.8921,-3.8848,-3.8795,-3.8707,-3.8707,-3.8707,-3.8658,-3.8507,-3.8342,-3.7769,-3.7068,-3.6325,-3.5456,-3.4358,-3.3583,-3.2984,-3.2421,-3.1946,-3.1856,-3.1688,-3.1521,-3.0919,-2.9888,-2.9084,-2.8556,-2.7538,-2.6843,-2.6708,-2.6708,-2.6708,-2.6708,-2.6708,-2.6708,-2.6708,-2.6708,-2.6708,-2.6708,-2.6708,-2.6708,-2.6708,-2.6708,-2.6708,-2.6708,-2.6708,-2.6708,-2.6708,-2.6708,-2.6708,-2.6708,-2.6708,-2.6708,-2.6708,-2.6708,-2.6708,-2.6657,-2.6589,-2.652,-2.645,-2.6221,-2.5934,-2.5694,-2.5467,-2.5123,-2.4706,-2.4589,-2.4528,-2.4385,-2.4281,-2.4281,-2.4235,-2.4235,-2.4066,-2.3887,-2.3656,-2.3425,-2.3009,-2.2551,-2.2147,-2.1667,-2.1564,-2.1413,-2.0582,-1.9948,-2.0025,-2.0034,-2.0004,-2.0154,-4.0888,-4.0903,-4.0893,-4.0865,-4.08,-4.0794,-4.0802,-4.0803,-4.0797,-4.079,-4.0784,-4.0733,-4.0646,-4.05,-4.035,-4.0251,-4.0167,-4.0186,-3.9829,-3.9673,-3.9721,-3.9366,-3.9177,-3.9051,-3.9091,-3.8973,-3.8762,-3.8748,-3.8868,-3.8485,-3.8604,-3.8723,-3.8597,-3.867,-3.8493,-3.8193,-3.7758,-3.7237,-3.6676,-3.581,-3.4894,-3.3995,-3.3522,-3.2789,-3.2458,-3.2301,-3.2161,-3.1841,-3.14,-3.0814,-2.9639,-2.8781,-2.815,-2.7284,-2.6792,-2.6691,-2.6708,-2.6708,-2.6708,-2.6708,-2.6708,-2.6708,-2.6708,-2.6708,-2.6708,-2.6708,-2.6708,-2.6708,-2.6708,-2.6708,-2.6708,-2.6708,-2.6708,-2.6708,-2.6708,-2.6708,-2.6708,-2.6708,-2.6708,-2.6708,-2.6708,-2.6708,-2.6691,-2.6623,-2.6537,-2.6484,-2.6185,-2.5879,-2.5581,-2.5333,-2.5064,-2.4766,-2.465,-2.4528,-2.4343,-2.4266,-2.422,-2.4081,-2.3989,-2.3717,-2.3379,-2.3132,-2.2717,-2.244,-2.1997,-2.172,-2.1439,-2.1152,-2.0825,-2.0406,-2.0183,-2.034,-2.0647,-2.0827,-2.1036,-4.0921,-4.0888,-4.0898,-4.0868,-4.087,-4.0812,-4.0808,-4.0796,-4.0803,-4.0797,-4.0752,-4.0733,-4.0673,-4.0477,-3.9942,-3.9715,-3.9542,-3.8886,-3.8728,-3.8487,-3.8355,-3.8203,-3.8085,-3.8071,-3.7879,-3.7821,-3.7737,-3.7634,-3.7475,-3.7641,-3.7413,-3.7492,-3.8168,-3.823,-3.8034,-3.7457,-3.6876,-3.6437,-3.5895,-3.502,-3.4616,-3.3625,-3.3155,-3.2826,-3.2524,-3.244,-3.2249,-3.1673,-3.1202,-3.0473,-2.9369,-2.8579,-2.7964,-2.7199,-2.6843,-2.6691,-2.6674,-2.664,-2.6657,-2.6674,-2.6708,-2.6708,-2.6708,-2.6708,-2.6708,-2.6708,-2.6708,-2.6708,-2.6708,-2.6708,-2.6708,-2.6708,-2.6708,-2.6708,-2.6708,-2.6708,-2.6708,-2.6708,-2.6708,-2.6708,-2.6708,-2.6708,-2.6691,-2.6657,-2.6589,-2.6484,-2.6151,-2.5807,-2.5489,-2.5256,-2.5025,-2.4786,-2.465,-2.4508,-2.4359,-2.4241,-2.4128,-2.3928,-2.3733,-2.3255,-2.2778,-2.2166,-2.1781,-2.1596,-2.1427,-2.1073,-2.0773,-2.0538,-2.0372,-2.0352,-2.0526,-2.0782,-2.1141,-2.162,-2.1814,-4.0196,-4.0159,-4.0174,-4.0446,-4.0858,-4.0859,-4.0682,-4.0457,-4.0395,-4.0222,-4.0036,-3.9966,-3.9953,-3.9734,-3.9339,-3.8941,-3.8727,-3.8241,-3.7855,-3.7728,-3.7631,-3.7356,-3.7216,-3.7185,-3.7279,-3.6876,-3.6789,-3.6818,-3.6851,-3.6615,-3.6643,-3.6924,-3.7349,-3.743,-3.7165,-3.6571,-3.6051,-3.5575,-3.5144,-3.4437,-3.4178,-3.351,-3.3031,-3.2876,-3.2508,-3.2199,-3.1871,-3.1282,-3.0538,-2.99,-2.9074,-2.8285,-2.7724,-2.7283,-2.691,-2.6708,-2.6522,-2.6404,-2.6404,-2.6607,-2.6674,-2.6708,-2.6708,-2.6708,-2.6708,-2.6708,-2.6708,-2.6708,-2.6708,-2.6708,-2.6708,-2.6708,-2.6708,-2.6708,-2.6708,-2.6708,-2.6708,-2.6708,-2.6708,-2.6708,-2.6708,-2.6708,-2.6674,-2.664,-2.6503,-2.638,-2.6115,-2.577,-2.5448,-2.5217,-2.5064,-2.4826,-2.463,-2.4487,-2.4359,-2.4045,-2.3748,-2.3533,-2.324,-2.264,-2.212,-2.1504,-2.1073,-2.0949,-2.0734,-2.0379,-2.0279,-2.0296,-2.0408,-2.0555,-2.0858,-2.1271,-2.2123,-2.2577,-2.2488,-3.8533,-3.8451,-3.8531,-3.9417,-4.0655,-4.0844,-4.0343,-3.9658,-3.9553,-3.9137,-3.8591,-3.8483,-3.8465,-3.8427,-3.8363,-3.8163,-3.7998,-3.782,-3.7574,-3.7311,-3.7109,-3.728,-3.7139,-3.6895,-3.6584,-3.6928,-3.6626,-3.6379,-3.654,-3.6226,-3.6244,-3.62,-3.6265,-3.6397,-3.6299,-3.6285,-3.5797,-3.503,-3.4761,-3.4244,-3.3731,-3.3376,-3.3198,-3.275,-3.2286,-3.1927,-3.1408,-3.0651,-2.9911,-2.9241,-2.8686,-2.7987,-2.739,-2.7127,-2.6875,-2.6723,-2.608,-2.5727,-2.5643,-2.6285,-2.6573,-2.6674,-2.6708,-2.6708,-2.6708,-2.6708,-2.6708,-2.6708,-2.6708,-2.6708,-2.6708,-2.6708,-2.6708,-2.6708,-2.6708,-2.6708,-2.6708,-2.6708,-2.6708,-2.6708,-2.6708,-2.6708,-2.664,-2.6572,-2.6434,-2.6258,-2.6043,-2.5733,-2.5378,-2.522,-2.5084,-2.4811,-2.4609,-2.4487,-2.4271,-2.3691,-2.3348,-2.3132,-2.2721,-2.2089,-2.1627,-2.1196,-2.0795,-2.0472,-2.0364,-2.0302,-2.0218,-2.0161,-2.0314,-2.057,-2.1347,-2.1964,-2.2877,-2.337,-2.3161,-3.8439,-3.8397,-3.8388,-3.8702,-3.9223,-3.9185,-3.8996,-3.8748,-3.8688,-3.8507,-3.8266,-3.8202,-3.8205,-3.8065,-3.7583,-3.7301,-3.7186,-3.6456,-3.6243,-3.622,-3.6192,-3.591,-3.5856,-3.5881,-3.57,-3.5469,-3.5368,-3.5357,-3.5056,-3.5237,-3.5063,-3.4894,-3.5071,-3.5032,-3.5142,-3.5037,-3.4399,-3.4206,-3.4064,-3.387,-3.3538,-3.335,-3.3048,-3.2472,-3.199,-3.1491,-3.0933,-3.0009,-2.9321,-2.8785,-2.8309,-2.7714,-2.7279,-2.7054,-2.6701,-2.6313,-2.5656,-2.5403,-2.5252,-2.5524,-2.6201,-2.6471,-2.6691,-2.6691,-2.6708,-2.6708,-2.6708,-2.6708,-2.6708,-2.6708,-2.6708,-2.6708,-2.6708,-2.6708,-2.6708,-2.6708,-2.6708,-2.6708,-2.6708,-2.6708,-2.6708,-2.6708,-2.6674,-2.637,-2.6166,-2.5958,-2.5713,-2.5536,-2.523,-2.5211,-2.5123,-2.4811,-2.4589,-2.4467,-2.4199,-2.3526,-2.2886,-2.2567,-2.2058,-2.1396,-2.1011,-2.0795,-2.0626,-2.0349,-2.0318,-2.0287,-2.02,-2.0157,-2.027,-2.0643,-2.1315,-2.2158,-2.3026,-2.3445,-2.3475,-3.7572,-3.7545,-3.7537,-3.7522,-3.7594,-3.8097,-3.82,-3.7895,-3.7589,-3.739,-3.7325,-3.7315,-3.7284,-3.7102,-3.6795,-3.6462,-3.6387,-3.5888,-3.5507,-3.5427,-3.5339,-3.5335,-3.5195,-3.4983,-3.5057,-3.4699,-3.4594,-3.4562,-3.4507,-3.4325,-3.4266,-3.4197,-3.3978,-3.426,-3.4371,-3.4137,-3.3917,-3.3872,-3.3799,-3.3547,-3.3213,-3.2914,-3.2542,-3.1855,-3.1301,-3.0855,-3.0181,-2.9494,-2.8881,-2.8485,-2.8025,-2.7522,-2.7321,-2.6888,-2.647,-2.5949,-2.5108,-2.4754,-2.4421,-2.4812,-2.5507,-2.6167,-2.6488,-2.6674,-2.6708,-2.6708,-2.6708,-2.6708,-2.6708,-2.6708,-2.6708,-2.6708,-2.6708,-2.6708,-2.6708,-2.6708,-2.6708,-2.6708,-2.6708,-2.6708,-2.6708,-2.6708,-2.659,-2.6202,-2.5899,-2.5643,-2.5384,-2.5159,-2.4925,-2.4894,-2.4792,-2.4465,-2.4309,-2.4224,-2.3849,-2.3214,-2.2609,-2.2043,-2.1442,-2.0826,-2.0657,-2.0487,-2.0364,-2.0287,-2.0287,-2.027,-2.0166,-2.0167,-2.0237,-2.0565,-2.113,-2.2054,-2.3086,-2.3325,-2.337,-3.5903,-3.5888,-3.5889,-3.5946,-3.6138,-3.7521,-3.7732,-3.6992,-3.6211,-3.5867,-3.5805,-3.5916,-3.6017,-3.5877,-3.5753,-3.577,-3.5767,-3.5633,-3.5554,-3.5482,-3.542,-3.5304,-3.5193,-3.5063,-3.4936,-3.4792,-3.468,-3.4564,-3.4427,-3.4316,-3.4185,-3.4049,-3.3978,-3.401,-3.3957,-3.3912,-3.3807,-3.3793,-3.3496,-3.3172,-3.2794,-3.2347,-3.1792,-3.1075,-3.0428,-2.9981,-2.9417,-2.8859,-2.84,-2.8071,-2.7824,-2.7624,-2.7233,-2.6597,-2.6232,-2.5491,-2.4281,-2.3716,-2.3572,-2.4133,-2.4829,-2.5575,-2.6319,-2.6556,-2.6708,-2.6708,-2.6708,-2.6708,-2.6708,-2.6708,-2.6708,-2.6708,-2.6708,-2.6708,-2.6708,-2.6708,-2.6708,-2.6708,-2.6708,-2.6708,-2.6708,-2.664,-2.6353,-2.6017,-2.5497,-2.4929,-2.456,-2.4053,-2.3933,-2.4177,-2.4023,-2.3767,-2.3698,-2.3887,-2.3416,-2.2721,-2.224,-2.1673,-2.1011,-2.0456,-2.0302,-2.0287,-2.0287,-2.0287,-2.0287,-2.0235,-2.0115,-2.0117,-2.0177,-2.0535,-2.0771,-2.147,-2.2353,-2.2838,-2.3002,-3.5953,-3.5883,-3.59,-3.5882,-3.593,-3.6355,-3.637,-3.6136,-3.5864,-3.5773,-3.577,-3.5728,-3.5708,-3.5702,-3.5715,-3.5684,-3.5668,-3.5631,-3.5596,-3.5541,-3.5501,-3.5383,-3.5273,-3.5157,-3.5018,-3.4898,-3.4772,-3.466,-3.4528,-3.4404,-3.4233,-3.4086,-3.3906,-3.386,-3.3795,-3.3797,-3.371,-3.3568,-3.3175,-3.2737,-3.2232,-3.1768,-3.1065,-3.029,-2.988,-2.9416,-2.8873,-2.8595,-2.8259,-2.8126,-2.789,-2.7572,-2.6804,-2.6353,-2.5878,-2.4391,-2.3417,-2.2804,-2.2903,-2.3841,-2.4657,-2.5083,-2.5963,-2.6573,-2.6708,-2.6708,-2.6708,-2.6708,-2.6708,-2.6708,-2.6708,-2.6708,-2.6708,-2.6708,-2.6708,-2.6708,-2.6708,-2.6708,-2.6708,-2.6708,-2.6708,-2.6437,-2.6168,-2.5681,-2.5113,-2.4365,-2.3704,-2.3175,-2.3003,-2.325,-2.3274,-2.3023,-2.3113,-2.3254,-2.2736,-2.2074,-2.172,-2.1273,-2.0687,-2.0287,-2.0287,-2.0287,-2.0287,-2.0287,-2.0287,-2.02,-2.0045,-2.0064,-2.0101,-1.9933,-2.0142,-2.0876,-2.155,-2.1999,-2.2568,-3.4942,-3.4917,-3.4925,-3.4887,-3.4857,-3.4834,-3.4816,-3.4917,-3.5488,-3.5806,-3.5793,-3.577,-3.5728,-3.5703,-3.5697,-3.5701,-3.5704,-3.5673,-3.5645,-3.5584,-3.5477,-3.5481,-3.5376,-3.5208,-3.5132,-3.4991,-3.4879,-3.4781,-3.4618,-3.4431,-3.4269,-3.4111,-3.3852,-3.3524,-3.33,-3.2959,-3.2768,-3.2737,-3.2564,-3.2177,-3.1613,-3.1036,-3.0285,-2.9639,-2.9393,-2.9003,-2.8613,-2.8458,-2.8353,-2.8129,-2.7816,-2.7243,-2.643,-2.5854,-2.4846,-2.3516,-2.3017,-2.2614,-2.2716,-2.3505,-2.4141,-2.4757,-2.5623,-2.6267,-2.6623,-2.6708,-2.6708,-2.6708,-2.6708,-2.6708,-2.6708,-2.6708,-2.6708,-2.6708,-2.6708,-2.6708,-2.6708,-2.6708,-2.6708,-2.6708,-2.6539,-2.6268,-2.5881,-2.5345,-2.4628,-2.3717,-2.2914,-2.2281,-2.2214,-2.2465,-2.2461,-2.23,-2.2462,-2.2624,-2.2031,-2.1535,-2.1273,-2.0965,-2.0613,-2.032,-2.0287,-2.0287,-2.0287,-2.0287,-2.0287,-2.0183,-2.0045,-2.0008,-2.0,-1.983,-1.9723,-2.0202,-2.0786,-2.1171,-2.1784,-3.3421,-3.3463,-3.3384,-3.3497,-3.3318,-3.3414,-3.3417,-3.3458,-3.4859,-3.5566,-3.548,-3.5536,-3.5359,-3.5122,-3.5117,-3.515,-3.5076,-3.5065,-3.5005,-3.5388,-3.5044,-3.4944,-3.4876,-3.5085,-3.4553,-3.4715,-3.4792,-3.4529,-3.4561,-3.4288,-3.4015,-3.4017,-3.3209,-3.2754,-3.2582,-3.2115,-3.1851,-3.1605,-3.1715,-3.1567,-3.0595,-2.9984,-2.9532,-2.8924,-2.8722,-2.8587,-2.8536,-2.8466,-2.8383,-2.7964,-2.7509,-2.6921,-2.5909,-2.4943,-2.3715,-2.3188,-2.2824,-2.268,-2.274,-2.3366,-2.3994,-2.4598,-2.528,-2.603,-2.6488,-2.6674,-2.6708,-2.6708,-2.6708,-2.6708,-2.6708,-2.6708,-2.6708,-2.6708,-2.6708,-2.6708,-2.6708,-2.6708,-2.6708,-2.6623,-2.6353,-2.6015,-2.5339,-2.4755,-2.3875,-2.2954,-2.2322,-2.1662,-2.1553,-2.1807,-2.1731,-2.161,-2.1682,-2.1768,-2.144,-2.1026,-2.0857,-2.0613,-2.0397,-2.032,-2.0287,-2.0287,-2.0287,-2.0287,-2.0287,-2.0183,-2.0063,-2.0025,-1.9937,-1.9795,-1.9723,-1.9723,-2.0034,-2.0483,-2.1006,-3.3395,-3.3386,-3.3388,-3.3362,-3.329,-3.3304,-3.3267,-3.3317,-3.3672,-3.3891,-3.3891,-3.3871,-3.3897,-3.4001,-3.3964,-3.396,-3.3911,-3.4084,-3.3768,-3.3868,-3.3903,-3.4017,-3.366,-3.382,-3.3559,-3.354,-3.3688,-3.4025,-3.3856,-3.3638,-3.3267,-3.2642,-3.2151,-3.2011,-3.191,-3.1432,-3.1066,-3.0618,-3.0638,-3.076,-3.0173,-2.9484,-2.8955,-2.8755,-2.8694,-2.8637,-2.8569,-2.8469,-2.807,-2.7556,-2.7235,-2.6317,-2.498,-2.3927,-2.33,-2.2979,-2.2881,-2.279,-2.2854,-2.3285,-2.3904,-2.4575,-2.5246,-2.5978,-2.6454,-2.6623,-2.6708,-2.6708,-2.6708,-2.6708,-2.6708,-2.6708,-2.6708,-2.6708,-2.6708,-2.6708,-2.6708,-2.6708,-2.6708,-2.642,-2.6133,-2.5542,-2.4866,-2.4031,-2.3106,-2.2473,-2.2007,-2.153,-2.1311,-2.1342,-2.1192,-2.1067,-2.0855,-2.0817,-2.0665,-2.0657,-2.0564,-2.0505,-2.035,-2.0287,-2.0287,-2.0287,-2.0287,-2.0287,-2.027,-2.0166,-2.0078,-2.0008,-1.9902,-1.9777,-1.9723,-1.9723,-1.9723,-2.0049,-2.0438,-3.2246,-3.2244,-3.2248,-3.2228,-3.219,-3.2177,-3.2199,-3.2197,-3.2185,-3.2182,-3.2333,-3.2839,-3.3211,-3.3184,-3.3149,-3.3025,-3.3035,-3.3132,-3.3267,-3.3188,-3.2968,-3.3153,-3.2997,-3.2826,-3.3006,-3.2996,-3.3108,-3.3249,-3.3072,-3.292,-3.2539,-3.1956,-3.1643,-3.1266,-3.1162,-3.0801,-3.0351,-2.98,-2.9773,-2.9738,-2.9732,-2.9215,-2.887,-2.8798,-2.8718,-2.8657,-2.8462,-2.829,-2.7759,-2.7048,-2.6437,-2.5372,-2.4288,-2.3571,-2.3239,-2.3095,-2.3015,-2.2957,-2.2994,-2.3248,-2.3874,-2.4592,-2.4917,-2.5514,-2.6605,-2.6775,-2.6708,-2.6708,-2.6708,-2.6708,-2.6708,-2.6708,-2.6708,-2.6708,-2.6708,-2.6708,-2.6708,-2.6708,-2.6437,-2.6015,-2.5659,-2.5169,-2.4478,-2.3779,-2.2874,-2.219,-2.1711,-2.1481,-2.1231,-2.107,-2.0843,-2.0645,-2.0544,-2.0443,-2.0447,-2.0426,-2.0379,-2.0302,-2.0287,-2.0287,-2.0287,-2.0287,-2.0287,-2.0287,-2.0268,-2.0198,-2.0111,-2.0023,-1.9884,-1.9744,-1.9708,-1.9723,-1.9723,-1.9723,-2.0022,-3.0871,-3.08,-3.0834,-3.0822,-3.0795,-3.0817,-3.086,-3.0867,-3.0833,-3.0848,-3.1018,-3.232,-3.2858,-3.2901,-3.2869,-3.2839,-3.2681,-3.2353,-3.2547,-3.259,-3.2584,-3.2325,-3.2342,-3.2526,-3.246,-3.2487,-3.2577,-3.2489,-3.2351,-3.2209,-3.1996,-3.1711,-3.117,-3.0545,-3.0246,-2.9826,-2.9362,-2.9322,-2.9266,-2.9147,-2.9035,-2.8959,-2.8881,-2.8822,-2.8731,-2.8651,-2.8293,-2.7894,-2.7435,-2.6459,-2.5524,-2.4598,-2.3951,-2.3466,-2.3378,-2.3253,-2.3163,-2.3095,-2.3042,-2.3006,-2.3825,-2.4528,-2.4655,-2.532,-2.6449,-2.6826,-2.6742,-2.6708,-2.6708,-2.6708,-2.6708,-2.6708,-2.6708,-2.6708,-2.6708,-2.6708,-2.6708,-2.6674,-2.6251,-2.5744,-2.522,-2.4763,-2.4059,-2.3377,-2.2707,-2.2024,-2.1632,-2.1403,-2.1199,-2.1071,-2.0892,-2.0695,-2.0544,-2.0426,-2.0321,-2.0287,-2.0287,-2.0287,-2.0287,-2.0287,-2.0287,-2.0287,-2.0287,-2.0287,-2.0268,-2.0163,-2.0091,-1.9988,-1.9848,-1.9726,-1.9708,-1.9723,-1.9723,-1.9723,-1.9723,-3.0801,-3.0798,-3.0859,-3.0818,-3.0774,-3.0761,-3.0791,-3.0781,-3.0774,-3.0794,-3.0859,-3.0917,-3.1184,-3.1192,-3.1169,-3.1266,-3.1549,-3.1388,-3.1161,-3.1051,-3.141,-3.1231,-3.1191,-3.1518,-3.1474,-3.1621,-3.1802,-3.174,-3.1623,-3.1464,-3.1052,-3.0476,-3.0255,-2.9888,-2.9715,-2.9382,-2.9251,-2.9121,-2.8997,-2.8924,-2.889,-2.8881,-2.8922,-2.8881,-2.881,-2.8342,-2.7864,-2.7532,-2.662,-2.5561,-2.4649,-2.4024,-2.3712,-2.3533,-2.3453,-2.3413,-2.3313,-2.3217,-2.3114,-2.3028,-2.3768,-2.4801,-2.505,-2.5495,-2.6359,-2.6909,-2.6809,-2.6725,-2.6725,-2.6708,-2.6708,-2.6708,-2.6708,-2.6708,-2.6708,-2.6708,-2.6708,-2.659,-2.6352,-2.5659,-2.4983,-2.434,-2.3547,-2.2921,-2.2323,-2.1811,-2.1694,-2.145,-2.1183,-2.1054,-2.0941,-2.0728,-2.0512,-2.0426,-2.0321,-2.0304,-2.0287,-2.0287,-2.0287,-2.0287,-2.0287,-2.0287,-2.0287,-2.0252,-2.02,-2.0129,-2.0023,-1.9935,-1.983,-1.9726,-1.9708,-1.9723,-1.9723,-1.9723,-1.9723]},{"header":{"parameterUnit":"m.s-1","parameterCategory":1,"la1":31.0,"la2":29.5877,"lo1":-88.7671,"lo2":-86.6584,"dy":0.0162,"dx":0.0185,"nx":115,"ny":88,"refTime":"2023-05-28T18:00:00:Z","depth":0,"parameterNumber":3,"parameterNumberName":"V-component_of_WINDS"},"data":[0.0,0.0,0.0,0.0,0.0,0.0,0.0,0.0,0.0,0.0,0.0,0.0,0.0,0.0,0.0,0.0,0.0,0.0,0.0,0.0,0.0,0.0,0.0,0.0,0.0,0.0,0.0,0.0,0.0,0.0,0.0,0.0,0.0,0.0,0.0,0.0,0.0,0.0,0.0,0.0,0.0,0.0,0.0,0.0,0.0,0.0,0.0,0.0,0.0,0.0,0.0,0.0,0.0,0.0,0.0,0.0,0.0,0.0,0.0,0.0,0.0,0.0,0.0,0.0,0.0,0.0,0.0,0.0,0.0,0.0,0.0,0.0,0.0,0.0,0.0,0.0,0.0,0.0,0.0,0.0,0.0,0.0,0.0,0.0,0.0,0.0,0.0,0.0,0.0,0.0,0.0,0.0,0.0,0.0,0.0,0.0,0.0,0.0,0.0,0.0,0.0,0.0,0.0,0.0,0.0,0.0,0.0,0.0,0.0,0.0,0.0,0.0,0.0,0.0,0.0,0.0,0.0,0.0,0.0,0.0,0.0,0.0,0.0,0.0,0.0,0.0,0.0,0.0,0.0,0.0,0.0,0.0,0.0,0.0,0.0,0.0,0.0,0.0,0.0,0.0,0.0,0.0,0.0,0.0,0.0,0.0,0.0,0.0,0.0,0.0,0.0,0.0,0.0,0.0,0.0,0.0,0.0,0.0,0.0,0.0,0.0,0.0,0.0,0.0,0.0,0.0,0.0,0.0,0.0,0.0,0.0,0.0,0.0,0.0,0.0,0.0,0.0,0.0,0.0,0.0,0.0,0.0,0.0,0.0,0.0,0.0,0.0,0.0,0.0,0.0,0.0,0.0,0.0,0.0,0.0,0.0,0.0,0.0,0.0,0.0,0.0,0.0,0.0,0.0,0.0,0.0,0.0,0.0,0.0,0.0,0.0,0.0,0.0,0.0,0.0,0.0,0.0,0.0,0.0,0.0,0.0,0.0,0.0,0.0,0.0,0.0,0.0,0.0,0.0,0.0,0.0,0.0,0.0,0.0,0.0,0.0,0.0,0.0,0.0,0.0,0.0,0.0,0.0,0.0,0.0,0.0,0.0,0.0,0.0,0.0,0.0,0.0,0.0,0.0,0.0,0.0,0.0,0.0,0.0,0.0,0.0,0.0,0.0,0.0,0.0,0.0,0.0,0.0,0.0,0.0,0.0,0.0,0.0,0.0,0.0,0.0,0.0,0.0,0.0,0.0,0.0,0.0,0.0,0.0,0.0,0.0,0.0,0.0,0.0,0.0,0.0,0.0,0.0,0.0,0.0,0.0,0.0,0.0,0.0,0.0,0.0,0.0,0.0,0.0,0.0,0.0,0.0,0.0,0.0,0.0,0.0,0.0,0.0,0.0,0.0,0.0,0.0,0.0,0.0,0.0,0.0,0.0,0.0,0.0,0.0,0.0,0.0,0.0,0.0,0.0,0.0,0.0,0.0,0.0,0.0,0.0,0.0,0.0,0.0,0.0,0.0,0.0,0.0,0.0,0.0,0.0,0.0,0.0,0.0,0.0,0.0,0.0,0.0,0.0,0.0,0.0,0.0,0.0,0.0,0.0,0.0,0.0,0.0,0.0,0.0,0.0,0.0,0.0,0.0,0.0,0.0,0.0,0.0,0.0,0.0,0.0,0.0,0.0,0.0,0.0,0.0,0.0,0.0,0.0,0.0,0.0,0.0,0.0,0.0,0.0,0.0,0.0,0.0,0.0,0.0,0.0,0.0,0.0,0.0,0.0,0.0,0.0,0.0,0.0,0.0,0.0,0.0,0.0,0.0,0.0,0.0,0.0,0.0,0.0,0.0,0.0,0.0,0.0,0.0,0.0,0.0,0.0,0.0,0.0,0.0,0.0,0.0,0.0,0.0,0.0,0.0,0.0,0.0,0.0,0.0,0.0,0.0,0.0,0.0,0.0,0.0,0.0,0.0,0.0,0.0,0.0,0.0,0.0,0.0,0.0,0.0,0.0,0.0,0.0,0.0,0.0,0.0,0.0,0.0,0.0,0.0,0.0,0.0,0.0,0.0,0.0,0.0,0.0,0.0,0.0,0.0,0.0,0.0,0.0,0.0,0.0,0.0,0.0,0.0,0.0,0.0,0.0,0.0,0.0,0.0,0.0,0.0,0.0,0.0,0.0,0.0,0.0,0.0,0.0,0.0,0.0,0.0,0.0,0.0,0.0,0.0,0.0,0.0,0.0,0.0,0.0,0.0,0.0,0.0,0.0,0.0,0.0,0.0,0.0,0.0,0.0,0.0,0.0,0.0,0.0,0.0,0.0,0.0,0.0,0.0,0.0,0.0,0.0,0.0,0.0,0.0,0.0,0.0,0.0,0.0,0.0,0.0,0.0,0.0,0.0,0.0,0.0,0.0,0.0,0.0,0.0,0.0,0.0,0.0,0.0,0.0,0.0,0.0,0.0,0.0,0.0,0.0,0.0,0.0,0.0,0.0,0.0,0.0,0.0,0.0,0.0,0.0,0.0,0.0,0.0,0.0,0.0,0.0,0.0,0.0,0.0,0.0,0.0,0.0,0.0,0.0,0.0,0.0,0.0,0.0,0.0,0.0,0.0,0.0,0.0,0.0,0.0,0.0,0.0,0.0,0.0,0.0,0.0,0.0,0.0,0.0,0.0,0.0,0.0,0.0,0.0,0.0,0.0,0.0,0.0,0.0,0.0,0.0,0.0,0.0,0.0,0.0,0.0,0.0,0.0,0.0,0.0,0.0,0.0,0.0,0.0,0.0,0.0,0.0,0.0,0.0,0.0,0.0,0.0,0.0,0.0,0.0,0.0,0.0,0.0,0.0,0.0,0.0,0.0,0.0,0.0,0.0,0.0,0.0,0.0,0.0,0.0,0.0,0.0,0.0,0.0,0.0,0.0,0.0,0.0,0.0,0.0,0.0,0.0,0.0,0.0,0.0,0.0,0.0,0.0,0.0,0.0,0.0,0.0,0.0,0.0,0.0,0.0,0.0,0.0,0.0,0.0,0.0,0.0,0.0,0.0,0.0,0.0,0.0,0.0,0.0,0.0,0.0,0.0,0.0,0.0,0.0,0.0,0.0,0.0,0.0,0.0,0.0,0.0,0.0,0.0,0.0,0.0,0.0,0.0,0.0,0.0,0.0,0.0,0.0,0.0,0.0,0.0,0.0,0.0,0.0,0.0,0.0,0.0,0.0,0.0,0.0,0.0,0.0,0.0,0.0,0.0,0.0,0.0,0.0,0.0,0.0,0.0,0.0,0.0,0.0,0.0,0.0,0.0,0.0,0.0,0.0,0.0,0.0,0.0,0.0,0.0,0.0,0.0,0.0,0.0,0.0,0.0,0.0,0.0,0.0,0.0,0.0,0.0,0.0,0.0,0.0,0.0,0.0,0.0,0.0,0.0,0.0,0.0,0.0,0.0,0.0,0.0,0.0,0.0,0.0,0.0,0.0,0.0,0.0,0.0,0.0,0.0,0.0,0.0,0.0,0.0,0.0,0.0,0.0,0.0,0.0,0.0,0.0,0.0,0.0,0.0,0.0,0.0,0.0,0.0,0.0,0.0,0.0,0.0,0.0,0.0,0.0,0.0,0.0,0.0,0.0,0.0,0.0,0.0,0.0,0.0,0.0,0.0,0.0,0.0,0.0,0.0,0.0,0.0,0.0,0.0,0.0,0.0,0.0,0.0,0.0,0.0,0.0,0.0,0.0,0.0,0.0,0.0,0.0,0.0,0.0,0.0,0.0,0.0,0.0,0.0,0.0,0.0,0.0,0.0,0.0,0.0,0.0,0.0,0.0,0.0,0.0,0.0,0.0,0.0,0.0,0.0,0.0,0.0,0.0,0.0,0.0,0.0,0.0,0.0,0.0,0.0,0.0,0.0,0.0,0.0,0.0,0.0,0.0,0.0,0.0,0.0,0.0,0.0,0.0,0.0,0.0,0.0,0.0,0.0,0.0,0.0,0.0,0.0,0.0,0.0,0.0,0.0,0.0,0.0,0.0,0.0,0.0,0.0,0.0,0.0,0.0,0.0,0.0,0.0,0.0,0.0,0.0,0.0,0.0,0.0,0.0,0.0,0.0,0.0,0.0,0.0,0.0,0.0,0.0,0.0,0.0,0.0,0.0,0.0,0.0,0.0,0.0,0.0,0.0,0.0,0.0,0.0,0.0,0.0,0.0,0.0,0.0,0.0,0.0,0.0,0.0,0.0,0.0,0.0,0.0,0.0,0.0,0.0,0.0,0.0,0.0,0.0,0.0,0.0,-2.0594,0.0,0.0,0.0,0.0,0.0,0.0,0.0,0.0,0.0,0.0,0.0,0.0,0.0,0.0,0.0,0.0,0.0,0.0,0.0,0.0,0.0,0.0,0.0,0.0,0.0,0.0,0.0,0.0,0.0,0.0,0.0,0.0,0.0,0.0,0.0,0.0,0.0,0.0,0.0,0.0,0.0,0.0,0.0,0.0,0.0,0.0,0.0,0.0,0.0,0.0,0.0,0.0,0.0,0.0,0.0,0.0,0.0,0.0,0.0,0.0,0.0,0.0,0.0,0.0,0.0,0.0,0.0,0.0,0.0,0.0,0.0,0.0,0.0,0.0,0.0,0.0,0.0,0.0,0.0,0.0,0.0,0.0,0.0,0.0,0.0,0.0,0.0,0.0,0.0,0.0,0.0,0.0,0.0,0.0,0.0,0.0,0.0,0.0,0.0,0.0,0.0,0.0,0.0,0.0,0.0,0.0,0.0,0.0,0.0,0.0,-1.9708,-1.9904,-2.0045,-2.022,-2.0427,0.0,0.0,0.0,0.0,0.0,0.0,0.0,0.0,0.0,0.0,0.0,0.0,0.0,0.0,0.0,0.0,0.0,0.0,0.0,0.0,0.0,0.0,0.0,0.0,0.0,0.0,0.0,0.0,0.0,0.0,0.0,0.0,0.0,0.0,0.0,0.0,0.0,0.0,0.0,0.0,0.0,0.0,0.0,0.0,0.0,0.0,0.0,0.0,0.0,0.0,0.0,0.0,0.0,0.0,0.0,0.0,0.0,0.0,0.0,0.0,0.0,0.0,0.0,0.0,0.0,0.0,0.0,0.0,0.0,0.0,0.0,0.0,0.0,0.0,0.0,0.0,0.0,0.0,0.0,0.0,0.0,0.0,0.0,0.0,0.0,0.0,0.0,0.0,0.0,0.0,0.0,0.0,0.0,0.0,0.0,0.0,0.0,0.0,0.0,0.0,0.0,0.0,0.0,0.0,0.0,0.0,0.0,0.0,0.0,0.0,0.0,0.0,-2.0023,-2.0056,-2.0085,0.0,0.0,0.0,0.0,0.0,0.0,0.0,0.0,0.0,0.0,0.0,0.0,0.0,0.0,0.0,0.0,0.0,0.0,0.0,0.0,0.0,0.0,0.0,0.0,0.0,0.0,0.0,0.0,0.0,0.0,0.0,0.0,0.0,0.0,0.0,0.0,0.0,0.0,0.0,0.0,0.0,0.0,0.0,0.0,0.0,0.0,0.0,0.0,0.0,0.0,0.0,0.0,0.0,0.0,0.0,0.0,0.0,0.0,0.0,0.0,0.0,0.0,0.0,0.0,0.0,0.0,0.0,0.0,0.0,0.0,0.0,0.0,0.0,0.0,0.0,0.0,0.0,0.0,0.0,0.0,0.0,0.0,0.0,0.0,0.0,0.0,0.0,0.0,0.0,0.0,0.0,0.0,0.0,0.0,0.0,0.0,0.0,0.0,0.0,0.0,0.0,0.0,0.0,0.0,0.0,0.0,0.0,0.0,0.0,0.0,-2.007,-2.0089,-2.0089,0.0,-1.9789,0.0,0.0,0.0,0.0,0.0,0.0,0.0,0.0,0.0,0.0,0.0,0.0,0.0,0.0,0.0,0.0,0.0,0.0,0.0,0.0,0.0,0.0,0.0,0.0,0.0,0.0,0.0,0.0,0.0,0.0,0.0,0.0,0.0,0.0,0.0,0.0,0.0,0.0,0.0,0.0,0.0,0.0,0.0,0.0,0.0,0.0,0.0,0.0,0.0,0.0,0.0,0.0,0.0,0.0,0.0,0.0,0.0,0.0,0.0,0.0,0.0,0.0,0.0,0.0,0.0,0.0,0.0,0.0,0.0,0.0,0.0,0.0,0.0,0.0,0.0,0.0,0.0,0.0,0.0,0.0,0.0,0.0,0.0,0.0,0.0,0.0,0.0,0.0,0.0,0.0,0.0,0.0,0.0,0.0,0.0,0.0,0.0,0.0,0.0,0.0,0.0,0.0,0.0,0.0,0.0,0.0,0.0,0.0,0.0,0.0,-1.9591,-1.9915,-1.9619,-1.9358,0.0,0.0,0.0,0.0,0.0,0.0,0.0,0.0,0.0,0.0,0.0,0.0,0.0,0.0,0.0,0.0,0.0,0.0,0.0,0.0,0.0,0.0,0.0,0.0,0.0,0.0,0.0,0.0,0.0,0.0,0.0,0.0,0.0,0.0,0.0,0.0,0.0,0.0,0.0,0.0,0.0,0.0,0.0,0.0,0.0,0.0,0.0,0.0,0.0,0.0,0.0,0.0,0.0,0.0,0.0,0.0,0.0,0.0,0.0,0.0,0.0,0.0,0.0,0.0,0.0,0.0,0.0,0.0,0.0,0.0,0.0,0.0,0.0,0.0,0.0,0.0,0.0,0.0,0.0,0.0,0.0,0.0,0.0,0.0,0.0,0.0,0.0,0.0,0.0,0.0,0.0,0.0,0.0,0.0,0.0,0.0,0.0,0.0,0.0,0.0,0.0,0.0,0.0,0.0,0.0,0.0,0.0,0.0,0.0,0.0,-1.9084,-1.9209,-1.9669,-1.9236,-1.8871,-1.8683,0.0,0.0,0.0,0.0,0.0,0.0,0.0,0.0,0.0,0.0,0.0,0.0,0.0,0.0,0.0,0.0,0.0,0.0,0.0,0.0,0.0,0.0,0.0,0.0,0.0,0.0,0.0,0.0,0.0,0.0,0.0,0.0,0.0,0.0,0.0,0.0,0.0,0.0,0.0,0.0,0.0,0.0,0.0,0.0,0.0,0.0,0.0,0.0,0.0,0.0,0.0,0.0,0.0,0.0,0.0,0.0,0.0,0.0,0.0,0.0,0.0,0.0,0.0,0.0,0.0,0.0,0.0,0.0,0.0,0.0,0.0,0.0,0.0,0.0,0.0,0.0,0.0,0.0,0.0,0.0,0.0,0.0,0.0,0.0,0.0,0.0,0.0,0.0,0.0,0.0,0.0,0.0,0.0,0.0,0.0,0.0,0.0,0.0,0.0,0.0,0.0,0.0,0.0,0.0,0.0,0.0,0.0,0.0,-1.8553,-1.8799,-1.91,-1.9466,-1.9113,-1.8719,0.0,0.0,0.0,0.0,0.0,0.0,0.0,0.0,0.0,0.0,0.0,0.0,0.0,0.0,0.0,0.0,0.0,0.0,0.0,0.0,0.0,0.0,0.0,0.0,0.0,0.0,0.0,0.0,0.0,0.0,0.0,0.0,0.0,0.0,0.0,0.0,0.0,0.0,0.0,0.0,0.0,0.0,0.0,0.0,0.0,0.0,0.0,0.0,0.0,0.0,0.0,0.0,0.0,0.0,0.0,0.0,0.0,0.0,0.0,0.0,0.0,0.0,0.0,0.0,0.0,0.0,0.0,0.0,0.0,0.0,0.0,0.0,0.0,0.0,0.0,0.0,0.0,0.0,0.0,0.0,0.0,0.0,0.0,0.0,0.0,0.0,0.0,0.0,0.0,0.0,0.0,0.0,0.0,0.0,0.0,0.0,0.0,0.0,0.0,0.0,0.0,0.0,0.0,0.0,0.0,0.0,0.0,0.0,0.0,-1.8231,-1.878,-1.8983,-1.8734,-1.8298,-1.7937,0.0,0.0,0.0,0.0,0.0,0.0,0.0,0.0,0.0,0.0,0.0,0.0,0.0,0.0,0.0,0.0,0.0,0.0,0.0,0.0,0.0,0.0,0.0,0.0,0.0,0.0,0.0,0.0,0.0,0.0,0.0,0.0,0.0,0.0,0.0,0.0,0.0,0.0,0.0,0.0,0.0,0.0,0.0,0.0,0.0,0.0,0.0,0.0,0.0,0.0,0.0,0.0,0.0,0.0,0.0,0.0,0.0,0.0,0.0,0.0,0.0,0.0,0.0,0.0,0.0,0.0,0.0,0.0,0.0,0.0,0.0,0.0,0.0,0.0,0.0,0.0,0.0,0.0,0.0,0.0,0.0,0.0,0.0,0.0,0.0,0.0,0.0,0.0,0.0,0.0,0.0,0.0,0.0,0.0,0.0,0.0,0.0,0.0,0.0,0.0,0.0,0.0,0.0,0.0,0.0,0.0,0.0,0.0,0.0,-1.7898,0.0,-1.8649,-1.8239,-1.7686,-1.7351,0.0,0.0,0.0,0.0,0.0,0.0,0.0,0.0,0.0,0.0,0.0,0.0,0.0,0.0,0.0,0.0,0.0,0.0,0.0,0.0,0.0,0.0,0.0,0.0,0.0,0.0,0.0,0.0,0.0,0.0,0.0,0.0,0.0,0.0,0.0,0.0,0.0,0.0,0.0,0.0,0.0,0.0,0.0,0.0,0.0,0.0,0.0,0.0,0.0,0.0,0.0,0.0,0.0,0.0,0.0,0.0,0.0,0.0,0.0,0.0,0.0,0.0,0.0,0.0,0.0,0.0,0.0,0.0,0.0,0.0,0.0,0.0,0.0,0.0,0.0,0.0,0.0,0.0,0.0,0.0,0.0,0.0,0.0,0.0,0.0,0.0,0.0,0.0,0.0,0.0,0.0,0.0,0.0,0.0,0.0,0.0,0.0,0.0,0.0,0.0,0.0,0.0,0.0,0.0,0.0,0.0,0.0,0.0,-1.6822,-1.7479,-1.7924,-1.8169,-1.81,-1.744,-1.7105,0.0,0.0,0.0,0.0,0.0,0.0,0.0,0.0,0.0,0.0,0.0,0.0,0.0,0.0,0.0,0.0,0.0,0.0,0.0,0.0,0.0,0.0,0.0,0.0,0.0,0.0,0.0,0.0,0.0,0.0,0.0,0.0,0.0,0.0,0.0,0.0,0.0,0.0,0.0,0.0,0.0,0.0,0.0,0.0,0.0,0.0,0.0,0.0,0.0,0.0,0.0,0.0,0.0,0.0,0.0,0.0,0.0,0.0,0.0,0.0,0.0,0.0,0.0,0.0,0.0,0.0,0.0,0.0,0.0,0.0,0.0,0.0,0.0,0.0,0.0,0.0,0.0,0.0,0.0,0.0,0.0,0.0,0.0,0.0,0.0,0.0,0.0,0.0,0.0,0.0,0.0,0.0,0.0,0.0,0.0,0.0,0.0,0.0,0.0,0.0,0.0,0.0,0.0,0.0,0.0,0.0,0.0,0.0,0.0,-1.7639,-1.8294,-1.8552,-1.8306,-1.7861,-1.7384,0.0,0.0,0.0,0.0,0.0,0.0,0.0,0.0,0.0,0.0,0.0,0.0,0.0,0.0,0.0,0.0,0.0,0.0,0.0,0.0,0.0,0.0,0.0,0.0,0.0,0.0,0.0,0.0,0.0,0.0,0.0,0.0,0.0,0.0,0.0,0.0,0.0,0.0,0.0,0.0,0.0,0.0,0.0,0.0,0.0,0.0,0.0,0.0,0.0,0.0,0.0,0.0,0.0,0.0,0.0,0.0,0.0,0.0,0.0,0.0,0.0,0.0,0.0,0.0,0.0,0.0,0.0,0.0,0.0,0.0,0.0,0.0,0.0,0.0,0.0,0.0,0.0,0.0,0.0,0.0,0.0,0.0,0.0,0.0,0.0,0.0,0.0,0.0,0.0,0.0,0.0,0.0,0.0,0.0,0.0,0.0,0.0,0.0,0.0,0.0,0.0,0.0,0.0,0.0,0.0,0.0,0.0,0.0,0.0,-1.8515,-1.8854,-1.8951,-1.877,-1.831,-1.7841,-1.7309,0.0,0.0,0.0,0.0,0.0,0.0,0.0,0.0,0.0,0.0,0.0,0.0,0.0,0.0,0.0,0.0,0.0,0.0,0.0,0.0,0.0,0.0,0.0,0.0,0.0,0.0,0.0,0.0,0.0,0.0,0.0,0.0,0.0,0.0,0.0,0.0,0.0,0.0,0.0,0.0,0.0,0.0,0.0,0.0,0.0,0.0,0.0,0.0,0.0,0.0,0.0,0.0,0.0,0.0,0.0,0.0,0.0,0.0,0.0,0.0,0.0,0.0,0.0,0.0,0.0,0.0,0.0,0.0,0.0,0.0,0.0,0.0,0.0,0.0,0.0,0.0,0.0,0.0,0.0,0.0,0.0,0.0,0.0,0.0,0.0,0.0,0.0,0.0,0.0,0.0,0.0,0.0,0.0,0.0,0.0,0.0,0.0,0.0,0.0,0.0,0.0,0.0,0.0,0.0,0.0,0.0,0.0,0.0,-1.9932,-1.962,-1.9456,-1.9484,-1.8881,-1.8402,0.0,0.0,0.0,0.0,0.0,0.0,0.0,0.0,0.0,0.0,0.0,0.0,0.0,0.0,0.0,0.0,0.0,0.0,0.0,0.0,0.0,0.0,0.0,0.0,0.0,0.0,0.0,0.0,0.0,0.0,0.0,0.0,0.0,0.0,0.0,0.0,0.0,0.0,0.0,0.0,0.0,0.0,0.0,0.0,0.0,0.0,0.0,0.0,0.0,0.0,0.0,0.0,0.0,0.0,0.0,0.0,0.0,0.0,0.0,0.0,0.0,0.0,0.0,0.0,0.0,0.0,0.0,0.0,0.0,0.0,0.0,0.0,0.0,0.0,0.0,0.0,0.0,0.0,0.0,0.0,0.0,0.0,0.0,0.0,0.0,0.0,0.0,0.0,0.0,0.0,0.0,0.0,0.0,0.0,0.0,0.0,0.0,0.0,0.0,0.0,0.0,0.0,0.0,0.0,0.0,0.0,0.0,0.0,0.0,-2.0732,-2.1495,-2.1511,-2.0754,-2.0273,-1.9644,0.0,0.0,0.0,0.0,0.0,0.0,0.0,0.0,0.0,0.0,0.0,0.0,0.0,0.0,0.0,0.0,0.0,0.0,0.0,0.0,0.0,0.0,0.0,0.0,0.0,0.0,0.0,0.0,0.0,0.0,0.0,0.0,0.0,0.0,0.0,0.0,0.0,0.0,0.0,0.0,0.0,0.0,0.0,0.0,0.0,0.0,0.0,0.0,0.0,0.0,0.0,0.0,0.0,0.0,0.0,0.0,0.0,0.0,0.0,0.0,0.0,0.0,0.0,0.0,0.0,0.0,0.0,0.0,0.0,0.0,0.0,0.0,0.0,0.0,0.0,0.0,0.0,0.0,0.0,0.0,0.0,0.0,0.0,0.0,0.0,0.0,0.0,0.0,0.0,0.0,0.0,0.0,0.0,0.0,0.0,0.0,0.0,0.0,0.0,0.0,0.0,0.0,0.0,0.0,0.0,0.0,0.0,0.0,-2.0131,-2.162,-2.2859,-2.3295,-2.2847,-2.1947,-2.0908,0.0,0.0,0.0,0.0,0.0,0.0,0.0,0.0,0.0,0.0,0.0,0.0,0.0,0.0,0.0,0.0,0.0,0.0,0.0,0.0,0.0,0.0,0.0,0.0,0.0,0.0,0.0,0.0,0.0,0.0,0.0,0.0,0.0,0.0,0.0,0.0,0.0,0.0,0.0,0.0,0.0,0.0,0.0,0.0,0.0,0.0,0.0,0.0,0.0,0.0,0.0,0.0,0.0,0.0,0.0,0.0,0.0,0.0,0.0,0.0,0.0,0.0,0.0,0.0,0.0,0.0,0.0,0.0,0.0,0.0,0.0,0.0,0.0,0.0,0.0,0.0,0.0,0.0,0.0,0.0,0.0,0.0,0.0,0.0,0.0,0.0,0.0,0.0,0.0,0.0,0.0,0.0,0.0,0.0,0.0,0.0,0.0,0.0,0.0,0.0,0.0,0.0,0.0,0.0,0.0,0.0,0.0,0.0,-2.1411,-2.2568,-2.3976,-2.4873,-2.5251,-2.3663,-2.2155,0.0,0.0,0.0,0.0,0.0,0.0,0.0,0.0,0.0,0.0,0.0,0.0,0.0,0.0,0.0,0.0,0.0,0.0,0.0,0.0,0.0,0.0,0.0,0.0,0.0,0.0,0.0,0.0,0.0,0.0,0.0,0.0,0.0,0.0,0.0,0.0,0.0,0.0,0.0,0.0,0.0,0.0,0.0,0.0,0.0,0.0,0.0,0.0,0.0,0.0,0.0,0.0,0.0,0.0,0.0,0.0,0.0,0.0,0.0,0.0,0.0,0.0,0.0,0.0,0.0,0.0,0.0,0.0,0.0,0.0,0.0,0.0,0.0,0.0,0.0,0.0,0.0,0.0,0.0,0.0,0.0,0.0,0.0,0.0,0.0,0.0,0.0,0.0,0.0,0.0,0.0,0.0,0.0,0.0,0.0,0.0,0.0,0.0,0.0,0.0,0.0,0.0,0.0,0.0,0.0,0.0,0.0,0.0,-2.1802,-2.3841,-2.5209,-2.6185,-2.6742,-2.4886,-2.3444,0.0,0.0,0.0,0.0,0.0,0.0,0.0,0.0,0.0,0.0,0.0,0.0,0.0,0.0,0.0,0.0,0.0,0.0,0.0,0.0,0.0,0.0,0.0,0.0,0.0,0.0,0.0,0.0,0.0,0.0,0.0,0.0,0.0,0.0,0.0,0.0,0.0,0.0,0.0,0.0,0.0,0.0,0.0,0.0,0.0,0.0,0.0,0.0,-1.3611,0.0,0.0,0.0,0.0,0.0,0.0,0.0,0.0,0.0,0.0,0.0,0.0,0.0,0.0,0.0,0.0,0.0,0.0,0.0,0.0,0.0,0.0,0.0,0.0,0.0,0.0,0.0,0.0,0.0,0.0,0.0,0.0,0.0,0.0,0.0,0.0,0.0,0.0,0.0,0.0,0.0,0.0,0.0,0.0,0.0,0.0,0.0,0.0,0.0,0.0,0.0,0.0,0.0,0.0,0.0,0.0,0.0,0.0,0.0,-2.2638,-2.4668,-2.6063,-2.7023,-2.7506,-2.6255,-2.4843,0.0,0.0,0.0,0.0,0.0,0.0,0.0,0.0,0.0,0.0,0.0,0.0,0.0,0.0,0.0,0.0,0.0,0.0,0.0,0.0,0.0,0.0,0.0,0.0,0.0,0.0,0.0,0.0,0.0,0.0,0.0,0.0,0.0,0.0,0.0,0.0,0.0,0.0,0.0,0.0,0.0,0.0,0.0,0.0,0.0,0.0,0.0,0.0,0.0,0.0,0.0,0.0,0.0,0.0,0.0,0.0,0.0,0.0,0.0,0.0,0.0,0.0,0.0,0.0,0.0,0.0,0.0,0.0,0.0,0.0,0.0,0.0,0.0,0.0,0.0,0.0,0.0,0.0,0.0,0.0,0.0,0.0,0.0,0.0,0.0,0.0,0.0,0.0,0.0,0.0,0.0,0.0,0.0,0.0,0.0,0.0,0.0,0.0,0.0,0.0,0.0,0.0,0.0,0.0,0.0,0.0,0.0,-2.1394,-2.3457,-2.5311,-2.6741,-2.7711,-2.8165,-2.751,-2.6174,-2.4095,0.0,0.0,0.0,0.0,0.0,0.0,0.0,0.0,0.0,0.0,0.0,0.0,0.0,0.0,0.0,0.0,0.0,0.0,0.0,0.0,0.0,0.0,0.0,0.0,0.0,0.0,0.0,0.0,0.0,0.0,0.0,0.0,0.0,0.0,0.0,0.0,0.0,0.0,-1.1241,-1.2068,0.0,0.0,0.0,0.0,0.0,0.0,0.0,0.0,-1.476,0.0,0.0,0.0,0.0,0.0,0.0,0.0,0.0,0.0,0.0,0.0,0.0,0.0,0.0,0.0,0.0,0.0,0.0,0.0,0.0,0.0,0.0,0.0,0.0,0.0,0.0,0.0,0.0,0.0,0.0,0.0,0.0,0.0,0.0,0.0,0.0,0.0,0.0,0.0,0.0,0.0,0.0,0.0,0.0,0.0,0.0,0.0,0.0,0.0,0.0,0.0,0.0,0.0,0.0,0.0,0.0,-1.9185,-2.1564,-2.3858,-2.6063,-2.7487,-2.8534,-2.911,-2.8199,-2.6963,-2.5469,0.0,0.0,0.0,0.0,0.0,0.0,0.0,0.0,0.0,0.0,0.0,0.0,0.0,0.0,0.0,0.0,0.0,0.0,0.0,0.0,0.0,0.0,0.0,0.0,0.0,0.0,0.0,0.0,0.0,0.0,0.0,0.0,0.0,0.0,0.0,0.0,0.0,0.0,0.0,-1.2777,-1.3314,0.0,0.0,0.0,0.0,0.0,0.0,0.0,0.0,-1.6056,0.0,0.0,0.0,0.0,0.0,0.0,0.0,0.0,0.0,0.0,0.0,0.0,0.0,0.0,0.0,0.0,0.0,0.0,0.0,0.0,0.0,0.0,0.0,0.0,0.0,0.0,0.0,0.0,0.0,0.0,0.0,0.0,0.0,0.0,0.0,0.0,0.0,0.0,0.0,0.0,0.0,0.0,0.0,0.0,0.0,0.0,0.0,0.0,0.0,0.0,0.0,0.0,0.0,0.0,0.0,-1.9767,-2.1873,-2.4216,-2.6758,-2.7711,-2.8599,-2.9355,-2.8233,-2.689,0.0,0.0,0.0,0.0,0.0,0.0,0.0,0.0,0.0,0.0,0.0,0.0,0.0,0.0,0.0,0.0,0.0,0.0,0.0,0.0,0.0,0.0,0.0,0.0,0.0,0.0,0.0,0.0,0.0,0.0,0.0,0.0,0.0,0.0,0.0,0.0,0.0,0.0,0.0,0.0,-1.3634,-1.4139,-1.4765,0.0,0.0,0.0,0.0,0.0,0.0,-1.6582,-1.6839,0.0,0.0,0.0,0.0,0.0,0.0,0.0,0.0,0.0,0.0,0.0,0.0,0.0,0.0,0.0,0.0,0.0,0.0,0.0,0.0,0.0,0.0,0.0,0.0,0.0,0.0,0.0,0.0,0.0,0.0,0.0,0.0,0.0,0.0,0.0,0.0,0.0,0.0,0.0,0.0,0.0,0.0,0.0,0.0,0.0,0.0,0.0,0.0,0.0,0.0,0.0,0.0,0.0,0.0,0.0,-2.0217,-2.2154,-2.4437,-2.704,-2.7752,-2.8483,-2.9355,-2.8118,-2.6669,0.0,0.0,0.0,0.0,0.0,0.0,0.0,0.0,0.0,0.0,0.0,0.0,0.0,0.0,0.0,0.0,0.0,0.0,0.0,0.0,0.0,0.0,0.0,0.0,0.0,0.0,0.0,0.0,0.0,0.0,0.0,0.0,0.0,0.0,0.0,0.0,0.0,0.0,0.0,0.0,0.0,-1.5053,-1.584,-1.602,0.0,0.0,0.0,0.0,-1.69,-1.7219,0.0,0.0,0.0,0.0,0.0,0.0,0.0,0.0,0.0,0.0,0.0,0.0,0.0,0.0,0.0,0.0,0.0,0.0,0.0,0.0,0.0,0.0,0.0,0.0,0.0,0.0,0.0,0.0,0.0,0.0,0.0,0.0,0.0,0.0,0.0,0.0,0.0,0.0,0.0,0.0,0.0,0.0,0.0,0.0,0.0,0.0,0.0,0.0,0.0,0.0,0.0,0.0,0.0,0.0,0.0,0.0,-1.9778,-2.2158,-2.4425,-2.6622,-2.7706,-2.8652,-2.9355,-2.8106,-2.662,0.0,0.0,0.0,0.0,0.0,0.0,0.0,0.0,0.0,0.0,0.0,0.0,0.0,0.0,0.0,0.0,0.0,0.0,0.0,0.0,0.0,0.0,0.0,0.0,0.0,0.0,0.0,0.0,0.0,0.0,0.0,0.0,0.0,0.0,0.0,0.0,0.0,0.0,0.0,0.0,0.0,-1.5861,-1.6646,-1.7076,-1.7486,0.0,0.0,-1.847,-1.867,-1.8498,0.0,0.0,0.0,0.0,0.0,0.0,0.0,0.0,0.0,0.0,0.0,0.0,0.0,0.0,0.0,0.0,0.0,0.0,0.0,0.0,0.0,0.0,0.0,0.0,0.0,0.0,0.0,0.0,0.0,0.0,0.0,0.0,0.0,0.0,0.0,0.0,0.0,0.0,0.0,0.0,0.0,0.0,0.0,0.0,0.0,0.0,0.0,0.0,0.0,0.0,0.0,0.0,0.0,0.0,0.0,-1.8019,-2.0078,-2.2386,-2.4579,-2.6513,-2.7561,-2.8345,-2.8909,-2.7735,-2.6406,0.0,0.0,0.0,0.0,0.0,0.0,0.0,0.0,0.0,0.0,0.0,0.0,0.0,0.0,0.0,0.0,0.0,0.0,0.0,0.0,0.0,0.0,0.0,0.0,0.0,0.0,0.0,0.0,0.0,0.0,0.0,0.0,0.0,0.0,0.0,0.0,0.0,0.0,0.0,0.0,0.0,0.0,-1.7127,-1.7584,0.0,0.0,0.0,-1.8878,-1.948,0.0,0.0,0.0,0.0,0.0,0.0,0.0,0.0,0.0,0.0,0.0,0.0,0.0,0.0,0.0,0.0,0.0,0.0,0.0,0.0,0.0,0.0,0.0,0.0,0.0,0.0,0.0,0.0,0.0,0.0,0.0,0.0,0.0,0.0,0.0,0.0,0.0,0.0,0.0,0.0,0.0,0.0,0.0,0.0,0.0,0.0,0.0,0.0,0.0,0.0,0.0,0.0,0.0,0.0,0.0,0.0,0.0,-2.0217,-2.2512,-2.4599,-2.6374,-2.7418,-2.8128,-2.8574,-2.7481,0.0,0.0,0.0,0.0,0.0,0.0,0.0,0.0,0.0,0.0,0.0,0.0,0.0,0.0,0.0,0.0,0.0,0.0,0.0,0.0,0.0,0.0,0.0,0.0,0.0,0.0,0.0,-1.2446,0.0,0.0,0.0,0.0,0.0,0.0,0.0,0.0,0.0,0.0,0.0,0.0,0.0,0.0,-1.6886,-1.7678,-1.8303,-1.8857,0.0,0.0,-1.9687,-2.0215,-2.0342,-2.0344,0.0,0.0,0.0,0.0,0.0,0.0,0.0,0.0,0.0,0.0,0.0,0.0,0.0,0.0,0.0,0.0,0.0,0.0,0.0,0.0,0.0,0.0,0.0,0.0,0.0,0.0,0.0,0.0,0.0,0.0,0.0,0.0,0.0,0.0,0.0,0.0,0.0,0.0,0.0,0.0,0.0,0.0,0.0,0.0,0.0,0.0,0.0,0.0,0.0,0.0,0.0,0.0,0.0,0.0,0.0,-1.979,-2.2382,-2.443,-2.5931,-2.7221,-2.8116,-2.8574,-2.7493,-2.6214,0.0,0.0,0.0,0.0,0.0,0.0,0.0,0.0,0.0,0.0,0.0,0.0,0.0,0.0,0.0,0.0,0.0,0.0,0.0,0.0,0.0,0.0,0.0,0.0,0.0,0.0,0.0,0.0,0.0,0.0,0.0,0.0,0.0,0.0,0.0,0.0,0.0,0.0,0.0,0.0,0.0,-1.7715,-1.8514,-1.9494,-2.0281,0.0,0.0,-2.1543,-2.1202,-2.1415,-2.1489,-2.0917,0.0,0.0,0.0,0.0,0.0,0.0,0.0,0.0,0.0,0.0,0.0,0.0,0.0,0.0,0.0,0.0,0.0,0.0,0.0,0.0,0.0,0.0,0.0,0.0,0.0,0.0,0.0,0.0,0.0,0.0,0.0,0.0,0.0,0.0,0.0,0.0,0.0,0.0,0.0,0.0,0.0,0.0,0.0,0.0,0.0,0.0,0.0,0.0,0.0,0.0,0.0,0.0,0.0,-1.8554,-2.012,-2.2479,-2.4273,-2.5408,-2.7035,-2.7987,-2.8163,-2.7326,-2.6322,0.0,0.0,0.0,0.0,0.0,0.0,0.0,0.0,0.0,0.0,0.0,0.0,0.0,0.0,0.0,0.0,0.0,0.0,0.0,0.0,0.0,0.0,0.0,0.0,0.0,0.0,0.0,0.0,-1.215,-1.2076,-1.2076,0.0,0.0,0.0,0.0,0.0,0.0,0.0,0.0,0.0,0.0,-1.7934,-1.9149,-1.9876,0.0,0.0,-2.1663,-2.1677,-2.2271,-2.205,-2.1674,-2.1325,-2.1265,0.0,0.0,0.0,0.0,0.0,0.0,0.0,0.0,0.0,0.0,0.0,0.0,0.0,0.0,0.0,0.0,0.0,0.0,0.0,0.0,0.0,0.0,0.0,0.0,0.0,0.0,0.0,0.0,0.0,0.0,0.0,0.0,0.0,0.0,0.0,0.0,0.0,0.0,0.0,0.0,0.0,0.0,0.0,0.0,0.0,0.0,0.0,0.0,0.0,0.0,0.0,0.0,-1.8784,-2.0398,-2.2712,-2.428,-2.5099,-2.6954,-2.7881,-2.7898,-2.7257,-2.6381,0.0,0.0,0.0,0.0,0.0,0.0,0.0,0.0,0.0,0.0,0.0,0.0,0.0,0.0,0.0,0.0,0.0,0.0,0.0,0.0,0.0,0.0,0.0,0.0,0.0,0.0,0.0,0.0,-1.2076,-1.2076,-1.2076,0.0,0.0,0.0,0.0,0.0,0.0,0.0,0.0,0.0,0.0,-1.8258,-1.9586,-2.0221,-2.0986,-2.2104,-2.1983,-2.201,-2.2765,-2.2574,-2.2232,-2.186,0.0,0.0,0.0,0.0,0.0,0.0,0.0,0.0,0.0,0.0,0.0,0.0,0.0,0.0,0.0,0.0,0.0,0.0,0.0,0.0,0.0,0.0,0.0,0.0,0.0,0.0,0.0,0.0,0.0,0.0,-1.1569,0.0,0.0,0.0,0.0,0.0,0.0,0.0,0.0,0.0,0.0,0.0,0.0,0.0,0.0,0.0,0.0,0.0,0.0,0.0,0.0,0.0,0.0,-1.9142,-2.042,-2.3032,-2.4594,-2.5133,-2.6943,-2.7881,-2.7898,-2.7257,-2.6418,-2.53,0.0,0.0,0.0,0.0,0.0,0.0,0.0,0.0,0.0,0.0,0.0,0.0,0.0,0.0,0.0,0.0,0.0,0.0,0.0,0.0,0.0,0.0,0.0,0.0,0.0,0.0,-1.2153,-1.2119,-1.2128,0.0,0.0,0.0,0.0,0.0,0.0,0.0,0.0,0.0,0.0,-1.7875,-1.8761,-1.9798,-2.0641,-2.1317,-2.1775,-2.2544,-2.2897,-2.2524,-2.3083,-2.3383,0.0,0.0,0.0,0.0,0.0,0.0,0.0,0.0,0.0,0.0,0.0,0.0,0.0,0.0,0.0,0.0,0.0,0.0,0.0,0.0,0.0,0.0,0.0,0.0,0.0,0.0,0.0,-1.1085,-1.1526,0.0,0.0,0.0,0.0,0.0,0.0,0.0,0.0,0.0,0.0,0.0,-1.5806,-1.5705,0.0,0.0,0.0,0.0,0.0,0.0,0.0,0.0,0.0,0.0,0.0,0.0,-1.9425,-2.1329,-2.3364,-2.4774,-2.5553,-2.7088,-2.7881,-2.7881,-2.7257,-2.5973,-2.3975,0.0,0.0,0.0,0.0,0.0,0.0,0.0,0.0,0.0,0.0,0.0,0.0,0.0,0.0,0.0,0.0,0.0,0.0,0.0,0.0,0.0,0.0,0.0,0.0,0.0,-1.318,0.0,0.0,0.0,0.0,0.0,0.0,0.0,0.0,0.0,0.0,0.0,-1.6151,-1.7437,-1.8278,-1.9286,-2.0584,-2.1233,-2.184,0.0,0.0,0.0,0.0,0.0,0.0,0.0,0.0,0.0,0.0,0.0,0.0,0.0,0.0,-2.2628,-2.1831,-2.1668,-2.1668,-2.1668,0.0,0.0,0.0,0.0,0.0,0.0,0.0,0.0,0.0,0.0,0.0,0.0,0.0,0.0,-1.1594,0.0,-1.2228,0.0,0.0,0.0,0.0,0.0,0.0,0.0,0.0,-1.5968,-1.6493,-1.7078,-1.6948,-1.7171,0.0,-1.7387,-1.6988,0.0,0.0,0.0,0.0,0.0,0.0,0.0,0.0,-1.9829,-2.169,-2.3594,-2.4954,-2.58,-2.7169,-2.7881,-2.7909,-2.7067,-2.5696,-2.3732,-2.2504,-2.127,0.0,0.0,0.0,0.0,0.0,0.0,0.0,0.0,0.0,0.0,0.0,0.0,0.0,0.0,0.0,0.0,0.0,0.0,0.0,0.0,0.0,0.0,0.0,-1.3549,0.0,0.0,0.0,0.0,0.0,0.0,0.0,0.0,0.0,-1.5032,-1.5823,-1.6869,-1.8142,-1.8894,-1.9772,-2.1134,0.0,0.0,0.0,0.0,0.0,0.0,0.0,-2.3492,-2.3502,-2.3499,-2.3445,-2.333,-2.3594,-2.3806,-2.3806,0.0,0.0,-2.2871,-2.2782,-2.2739,-2.277,-2.2802,-2.2853,-2.3011,-2.3324,-2.3754,0.0,0.0,0.0,0.0,0.0,0.0,0.0,0.0,-1.1517,-1.186,0.0,-1.2486,0.0,0.0,0.0,0.0,0.0,-1.5498,0.0,0.0,-1.7352,-1.7873,-1.8411,-1.842,-1.8669,-1.9011,-1.8632,-1.8541,-1.8603,-1.7165,0.0,0.0,0.0,0.0,0.0,0.0,-2.0224,-2.1576,-2.3694,-2.512,-2.5844,-2.718,-2.7857,-2.7827,-2.6733,-2.5624,-2.4494,-2.3119,-2.1916,-2.0823,-1.9915,0.0,0.0,0.0,0.0,0.0,0.0,0.0,0.0,0.0,0.0,0.0,0.0,0.0,0.0,0.0,0.0,0.0,0.0,0.0,0.0,-1.3741,0.0,0.0,0.0,0.0,0.0,0.0,0.0,0.0,0.0,0.0,-1.6045,-1.6668,-1.762,-1.9082,0.0,0.0,0.0,0.0,-2.2187,-2.2424,-2.2777,-2.3124,-2.3309,-2.3677,-2.4007,-2.4189,0.0,0.0,-2.3592,-2.3721,-2.389,-2.3854,-2.3902,-2.3854,-2.3866,-2.3782,-2.3746,-2.3791,-2.3853,-2.4067,-2.4275,-2.4476,-2.4912,-1.2337,0.0,0.0,0.0,0.0,-1.1323,-1.1533,-1.1658,-1.2075,-1.2441,-1.2719,-1.2868,0.0,0.0,0.0,0.0,0.0,0.0,-1.7588,-1.7928,-1.8628,-1.9026,-1.9164,-1.9516,-1.9725,-1.985,-1.9898,-1.977,-1.9509,-1.8777,-1.7807,-1.6646,0.0,0.0,0.0,0.0,-2.056,-2.2457,-2.3866,-2.5167,-2.6378,-2.7046,-2.7254,-2.6969,-2.6784,-2.5841,-2.4049,-2.3248,-2.2139,-2.0728,-2.0116,0.0,0.0,0.0,0.0,0.0,0.0,0.0,0.0,0.0,0.0,0.0,0.0,0.0,0.0,0.0,0.0,0.0,0.0,0.0,-1.4859,-1.4678,-1.4562,0.0,0.0,0.0,0.0,0.0,0.0,0.0,0.0,0.0,-1.7261,-1.7331,-1.7772,0.0,0.0,-2.0648,-2.1523,-2.2264,-2.2815,-2.3038,-2.3372,0.0,0.0,-2.4164,-2.4381,-2.4598,-2.4672,-2.4731,-2.4787,-2.482,-2.4867,-2.4867,-2.4867,-2.4867,-2.4819,-2.4287,-2.3875,-2.3926,-2.398,-2.4132,-2.4569,-2.4911,-2.5403,-1.3447,-1.2813,-1.2193,-1.1856,-1.1763,-1.2046,-1.2221,-1.2337,-1.2737,-1.3035,-1.3323,-1.3561,-1.3846,-1.4096,-1.4792,0.0,0.0,0.0,-1.842,-1.8841,-1.9626,-2.0158,-2.0571,-2.0953,-2.1093,-2.1018,-2.0994,-2.0796,-2.0383,-1.998,-1.9136,-1.7871,0.0,0.0,-1.8155,-1.9201,-2.0588,-2.2324,-2.3624,-2.4905,-2.6114,-2.693,-2.7207,-2.6928,-2.6842,-2.5924,-2.4145,-2.3589,-2.245,-2.0682,-2.0354,-1.9661,0.0,0.0,0.0,0.0,0.0,0.0,0.0,0.0,0.0,0.0,0.0,-1.4962,-1.4692,0.0,0.0,0.0,-1.5062,-1.5366,-1.5216,-1.5117,0.0,0.0,0.0,0.0,0.0,0.0,0.0,-1.6434,-1.6864,-1.7453,-1.8428,-1.8389,-1.8622,-1.9503,-2.0216,-2.0938,-2.1635,0.0,-2.2712,-2.2999,-2.3419,-2.3738,-2.3803,-2.4084,-2.4401,-2.4578,-2.4743,-2.4955,-2.5252,-2.5312,-2.5312,-2.5312,-2.5312,-2.5312,-2.5312,-2.4783,-2.4442,-2.4611,-2.4679,-2.4915,-2.5357,-2.5752,-2.6304,-1.437,-1.4244,-1.3272,-1.2831,-1.2771,-1.2765,-1.2916,-1.3145,-1.3397,-1.3634,-1.3927,-1.4372,-1.4681,-1.4995,-1.6182,0.0,-1.7198,-1.818,-1.896,-1.9687,-2.0451,-2.1301,-2.2206,-2.2499,-2.2535,-2.2263,-2.1906,-2.1522,-2.1154,-2.0708,-2.0163,-1.9393,-1.8823,-1.8592,-1.8758,-1.9493,-2.045,-2.163,-2.3113,-2.4403,-2.5529,-2.6736,-2.7369,-2.7237,-2.6726,-2.5802,-2.4462,-2.3932,-2.2739,-2.0718,-2.0557,-1.9873,-1.8336,0.0,0.0,0.0,0.0,0.0,0.0,0.0,0.0,0.0,0.0,0.0,0.0,0.0,0.0,0.0,-1.5604,0.0,-1.5274,-1.5205,0.0,0.0,0.0,-1.5176,-1.542,-1.5469,-1.6019,-1.7369,0.0,0.0,-1.9444,-1.9638,-1.9831,-2.0268,-2.0659,-2.1115,-2.1716,-2.2045,-2.2252,-2.2674,-2.3075,-2.3352,-2.3335,-2.3684,-2.4058,-2.4254,-2.4367,-2.4592,-2.5023,-2.5131,-2.5168,-2.5131,-2.518,-2.5155,-2.518,-2.5071,-2.5262,-2.5375,-2.5671,-2.6013,-2.6317,-2.6849,-2.7365,-1.4974,-1.4594,-1.4346,-1.3888,-1.3326,-1.3282,-1.3363,-1.3423,-1.3462,-1.364,-1.3888,-1.4018,-1.4501,-1.5263,-1.6142,-1.7018,-1.7827,-1.8961,-1.9764,-2.0357,-2.1386,-2.1952,-2.2215,-2.2603,-2.2637,-2.2291,-2.219,-2.1934,-2.1531,-2.1129,-2.0714,-2.0228,-1.9782,-1.934,-1.8966,-1.9562,-2.0551,-2.1825,-2.2972,-2.4261,-2.5679,-2.6377,-2.6406,-2.5756,-2.5377,-2.4685,-2.3539,-2.3041,-2.2033,-2.0334,-2.0315,-1.9837,-1.8708,-1.7854,0.0,0.0,0.0,0.0,0.0,0.0,0.0,0.0,0.0,-1.5601,-1.5769,0.0,-1.5854,0.0,-1.5671,-1.5672,-1.5595,-1.5439,0.0,0.0,-1.5537,-1.5614,-1.5759,-1.6195,-1.6788,-1.7616,-1.8249,-1.8924,-1.9652,-2.0009,-2.0335,-2.063,-2.0897,-2.1263,-2.1788,-2.223,-2.2616,-2.2955,-2.315,-2.3276,-2.3406,-2.3656,-2.3829,-2.392,-2.3953,-2.4001,-2.4121,-2.4167,-2.4167,-2.4167,-2.4167,-2.4179,-2.4191,-2.4179,-2.428,-2.4597,-2.541,-2.628,-2.676,-2.7289,-2.7776,-1.5258,-1.4883,-1.4769,-1.4389,-1.3857,-1.3863,-1.3863,-1.3863,-1.3863,-1.391,-1.4096,-1.4341,-1.4844,-1.5574,-1.6352,-1.7123,-1.7926,-1.9039,-1.981,-2.0389,-2.143,-2.2008,-2.2215,-2.2659,-2.2684,-2.2327,-2.2327,-2.2071,-2.1696,-2.1449,-2.1089,-2.053,-2.0259,-1.9819,-1.9193,-1.963,-2.0372,-2.1292,-2.2694,-2.4029,-2.5316,-2.5763,-2.5674,-2.4906,-2.4738,-2.4097,-2.2921,-2.2412,-2.1529,-2.0182,-1.9986,-1.9518,-1.8741,-1.7762,-1.718,0.0,0.0,0.0,0.0,0.0,0.0,0.0,0.0,0.0,0.0,0.0,-1.6358,-1.6046,-1.5934,-1.5836,-1.5798,-1.5691,-1.5662,-1.5769,-1.5968,-1.6185,-1.6401,-1.6918,-1.7584,-1.8405,-1.8922,-1.9456,-2.0191,-2.056,-2.0839,-2.1028,-2.1259,-2.142,-2.1659,-2.1999,-2.2292,-2.2598,-2.2819,-2.3039,-2.3248,-2.3175,-2.3192,-2.3396,-2.3445,-2.3529,-2.3758,-2.3806,-2.3806,-2.3806,-2.3806,-2.3806,-2.3806,-2.3806,-2.3905,-2.4308,-2.4909,-2.5582,-2.6143,-2.6863,-2.7491,-1.5378,-1.5089,-1.4859,-1.4588,-1.4298,-1.4298,-1.4298,-1.4298,-1.4298,-1.4298,-1.4346,-1.4838,-1.5315,-1.5778,-1.6548,-1.716,-1.7714,-1.8682,-1.9469,-2.0099,-2.1142,-2.181,-2.2215,-2.2668,-2.2684,-2.2327,-2.2327,-2.2126,-2.1696,-2.1641,-2.122,-2.0549,-2.0424,-2.0021,-1.9329,-1.9666,-2.0166,-2.0771,-2.2302,-2.3619,-2.4647,-2.4965,-2.4873,-2.4335,-2.4233,-2.3572,-2.2406,-2.1819,-2.1056,-2.0018,-1.9549,-1.9136,-1.8583,-1.7584,-1.6995,0.0,-1.5986,0.0,0.0,0.0,0.0,0.0,0.0,0.0,0.0,-1.6912,-1.6825,-1.6459,-1.6239,-1.6066,-1.5933,-1.5914,-1.5934,-1.6023,-1.6386,-1.6778,-1.7179,-1.7645,-1.8332,-1.927,-1.9505,-1.9913,-2.0595,-2.096,-2.1169,-2.107,-2.1237,-2.1323,-2.1339,-2.1553,-2.1832,-2.1937,-2.2246,-2.2512,-2.2647,-2.2349,-2.2125,-2.2578,-2.2626,-2.2867,-2.3171,-2.33,-2.3336,-2.3324,-2.324,-2.33,-2.3396,-2.3348,-2.347,-2.3781,-2.4011,-2.4398,-2.5237,-2.6147,-2.6882,-1.5535,-1.5107,-1.5052,-1.4751,-1.4304,-1.4298,-1.4298,-1.4298,-1.4298,-1.4298,-1.4346,-1.464,-1.5064,-1.5486,-1.5872,-1.6534,-1.7387,-1.8299,-1.9131,-1.9896,-2.0992,-2.1782,-2.2224,-2.2508,-2.2535,-2.2337,-2.2327,-2.208,-2.1687,-2.1392,-2.0989,-2.0479,-2.0159,-1.9797,-1.9329,0.0,0.0,0.0,-2.2321,-2.3041,-2.3842,-2.3785,-2.3604,-2.3343,-2.2754,0.0,-2.147,-2.095,-2.0169,-1.9189,-1.9164,0.0,0.0,0.0,0.0,0.0,0.0,0.0,0.0,0.0,0.0,0.0,-1.7411,-1.7538,-1.7484,-1.709,-1.6751,-1.6581,-1.6285,-1.6085,-1.6056,-1.5961,-1.6084,-1.6575,-1.6706,-1.702,-1.7737,-1.8322,-1.887,-1.9345,-2.0012,-2.0335,-2.0093,-2.0442,-2.0476,-2.0012,-2.0258,-2.0529,-2.0564,-2.1287,-2.1901,-2.2092,-2.1872,-2.1668,-2.1704,-2.1301,-2.106,-2.1043,-2.1067,-2.1151,-2.1296,-2.1308,-2.126,-2.1296,-2.1211,-2.1272,-2.1272,-2.1211,-2.1554,-2.223,-2.2466,-2.3097,-2.4905,-2.5769,-2.6405,-1.5662,0.0,-1.5161,-1.4871,0.0,-1.4352,-1.4298,-1.4298,-1.4298,-1.4298,-1.4298,-1.4592,-1.4831,-1.5064,-1.5588,-1.6204,-1.7012,-1.7918,-1.8707,-1.9339,-2.0407,-2.1043,-2.1267,-2.1794,-2.1971,-2.1853,-2.1733,-2.1577,-2.141,-2.1016,-2.0622,-2.0186,-1.9985,-1.9723,-1.9311,-1.9508,-2.0173,-2.1243,-2.1751,-2.2342,-2.302,-2.2892,-2.2808,-2.274,0.0,0.0,0.0,0.0,0.0,0.0,0.0,0.0,0.0,0.0,0.0,-1.7081,-1.6631,-1.6408,-1.6535,-1.7014,-1.7338,-1.7438,-1.7495,-1.7501,-1.749,-1.7071,-1.6779,-1.6694,-1.642,-1.6249,-1.6249,-1.6173,-1.6265,-1.6567,-1.6783,-1.714,-1.771,-1.8234,-1.8728,-1.9234,-1.968,-1.9879,-1.9761,-2.01,-2.0175,-1.9866,-2.0134,-2.0418,-2.0478,-2.0896,-2.1314,-2.1374,-2.1223,-2.1031,-2.0995,-2.0815,-2.0586,-2.0593,-2.061,-2.0598,-2.061,-2.0581,-2.0581,-2.061,-2.0598,-2.0598,-2.0598,-2.061,-2.0793,-2.13,-2.1519,-2.1964,-2.3408,-2.4675,-2.5807,-1.5734,-1.5481,-1.5215,-1.4906,-1.4696,-1.4419,-1.4298,-1.4298,0.0,0.0,0.0,-1.4544,-1.464,-1.4736,-1.5404,-1.5974,-1.6494,-1.7481,-1.8172,-1.8689,-1.9646,-2.0155,-2.0337,-2.0979,-2.1266,-2.1266,-2.1107,-2.1028,-2.0989,-2.0561,-2.0214,-1.9912,-1.9811,-1.961,-1.932,-1.9518,-1.9872,-2.0489,-2.1079,-2.1652,-2.2162,-2.2135,-2.2132,-2.2139,-2.1235,-2.056,-2.0224,-1.9349,-1.8834,-1.8759,-1.8341,-1.8084,-1.81,-1.7656,-1.7396,-1.7384,-1.6965,-1.6843,-1.7186,-1.7247,-1.7393,-1.7623,-1.7351,-1.7211,-1.7239,-1.6948,-1.6751,-1.6751,-1.6534,-1.6402,-1.6402,-1.6374,-1.6444,-1.6487,-1.6789,-1.7146,-1.7586,-1.7935,-1.8497,-1.907,-1.9224,-1.9276,-1.9492,-1.9791,-1.9935,-1.9882,-1.9987,-2.0322,-2.0358,-2.0485,-2.0677,-2.0677,-2.0598,-2.0466,-2.0454,-2.0322,-2.0305,-2.0237,-2.0249,-2.0326,-2.0322,-2.0322,-2.0305,-2.0237,-2.0298,-2.0278,-2.0302,-2.0237,-2.0443,-2.0799,-2.0855,-2.1061,-2.1863,-2.3358,-2.4752,-1.5741,-1.5475,-1.5215,-1.4962,-1.469,-1.4413,-1.4298,-1.4298,-1.4298,-1.4298,-1.4298,-1.4346,-1.449,-1.4736,-1.5029,-1.5458,-1.5974,-1.6791,-1.7535,-1.8226,-1.9004,-1.9691,-2.0292,-2.0654,-2.0837,-2.0878,-2.084,-2.0771,-2.0552,-2.0159,-1.9939,-1.9847,-1.9567,-1.9366,-1.935,-1.9518,-1.9715,-2.002,-2.0673,-2.106,-2.1291,-2.1339,-2.13,-2.1083,-2.0438,-1.9896,-1.9549,-1.9015,-1.8561,-1.8221,-1.8157,-1.8084,-1.81,-1.7668,-1.7396,-1.7396,-1.7219,-1.7141,-1.7194,-1.7445,-1.755,-1.7379,-1.7043,-1.692,-1.7011,-1.6797,-1.6637,-1.6637,-1.6477,-1.6402,-1.6402,-1.6374,-1.6519,-1.6831,-1.6955,-1.726,-1.7926,-1.8084,-1.838,-1.9022,-1.919,-1.9125,-1.9023,-1.9239,-1.9272,-1.8979,-1.9209,-1.9275,-1.9456,-2.0037,-2.0526,-2.055,-2.0201,-1.9965,-1.9892,-1.9504,-1.9387,-1.9227,-1.9314,-1.9336,-1.936,-1.9348,-1.936,-1.9263,-1.9351,-1.9326,-1.9314,-1.9215,-1.9564,-2.015,-2.0303,-2.0618,-2.1544,-2.2433,-2.3054,-1.5819,-1.5662,-1.5282,-1.504,-1.4896,-1.4479,-1.4298,-1.4298,-1.4298,-1.4298,-1.4298,-1.4298,-1.4394,-1.4496,-1.4742,-1.5118,-1.5629,-1.6251,-1.6965,-1.7707,-1.8434,-1.9088,-1.9691,-2.0238,-2.0454,-2.0438,-2.0467,-2.034,-2.0007,-1.9706,-1.9586,-1.9586,-1.9384,-1.9292,-1.9292,-1.939,-1.9587,-1.9902,-2.045,-2.0811,-2.094,-2.0849,-2.081,-2.0905,-2.0071,-1.9518,-1.928,-1.8814,-1.8329,-1.7888,-1.7865,-1.7893,-1.7865,-1.7678,-1.7553,-1.7553,-1.7499,-1.7414,-1.724,-1.723,-1.7155,-1.7043,-1.6733,-1.6591,-1.6666,-1.6627,-1.6609,-1.6599,-1.6477,-1.6345,-1.6249,-1.6249,-1.6302,-1.6487,-1.6518,-1.6736,-1.7217,-1.7405,-1.7621,-1.8107,-1.8309,-1.8379,-1.8367,-1.8622,-1.8783,-1.8622,-1.8815,-1.8987,-1.9013,-1.9384,-1.972,-1.9708,-1.9504,-1.9411,-1.9375,-1.9167,-1.9037,-1.9013,-1.9013,-1.9013,-1.9013,-1.9013,-1.9001,-1.9013,-1.9013,-1.9013,-1.9001,-1.9025,-1.9252,-1.9548,-1.9762,-2.0138,-2.0819,-2.1446,-2.2199,-1.5855,-1.5753,-1.53,-1.504,-1.489,-1.4479,-1.4298,-1.4298,-1.4298,-1.4298,-1.4298,-1.4298,-1.4298,-1.4346,-1.4592,-1.4879,-1.5296,-1.5859,-1.6473,-1.7185,-1.7878,-1.8535,-1.9126,-1.9708,-1.9966,-1.9904,-1.9949,-1.9799,-1.9494,-1.9368,-1.9292,-1.9292,-1.9292,-1.9292,-1.9292,-1.9292,-1.9508,-1.9902,-2.0245,-2.0515,-2.0643,-2.0488,-2.046,-2.0557,-1.976,-1.9244,-1.9135,-1.8666,-1.8218,-1.7857,-1.7824,-1.7768,-1.7695,-1.7645,-1.7645,-1.7656,-1.7601,-1.7423,-1.7194,-1.6885,-1.6705,-1.6705,-1.6431,-1.6298,-1.6288,-1.6392,-1.6438,-1.642,-1.6316,-1.622,-1.6095,-1.6066,-1.6066,-1.6066,-1.6085,-1.6259,-1.6534,-1.6666,-1.6892,-1.7211,-1.7501,-1.7706,-1.7881,-1.8166,-1.8422,-1.8625,-1.8827,-1.896,-1.8987,-1.9013,-1.9013,-1.9013,-1.9013,-1.9049,-1.9013,-1.8855,-1.8794,-1.8806,-1.8674,-1.8554,-1.8554,-1.8602,-1.8614,-1.8554,-1.8666,-1.863,-1.8652,-1.8678,-1.8758,-1.8912,-1.8939,-1.9243,-2.0053,-2.0885,-2.1787,-1.5753,-1.5505,-1.5228,-1.4823,-1.4401,-1.4322,-1.4298,-1.4298,-1.4298,-1.4298,-1.4298,-1.4298,-1.4298,-1.4346,-1.4592,-1.4742,-1.4831,-1.5499,-1.6109,-1.6723,-1.7419,-1.8156,-1.878,-1.9052,-1.9142,-1.9204,-1.9256,-1.9226,-1.9101,-1.921,-1.9292,-1.9292,-1.9292,-1.9292,-1.9292,-1.9292,-1.9499,-1.9863,-1.9942,-2.0053,-2.0252,-2.0343,-2.0203,-1.9806,-1.9251,-1.9019,-1.9101,-1.8669,-1.8333,-1.8169,-1.8121,-1.7989,-1.7712,-1.759,-1.7496,-1.7496,-1.7234,-1.6983,-1.6846,-1.6563,-1.6431,-1.6413,-1.6144,-1.5943,-1.5982,-1.5982,-1.5972,-1.5972,-1.5972,-1.5943,-1.5924,-1.5914,-1.5914,-1.5914,-1.6009,-1.621,-1.6402,-1.6524,-1.6779,-1.7239,-1.7306,-1.7451,-1.7799,-1.803,-1.8302,-1.8664,-1.8798,-1.8878,-1.896,-1.8999,-1.9013,-1.9013,-1.9013,-1.9001,-1.8915,-1.8566,-1.8362,-1.8277,-1.7893,-1.7748,-1.7748,-1.77,-1.7567,-1.7869,-1.7933,-1.8018,-1.781,-1.7763,-1.7958,-1.8081,-1.8179,-1.8385,-1.9566,-2.0593,-2.1621,-1.5529,-1.5261,-1.5164,-1.4799,-1.4328,-1.4298,-1.4298,-1.4298,-1.4298,-1.4298,-1.4298,-1.4298,-1.4298,-1.4298,-1.4442,-1.4544,-1.4694,-1.5022,-1.5499,-1.6157,-1.6763,-1.7409,-1.8101,-1.842,-1.8597,-1.8651,-1.879,-1.8842,-1.8865,-1.9152,-1.9292,-1.9292,-1.9292,-1.9292,-1.9292,-1.9292,-1.9429,-1.9715,-1.9824,-2.0012,-2.0187,-2.0018,-1.9834,-1.9693,-1.925,-1.9018,-1.8956,-1.8774,-1.8439,-1.7859,-1.7802,-1.7615,-1.7177,-1.7117,-1.7088,-1.706,-1.6807,-1.662,-1.6573,-1.6288,-1.6116,-1.6087,-1.5914,-1.5798,-1.5769,-1.5662,-1.5604,-1.5633,-1.5759,-1.5856,-1.5788,-1.5759,-1.5788,-1.5798,-1.5846,-1.5951,-1.622,-1.6381,-1.6591,-1.6864,-1.7127,-1.7362,-1.7573,-1.7877,-1.8193,-1.853,-1.8691,-1.8825,-1.8905,-1.8946,-1.8987,-1.9013,-1.9013,-1.8843,-1.8602,-1.8374,-1.8085,-1.7796,-1.7543,-1.7399,-1.7351,-1.7387,-1.7399,-1.7363,-1.7581,-1.7666,-1.752,-1.7303,-1.7315,-1.7436,-1.794,-1.8396,-1.9131,-2.0087,-2.0962,-1.5112,-1.489,-1.4782,-1.4617,-1.4304,-1.4298,-1.4298,-1.4298,-1.4298,-1.4298,-1.4298,-1.4298,-1.4298,-1.4298,-1.4298,-1.4394,-1.4592,-1.4646,-1.507,-1.5669,-1.6129,-1.6661,-1.7402,-1.7673,-1.7885,-1.8036,-1.832,-1.8583,-1.8789,-1.9082,-1.9271,-1.9262,-1.9292,-1.9292,-1.9292,-1.9292,-1.939,-1.9606,-1.9794,-1.9972,-2.0043,-1.9725,-1.9547,-1.961,-1.9206,-1.8876,-1.8793,-1.8794,-1.8386,-1.7525,-1.7492,-1.7219,-1.6719,-1.6648,-1.6581,-1.6534,-1.6374,-1.6269,-1.6269,-1.6,-1.5856,-1.5856,-1.573,-1.5643,-1.5604,-1.5478,-1.542,-1.542,-1.5633,-1.5701,-1.5643,-1.5614,-1.5604,-1.5614,-1.5643,-1.5788,-1.598,-1.6163,-1.6363,-1.6552,-1.6874,-1.7155,-1.7334,-1.7728,-1.8111,-1.8313,-1.8583,-1.8771,-1.8798,-1.8919,-1.9013,-1.9013,-1.9013,-1.8782,-1.8313,-1.8025,-1.7748,-1.7315,-1.7051,-1.6859,-1.6955,-1.6955,-1.6943,-1.6667,-1.7133,-1.7193,-1.681,-1.6657,-1.6741,-1.7156,-1.7629,-1.8111,-1.8539,-1.9436,-2.0111,-1.459,-1.4343,-1.408,-1.4111,-1.4298,-1.4298,-1.4298,-1.4298,-1.4298,-1.4298,-1.4298,-1.4298,-1.4298,-1.4298,-1.4298,-1.4298,-1.4346,-1.4592,-1.4908,-1.5345,-1.5451,-1.6003,-1.6851,-1.6752,-1.6904,-1.7375,-1.7771,-1.8276,-1.8882,-1.9002,-1.9112,-1.9301,-1.9262,-1.9292,-1.9292,-1.9292,-1.939,-1.9557,-1.9794,-1.9839,-1.963,-1.942,-1.9423,-1.9465,-1.8898,-1.8529,-1.8533,-1.8553,-1.8185,-1.7451,-1.74,-1.7072,-1.642,-1.621,-1.6095,-1.6,-1.5943,-1.5943,-1.5924,-1.5798,-1.5711,-1.5701,-1.5546,-1.542,-1.5449,-1.541,-1.542,-1.542,-1.5439,-1.5449,-1.5449,-1.5449,-1.5449,-1.5449,-1.5575,-1.5672,-1.574,-1.598,-1.621,-1.6363,-1.6563,-1.6864,-1.7239,-1.7645,-1.7909,-1.8139,-1.841,-1.8652,-1.8771,-1.8919,-1.8999,-1.9013,-1.8989,-1.8806,-1.8289,-1.7869,-1.7315,-1.6859,-1.6499,-1.6018,-1.5888,-1.5864,-1.5912,-1.597,-1.6172,-1.6184,-1.5958,-1.5957,-1.6108,-1.6467,-1.6942,-1.7393,-1.788,-1.8728,-1.9369,-1.4115,-1.4019,-1.3731,-1.3781,-1.4022,-1.407,-1.4166,-1.4298,-1.4298,-1.4298,-1.4298,-1.4298,-1.4298,-1.4298,-1.4298,-1.4298,-1.4298,-1.44,-1.4541,-1.4716,-1.4974,-1.5275,-1.5562,-1.5929,-1.6354,-1.6713,-1.6999,-1.7587,-1.8313,-1.8652,-1.8922,-1.9082,-1.9112,-1.9143,-1.9253,-1.9292,-1.9341,-1.9429,-1.9745,-1.9743,-1.944,-1.9327,-1.9206,-1.8948,-1.8587,-1.8414,-1.8482,-1.8482,-1.8268,-1.7738,-1.7446,-1.7011,-1.6476,-1.6142,-1.5961,-1.5885,-1.5817,-1.5769,-1.5759,-1.5614,-1.5517,-1.5507,-1.5449,-1.542,-1.542,-1.542,-1.542,-1.542,-1.542,-1.542,-1.542,-1.542,-1.542,-1.541,-1.5478,-1.5575,-1.5672,-1.5788,-1.5904,-1.6087,-1.6316,-1.6687,-1.7127,-1.7434,-1.7617,-1.7947,-1.8166,-1.841,-1.8625,-1.8786,-1.8919,-1.8999,-1.9001,-1.8806,-1.8289,-1.776,-1.7219,-1.6691,-1.6259,-1.5994,-1.5804,-1.5804,-1.5886,-1.5898,-1.5826,-1.5826,-1.584,-1.585,-1.5925,-1.6171,-1.6618,-1.6889,-1.7248,-1.8057,-1.8613,-1.3306,-1.3501,-1.337,-1.3443,-1.3786,-1.3883,-1.4022,-1.416,-1.425,-1.4298,-1.4298,-1.4298,-1.4298,-1.428,-1.4214,-1.4171,-1.4171,-1.4171,-1.4216,-1.4279,-1.446,-1.4571,-1.476,-1.5262,-1.574,-1.6095,-1.6525,-1.7147,-1.7959,-1.8322,-1.8612,-1.8891,-1.8962,-1.9082,-1.9192,-1.9262,-1.9292,-1.9381,-1.9696,-1.9657,-1.9212,-1.9232,-1.9004,-1.8496,-1.8257,-1.8245,-1.8347,-1.8347,-1.8158,-1.7753,-1.7282,-1.6775,-1.6208,-1.5879,-1.573,-1.573,-1.5633,-1.5614,-1.5575,-1.5478,-1.542,-1.542,-1.542,-1.542,-1.542,-1.542,-1.542,-1.542,-1.542,-1.542,-1.542,-1.542,-1.542,-1.542,-1.542,-1.5449,-1.5585,-1.5643,-1.5759,-1.5914,-1.6212,-1.6584,-1.6941,-1.7166,-1.7434,-1.7744,-1.7947,-1.8247,-1.8533,-1.8732,-1.8851,-1.896,-1.9013,-1.8855,-1.853,-1.8109,-1.7363,-1.6787,-1.6247,-1.597,-1.5814,-1.5814,-1.5814,-1.5814,-1.5814,-1.5814,-1.5814,-1.5814,-1.5947,-1.6144,-1.6315,-1.6554,-1.6939,-1.7342,-1.7876,-1.2232,-1.2743,-1.2813,-1.305,-1.3491,-1.369,-1.3883,-1.3944,-1.413,-1.4238,-1.4201,-1.425,-1.4208,-1.4208,-1.399,-1.3906,-1.3906,-1.3876,-1.3991,-1.4167,-1.3784,-1.3893,-1.4419,-1.4647,-1.5027,-1.5519,-1.6319,-1.7139,-1.7829,-1.7991,-1.8241,-1.8652,-1.8843,-1.8962,-1.9002,-1.9183,-1.9262,-1.9381,-1.9706,-1.9524,-1.8843,-1.9124,-1.8896,-1.8154,-1.8018,-1.8042,-1.8018,-1.8018,-1.7866,-1.7465,-1.7005,-1.6328,-1.5645,-1.5459,-1.542,-1.5449,-1.542,-1.542,-1.542,-1.542,-1.542,-1.542,-1.542,-1.542,-1.542,-1.542,-1.542,-1.542,-1.542,-1.542,-1.542,-1.542,-1.542,-1.542,-1.542,-1.542,-1.5449,-1.5575,-1.574,-1.5885,-1.6173,-1.6384,-1.6527,-1.6885,-1.7295,-1.7507,-1.7838,-1.8166,-1.8452,-1.8652,-1.8839,-1.8946,-1.8999,-1.8929,-1.8746,-1.8506,-1.7688,-1.6919,-1.6367,-1.5958,-1.585,-1.5814,-1.5814,-1.5814,-1.5814,-1.5814,-1.5814,-1.5814,-1.5925,-1.61,-1.6188,-1.634,-1.673,-1.7106,-1.7203,-1.13,-1.198,-1.2175,-1.2565,-1.3007,-1.3249,-1.3442,-1.3608,-1.3738,-1.3743,-1.3733,-1.3761,-1.3761,-1.3749,-1.3664,-1.3634,-1.3622,-1.3465,-1.3413,-1.3473,-1.3491,-1.3573,-1.3795,-1.4122,-1.4699,-1.5436,-1.6278,-1.6812,-1.7139,-1.7538,-1.7951,-1.8201,-1.8482,-1.8723,-1.8962,-1.9073,-1.9152,-1.9341,-1.9706,-1.9505,-1.8805,-1.9114,-1.8877,-1.8115,-1.8008,-1.8008,-1.8008,-1.8008,-1.7939,-1.7793,-1.7119,-1.6307,-1.5605,-1.542,-1.542,-1.542,-1.542,-1.542,-1.542,-1.542,-1.542,-1.542,-1.542,-1.542,-1.542,-1.542,-1.542,-1.542,-1.542,-1.542,-1.542,-1.542,-1.542,-1.542,-1.542,-1.542,-1.542,-1.5478,-1.5575,-1.574,-1.5943,-1.6144,-1.6374,-1.6772,-1.7043,-1.7323,-1.7629,-1.7947,-1.822,-1.8506,-1.8706,-1.8839,-1.8919,-1.9013,-1.8881,-1.8662,-1.8109,-1.7411,-1.6823,-1.6331,-1.6139,-1.5797,-1.5808,-1.5814,-1.5814,-1.5814,-1.5814,-1.5859,-1.5969,-1.6078,-1.6188,-1.6396,-1.6645,-1.6825,-1.6973,-1.0507,-1.1198,-1.1536,-1.1978,-1.24,-1.2678,-1.2917,-1.3124,-1.3292,-1.3389,-1.3401,-1.348,-1.3468,-1.3495,-1.3417,-1.3375,-1.3344,-1.3047,-1.297,-1.297,-1.3132,-1.3207,-1.3362,-1.387,-1.4538,-1.5318,-1.594,-1.636,-1.6607,-1.7057,-1.7465,-1.7668,-1.804,-1.8353,-1.8643,-1.8873,-1.9082,-1.9231,-1.9657,-1.9515,-1.8974,-1.9078,-1.8877,-1.8144,-1.8008,-1.8008,-1.8008,-1.8008,-1.8008,-1.7861,-1.7165,-1.6297,-1.5527,-1.542,-1.542,-1.542,-1.542,-1.542,-1.542,-1.542,-1.542,-1.542,-1.542,-1.542,-1.542,-1.542,-1.542,-1.542,-1.542,-1.542,-1.542,-1.542,-1.542,-1.542,-1.542,-1.542,-1.542,-1.542,-1.5449,-1.5575,-1.572,-1.5943,-1.6173,-1.6459,-1.679,-1.7127,-1.7423,-1.7755,-1.8057,-1.8398,-1.8598,-1.8786,-1.8919,-1.8987,-1.8975,-1.8746,-1.847,-1.7953,-1.7412,-1.6979,-1.6691,-1.6076,-1.5818,-1.5808,-1.5814,-1.5814,-1.5814,-1.5881,-1.5957,-1.6078,-1.621,-1.6405,-1.6599,-1.6731,-1.6867,-0.9817,-1.0346,-1.0881,-1.1289,-1.1599,-1.211,-1.2346,-1.246,-1.2854,-1.3058,-1.3119,-1.3264,-1.3372,-1.3342,-1.3137,-1.3103,-1.3055,-1.2868,-1.2747,-1.2741,-1.2784,-1.2894,-1.3185,-1.3786,-1.4496,-1.511,-1.5401,-1.5733,-1.627,-1.6566,-1.6812,-1.7139,-1.7627,-1.8,-1.8152,-1.8643,-1.8922,-1.9082,-1.9548,-1.9428,-1.8834,-1.9087,-1.8916,-1.8125,-1.8037,-1.8008,-1.8008,-1.8008,-1.7988,-1.7871,-1.7116,-1.6326,-1.5644,-1.5439,-1.542,-1.542,-1.542,-1.542,-1.542,-1.542,-1.542,-1.542,-1.542,-1.542,-1.542,-1.542,-1.542,-1.542,-1.542,-1.542,-1.542,-1.542,-1.542,-1.542,-1.542,-1.542,-1.542,-1.542,-1.542,-1.5439,-1.5565,-1.5759,-1.5943,-1.623,-1.6591,-1.6948,-1.7273,-1.7673,-1.7975,-1.8275,-1.8598,-1.8759,-1.8866,-1.8972,-1.8975,-1.8965,-1.8686,-1.847,-1.7977,-1.7616,-1.7171,-1.6515,-1.6173,-1.6121,-1.5924,-1.5888,-1.5897,-1.5999,-1.6061,-1.6144,-1.6275,-1.6392,-1.6522,-1.6654,-1.6782,-0.8811,-0.9381,-0.9904,-1.0364,-1.0902,-1.1446,-1.1736,-1.1896,-1.2193,-1.2326,-1.2371,-1.2574,-1.2729,-1.2693,-1.2781,-1.2813,-1.2758,-1.2741,-1.2705,-1.2705,-1.2705,-1.2839,-1.3179,-1.3786,-1.4208,-1.4496,-1.4957,-1.5325,-1.5684,-1.6072,-1.6451,-1.6812,-1.7139,-1.7587,-1.7991,-1.8201,-1.8514,-1.8953,-1.9271,-1.9385,-1.9212,-1.9075,-1.8863,-1.849,-1.8139,-1.8027,-1.8008,-1.8008,-1.7842,-1.7539,-1.7009,-1.6504,-1.5918,-1.5586,-1.542,-1.542,-1.542,-1.542,-1.542,-1.542,-1.542,-1.542,-1.542,-1.542,-1.542,-1.542,-1.542,-1.542,-1.542,-1.542,-1.542,-1.542,-1.542,-1.542,-1.542,-1.542,-1.542,-1.542,-1.542,-1.542,-1.5575,-1.574,-1.5914,-1.6144,-1.6477,-1.6807,-1.719,-1.7551,-1.7838,-1.8166,-1.8491,-1.8625,-1.8759,-1.8893,-1.8972,-1.8987,-1.8965,-1.8879,-1.8554,-1.8217,-1.7663,-1.7015,-1.6919,-1.6943,-1.643,-1.624,-1.6211,-1.6229,-1.6264,-1.6283,-1.6318,-1.6436,-1.65,-1.662,-1.674,-0.8039,-0.8531,-0.9076,-0.9601,-1.009,-1.0675,-1.1005,-1.1178,-1.1537,-1.169,-1.1785,-1.2069,-1.2246,-1.224,-1.2497,-1.2577,-1.2577,-1.2662,-1.2705,-1.2705,-1.2705,-1.2839,-1.3137,-1.3525,-1.3828,-1.413,-1.4468,-1.479,-1.5144,-1.5567,-1.594,-1.6188,-1.6689,-1.7098,-1.7424,-1.7878,-1.8241,-1.8714,-1.9054,-1.9305,-1.9259,-1.9114,-1.8875,-1.8582,-1.8208,-1.8008,-1.8008,-1.8008,-1.7812,-1.7402,-1.6973,-1.6523,-1.6114,-1.5654,-1.542,-1.542,-1.542,-1.542,-1.542,-1.542,-1.542,-1.542,-1.542,-1.542,-1.542,-1.542,-1.542,-1.542,-1.542,-1.542,-1.542,-1.542,-1.542,-1.542,-1.542,-1.542,-1.542,-1.542,-1.542,-1.5439,-1.5507,-1.5643,-1.5798,-1.6058,-1.6335,-1.6666,-1.7011,-1.7357,-1.7684,-1.803,-1.8356,-1.8545,-1.8706,-1.8839,-1.8946,-1.8999,-1.9013,-1.8963,-1.8891,-1.859,-1.818,-1.7577,-1.7567,-1.7459,-1.6955,-1.661,-1.6582,-1.6537,-1.6487,-1.6485,-1.6458,-1.6457,-1.6522,-1.6543,-1.6684,-0.7508,-0.7753,-0.837,-0.8816,-0.9169,-0.9831,-1.0184,-1.0328,-1.0878,-1.1165,-1.1289,-1.1731,-1.1903,-1.1952,-1.2198,-1.2363,-1.2363,-1.2534,-1.2662,-1.2705,-1.2705,-1.2839,-1.3009,-1.3137,-1.3489,-1.3919,-1.4039,-1.4328,-1.4692,-1.5103,-1.5352,-1.5643,-1.6229,-1.6607,-1.6894,-1.7473,-1.8,-1.8393,-1.8873,-1.9164,-1.9219,-1.9136,-1.8947,-1.8692,-1.8217,-1.8027,-1.8008,-1.7988,-1.7842,-1.7504,-1.7031,-1.6641,-1.6212,-1.5732,-1.5469,-1.542,-1.542,-1.542,-1.542,-1.542,-1.542,-1.542,-1.542,-1.542,-1.542,-1.542,-1.542,-1.542,-1.542,-1.542,-1.542,-1.542,-1.542,-1.542,-1.542,-1.542,-1.542,-1.542,-1.542,-1.542,-1.542,-1.5478,-1.5662,-1.5846,-1.6087,-1.6534,-1.6881,-1.7245,-1.7562,-1.792,-1.8263,-1.856,-1.8694,-1.8813,-1.8919,-1.9013,-1.9013,-1.9013,-1.9001,-1.8833,-1.8654,-1.8255,-1.8186,-1.7955,-1.7529,-1.7195,-1.6952,-1.6884,-1.6763,-1.6563,-1.6451,-1.6479,-1.6513,-1.6534,-1.6599,-0.687,-0.6904,-0.7431,-0.7873,-0.8182,-0.8878,-0.9301,-0.9563,-1.0207,-1.0506,-1.0679,-1.1198,-1.1419,-1.1462,-1.1854,-1.208,-1.2123,-1.2326,-1.2528,-1.2705,-1.2705,-1.2705,-1.2833,-1.296,-1.327,-1.3568,-1.3737,-1.4026,-1.4391,-1.4608,-1.4901,-1.5394,-1.5609,-1.6023,-1.6656,-1.6902,-1.7383,-1.7991,-1.8434,-1.8868,-1.9226,-1.9211,-1.9059,-1.8819,-1.8319,-1.8037,-1.8008,-1.8008,-1.7959,-1.7803,-1.7471,-1.7041,-1.6572,-1.6123,-1.5742,-1.5478,-1.542,-1.542,-1.542,-1.542,-1.542,-1.542,-1.542,-1.542,-1.542,-1.542,-1.542,-1.542,-1.542,-1.542,-1.542,-1.542,-1.542,-1.542,-1.542,-1.542,-1.542,-1.542,-1.542,-1.542,-1.542,-1.5478,-1.5672,-1.5827,-1.6087,-1.642,-1.6751,-1.7134,-1.7468,-1.7799,-1.8127,-1.8479,-1.864,-1.8747,-1.8893,-1.896,-1.9013,-1.9013,-1.9013,-1.9013,-1.8835,-1.8762,-1.8607,-1.8411,-1.8177,-1.7833,-1.7411,-1.7127,-1.6983,-1.67,-1.6457,-1.6479,-1.6513,-1.6513,-1.6534,-0.6394,-0.6499,-0.6795,-0.7128,-0.7547,-0.8116,-0.86,-0.9034,-0.9559,-0.9907,-1.0077,-1.0593,-1.0809,-1.0901,-1.1375,-1.1682,-1.1811,-1.2192,-1.2448,-1.2577,-1.2619,-1.2705,-1.2705,-1.2833,-1.3052,-1.3264,-1.3476,-1.3766,-1.4026,-1.4314,-1.4608,-1.4936,-1.5228,-1.5602,-1.6154,-1.6484,-1.7066,-1.7635,-1.8031,-1.8554,-1.9158,-1.911,-1.892,-1.8672,-1.8275,-1.8008,-1.8008,-1.8008,-1.8008,-1.7949,-1.7783,-1.7373,-1.6777,-1.6309,-1.5899,-1.5508,-1.542,-1.542,-1.542,-1.542,-1.542,-1.542,-1.542,-1.542,-1.542,-1.542,-1.542,-1.542,-1.542,-1.542,-1.542,-1.542,-1.542,-1.542,-1.542,-1.542,-1.542,-1.542,-1.542,-1.542,-1.542,-1.5449,-1.5575,-1.5759,-1.5961,-1.6239,-1.6637,-1.7022,-1.7412,-1.7717,-1.803,-1.8329,-1.8506,-1.8667,-1.8827,-1.8934,-1.9013,-1.9013,-1.9013,-1.9013,-1.8941,-1.8941,-1.8965,-1.8744,-1.8514,-1.8185,-1.78,-1.7493,-1.7105,-1.6716,-1.6479,-1.6513,-1.6513,-1.6513,-1.6534,-0.5987,-0.6241,-0.6302,-0.6564,-0.7007,-0.7452,-0.7937,-0.8372,-0.8859,-0.9165,-0.9515,-0.9946,-1.0207,-1.0381,-1.0852,-1.1154,-1.1456,-1.1935,-1.2283,-1.2448,-1.2577,-1.2662,-1.2705,-1.2747,-1.2839,-1.3052,-1.3307,-1.3525,-1.3815,-1.4104,-1.4398,-1.4517,-1.4936,-1.5311,-1.5567,-1.6105,-1.6689,-1.7229,-1.7676,-1.8264,-1.8957,-1.8903,-1.8779,-1.8541,-1.8128,-1.7993,-1.7974,-1.8008,-1.8008,-1.8008,-1.8008,-1.7539,-1.6875,-1.6396,-1.5938,-1.5488,-1.542,-1.542,-1.542,-1.542,-1.542,-1.542,-1.542,-1.542,-1.542,-1.542,-1.542,-1.542,-1.542,-1.542,-1.542,-1.542,-1.542,-1.542,-1.542,-1.542,-1.542,-1.542,-1.542,-1.542,-1.542,-1.5449,-1.5536,-1.5701,-1.5865,-1.6095,-1.6524,-1.692,-1.7273,-1.7634,-1.7947,-1.8247,-1.8425,-1.8694,-1.8881,-1.8934,-1.8987,-1.9013,-1.9013,-1.9013,-1.9013,-1.9013,-1.9013,-1.9013,-1.8799,-1.8442,-1.8093,-1.7738,-1.7288,-1.676,-1.6513,-1.6513,-1.6513,-1.6513,-1.6534,-0.5716,-0.5805,-0.605,-0.6213,-0.6349,-0.6748,-0.7146,-0.7408,-0.7893,-0.8332,-0.8767,-0.9257,-0.9646,-0.999,-1.0289,-1.0766,-1.1198,-1.1677,-1.2032,-1.2277,-1.2448,-1.2534,-1.2662,-1.2705,-1.2747,-1.2875,-1.3179,-1.3519,-1.3695,-1.399,-1.4237,-1.4398,-1.4566,-1.4817,-1.5228,-1.5602,-1.6105,-1.6779,-1.727,-1.787,-1.8479,-1.8846,-1.8945,-1.8676,-1.812,-1.7876,-1.794,-1.8008,-1.8008,-1.8008,-1.8008,-1.7519,-1.6872,-1.6611,-1.6152,-1.5605,-1.542,-1.542,-1.542,-1.542,-1.542,-1.542,-1.542,-1.542,-1.542,-1.542,-1.542,-1.542,-1.542,-1.542,-1.542,-1.542,-1.542,-1.542,-1.542,-1.542,-1.542,-1.542,-1.542,-1.542,-1.542,-1.542,-1.5507,-1.5633,-1.5846,-1.6095,-1.6495,-1.6797,-1.7095,-1.7468,-1.7838,-1.8139,-1.8398,-1.8667,-1.8946,-1.8972,-1.9013,-1.9013,-1.9013,-1.9013,-1.9013,-1.9013,-1.9013,-1.9013,-1.8895,-1.8586,-1.8251,-1.7885,-1.7325,-1.6723,-1.6591,-1.6513,-1.6513,-1.6513,-1.6513,-0.5512,-0.5555,-0.5819,-0.5997,-0.6127,-0.6349,-0.6615,-0.6925,-0.719,-0.7536,-0.8017,-0.8376,-0.8815,-0.9248,-0.9646,-1.0207,-1.0852,-1.1332,-1.1682,-1.2026,-1.2283,-1.2448,-1.2577,-1.2656,-1.2705,-1.2833,-1.3179,-1.3434,-1.361,-1.3913,-1.4124,-1.4243,-1.4321,-1.4566,-1.4894,-1.5269,-1.5741,-1.6368,-1.682,-1.7424,-1.8123,-1.8542,-1.8628,-1.8506,-1.811,-1.7798,-1.7828,-1.7974,-1.8008,-1.7969,-1.7803,-1.7344,-1.6843,-1.6455,-1.6113,-1.5557,-1.542,-1.542,-1.542,-1.542,-1.542,-1.542,-1.542,-1.542,-1.542,-1.542,-1.542,-1.542,-1.542,-1.542,-1.542,-1.542,-1.542,-1.542,-1.542,-1.542,-1.542,-1.542,-1.542,-1.542,-1.542,-1.542,-1.5449,-1.5633,-1.5817,-1.6134,-1.6477,-1.6712,-1.6955,-1.7385,-1.7794,-1.81,-1.8398,-1.8679,-1.8919,-1.8999,-1.9013,-1.9013,-1.9013,-1.9013,-1.9013,-1.9013,-1.9013,-1.9013,-1.8849,-1.8706,-1.8215,-1.7786,-1.7235,-1.676,-1.6616,-1.6513,-1.6513,-1.6513,-1.6513,-0.5327,-0.5416,-0.5555,-0.5774,-0.5997,-0.6041,-0.626,-0.6618,-0.6659,-0.6922,-0.736,-0.7584,-0.7981,-0.8504,-0.9078,-0.9777,-1.0506,-1.0939,-1.1332,-1.1688,-1.2032,-1.2283,-1.2443,-1.2534,-1.2662,-1.2747,-1.3094,-1.3355,-1.3519,-1.387,-1.4088,-1.4166,-1.4286,-1.4356,-1.4524,-1.4943,-1.5492,-1.5948,-1.6451,-1.7082,-1.7686,-1.7911,-1.8017,-1.8165,-1.7804,-1.7545,-1.7691,-1.7828,-1.7906,-1.7823,-1.7594,-1.7197,-1.6758,-1.6309,-1.5869,-1.5498,-1.542,-1.542,-1.542,-1.542,-1.542,-1.542,-1.542,-1.542,-1.542,-1.542,-1.542,-1.542,-1.542,-1.542,-1.542,-1.542,-1.542,-1.542,-1.542,-1.542,-1.542,-1.542,-1.542,-1.542,-1.542,-1.542,-1.5449,-1.5662,-1.5885,-1.6077,-1.642,-1.6694,-1.6965,-1.7423,-1.781,-1.81,-1.8387,-1.8694,-1.8893,-1.8999,-1.9013,-1.9013,-1.9013,-1.9013,-1.9013,-1.9013,-1.9001,-1.8977,-1.8989,-1.8789,-1.8239,-1.7687,-1.7262,-1.6881,-1.6632,-1.6513,-1.6513,-1.6513,-1.6513,-0.5015,-0.5416,-0.5419,-0.5552,-0.573,-0.5777,-0.5908,-0.6171,-0.6216,-0.6441,-0.6881,-0.7102,-0.7452,-0.8025,-0.8907,-0.9563,-1.0038,-1.0511,-1.0939,-1.1338,-1.1645,-1.2032,-1.232,-1.24,-1.2577,-1.2705,-1.3009,-1.3228,-1.344,-1.3828,-1.4082,-1.413,-1.4124,-1.4208,-1.4398,-1.4692,-1.5026,-1.5526,-1.6098,-1.6815,-1.7378,-1.7374,-1.7446,-1.746,-1.728,-1.7176,-1.7451,-1.7657,-1.775,-1.7726,-1.7521,-1.7178,-1.6716,-1.6318,-1.5869,-1.5557,-1.542,-1.542,-1.542,-1.542,-1.542,-1.542,-1.542,-1.542,-1.542,-1.542,-1.542,-1.542,-1.542,-1.542,-1.542,-1.542,-1.542,-1.542,-1.542,-1.542,-1.542,-1.542,-1.542,-1.542,-1.542,-1.542,-1.542,-1.5662,-1.5914,-1.6105,-1.6335,-1.6637,-1.6948,-1.7396,-1.792,-1.8263,-1.8414,-1.8694,-1.8893,-1.8987,-1.9013,-1.9013,-1.9013,-1.9013,-1.8977,-1.8939,-1.8891,-1.8891,-1.8879,-1.8544,-1.7812,-1.736,-1.7193,-1.6933,-1.6582,-1.6479,-1.6513,-1.6513,-1.6525,-0.4659,-0.5018,-0.5282,-0.5463,-0.5552,-0.5644,-0.5777,-0.5863,-0.5863,-0.6083,-0.6349,-0.6479,-0.6833,-0.754,-0.8464,-0.9034,-0.9471,-0.9994,-1.0467,-1.0939,-1.1289,-1.1725,-1.2118,-1.232,-1.2491,-1.2705,-1.296,-1.3222,-1.344,-1.3695,-1.3913,-1.4088,-1.4088,-1.413,-1.4279,-1.444,-1.4783,-1.5316,-1.5889,-1.6469,-1.6762,-1.6796,-1.6793,-1.7045,-1.6925,-1.698,-1.7151,-1.7461,-1.7613,-1.7557,-1.7205,-1.6825,-1.6539,-1.6123,-1.5576,-1.5478,-1.542,-1.542,-1.542,-1.542,-1.542,-1.542,-1.542,-1.542,-1.542,-1.542,-1.542,-1.542,-1.542,-1.542,-1.542,-1.542,-1.542,-1.542,-1.542,-1.542,-1.542,-1.542,-1.542,-1.542,-1.542,-1.542,-1.5449,-1.5662,-1.5885,-1.6058,-1.6335,-1.6705,-1.7004,-1.7379,-1.792,-1.8491,-1.8587,-1.8694,-1.8854,-1.9013,-1.9013,-1.9013,-1.9013,-1.9001,-1.8903,-1.8867,-1.8722,-1.8434,-1.8181,-1.7761,-1.7231,-1.7251,-1.728,-1.6898,-1.647,-1.6554,-1.6638,-1.6575,-1.6588,-0.4389,-0.4659,-0.5062,-0.5285,-0.5416,-0.5552,-0.5644,-0.5688,-0.5733,-0.5819,-0.5997,-0.6127,-0.6479,-0.7095,-0.7889,-0.842,-0.8863,-0.9471,-0.999,-1.0467,-1.0939,-1.1381,-1.1768,-1.2063,-1.2406,-1.2613,-1.2839,-1.3094,-1.3307,-1.3519,-1.3786,-1.4088,-1.4088,-1.4088,-1.4166,-1.4349,-1.4622,-1.5068,-1.5544,-1.5889,-1.6112,-1.6067,-1.6153,-1.6355,-1.6519,-1.663,-1.676,-1.7116,-1.7382,-1.7139,-1.6781,-1.6497,-1.6321,-1.5819,-1.5498,-1.542,-1.542,-1.542,-1.542,-1.542,-1.542,-1.542,-1.542,-1.542,-1.542,-1.542,-1.542,-1.542,-1.542,-1.542,-1.542,-1.542,-1.542,-1.542,-1.542,-1.542,-1.542,-1.542,-1.542,-1.542,-1.542,-1.542,-1.5507,-1.5701,-1.5856,-1.6011,-1.6345,-1.6761,-1.7127,-1.7462,-1.792,-1.8491,-1.8614,-1.8694,-1.8881,-1.9013,-1.9013,-1.8977,-1.8977,-1.8845,-1.8662,-1.8482,-1.8301,-1.7977,-1.7579,-1.7303,-1.6966,-1.7191,-1.7379,-1.6853,-1.6517,-1.6729,-1.681,-1.6785,-1.6911,-0.4297,-0.4344,-0.4614,-0.5018,-0.5371,-0.5416,-0.5508,-0.5644,-0.5688,-0.5733,-0.5777,-0.5997,-0.6438,-0.6959,-0.7251,-0.7779,-0.8584,-0.8863,-0.9378,-0.9937,-1.0458,-1.0871,-1.1326,-1.1753,-1.2091,-1.2335,-1.2548,-1.2777,-1.3099,-1.3252,-1.3623,-1.4046,-1.4048,-1.4075,-1.4105,-1.4185,-1.4399,-1.4715,-1.4958,-1.5108,-1.5263,-1.5314,-1.541,-1.5595,-1.5787,-1.5973,-1.6167,-1.662,-1.6828,-1.6557,-1.6345,-1.6201,-1.5967,-1.5594,-1.5391,-1.541,-1.542,-1.542,-1.542,-1.542,-1.542,-1.542,-1.542,-1.542,-1.542,-1.542,-1.542,-1.542,-1.542,-1.542,-1.542,-1.542,-1.542,-1.542,-1.542,-1.542,-1.542,-1.542,-1.542,-1.542,-1.542,-1.542,-1.541,-1.5604,-1.5827,-1.5953,-1.6402,-1.6846,-1.7295,-1.7656,-1.8002,-1.841,-1.8533,-1.8694,-1.8934,-1.9001,-1.8965,-1.8857,-1.8785,-1.853,-1.8265,-1.8073,-1.7748,-1.7532,-1.7147,-1.6931,-1.675,-1.6863,-1.6864,-1.6636,-1.66,-1.6992,-1.7325,-1.7476,-1.7652,-0.4166,-0.4297,-0.4389,-0.4656,-0.4973,-0.5282,-0.5463,-0.5552,-0.5644,-0.5688,-0.5727,-0.5997,-0.626,-0.6502,-0.6863,-0.7137,-0.7641,-0.8221,-0.8674,-0.9196,-0.9652,-1.0236,-1.0741,-1.1142,-1.1445,-1.1834,-1.2034,-1.2228,-1.2584,-1.2823,-1.3065,-1.3369,-1.3798,-1.3915,-1.3937,-1.3865,-1.3971,-1.4078,-1.423,-1.4416,-1.4471,-1.4752,-1.4848,-1.496,-1.547,-1.5691,-1.5903,-1.5964,-1.6113,-1.6117,-1.5822,-1.572,-1.5701,-1.5427,-1.5342,-1.5371,-1.54,-1.5381,-1.5391,-1.54,-1.542,-1.542,-1.542,-1.542,-1.542,-1.542,-1.542,-1.542,-1.542,-1.542,-1.542,-1.542,-1.542,-1.542,-1.542,-1.542,-1.542,-1.542,-1.542,-1.542,-1.542,-1.542,-1.541,-1.5468,-1.5701,-1.5953,-1.642,-1.692,-1.7396,-1.7767,-1.8057,-1.8383,-1.8533,-1.8721,-1.8946,-1.8939,-1.8893,-1.8736,-1.8542,-1.8169,-1.7796,-1.7279,-1.6979,-1.6835,-1.6703,-1.6427,-1.6303,-1.641,-1.6461,-1.6517,-1.6921,-1.7438,-1.7739,-1.8141,-1.8304,-0.3959,-0.4132,-0.4178,-0.4385,-0.4746,-0.5062,-0.522,-0.5281,-0.5453,-0.5563,-0.5627,-0.5839,-0.5927,-0.6071,-0.6319,-0.6691,-0.7003,-0.7477,-0.8003,-0.8494,-0.9078,-0.9617,-1.0146,-1.0619,-1.0998,-1.1318,-1.1599,-1.183,-1.2107,-1.2384,-1.2662,-1.2985,-1.3364,-1.3485,-1.3527,-1.3446,-1.3389,-1.3434,-1.3578,-1.3826,-1.3895,-1.4181,-1.4405,-1.4466,-1.4857,-1.5014,-1.5159,-1.5257,-1.5351,-1.54,-1.5337,-1.5238,-1.5289,-1.5318,-1.5264,-1.5303,-1.5274,-1.5244,-1.5244,-1.5361,-1.54,-1.542,-1.542,-1.542,-1.542,-1.542,-1.542,-1.542,-1.542,-1.542,-1.542,-1.542,-1.542,-1.542,-1.542,-1.542,-1.542,-1.542,-1.542,-1.542,-1.542,-1.542,-1.5478,-1.5536,-1.5807,-1.6087,-1.6477,-1.6976,-1.749,-1.7822,-1.8002,-1.8329,-1.856,-1.8747,-1.8946,-1.8744,-1.8554,-1.8386,-1.8157,-1.7688,-1.7243,-1.6763,-1.6427,-1.6331,-1.6163,-1.5886,-1.5951,-1.6181,-1.6416,-1.6608,-1.7194,-1.7888,-1.8605,-1.8945,-1.8869,-0.371,-0.3745,-0.3922,-0.4273,-0.4632,-0.4699,-0.4775,-0.4913,-0.5119,-0.5283,-0.5381,-0.5451,-0.5577,-0.57,-0.5862,-0.613,-0.6529,-0.6754,-0.7219,-0.7931,-0.8397,-0.895,-0.9519,-1.0059,-1.0447,-1.0807,-1.1067,-1.134,-1.1609,-1.1945,-1.2259,-1.2509,-1.2798,-1.3068,-1.3167,-1.3206,-1.3118,-1.3054,-1.3213,-1.336,-1.3542,-1.374,-1.3964,-1.407,-1.4206,-1.434,-1.4396,-1.4497,-1.4548,-1.4539,-1.4814,-1.4802,-1.4717,-1.5037,-1.5128,-1.5158,-1.4944,-1.4853,-1.4842,-1.5176,-1.5342,-1.54,-1.542,-1.542,-1.542,-1.542,-1.542,-1.542,-1.542,-1.542,-1.542,-1.542,-1.542,-1.542,-1.542,-1.542,-1.542,-1.542,-1.542,-1.542,-1.542,-1.542,-1.5536,-1.5652,-1.5961,-1.6249,-1.6591,-1.7032,-1.7523,-1.7783,-1.7975,-1.8317,-1.8587,-1.8747,-1.8835,-1.8468,-1.8241,-1.8073,-1.7712,-1.7219,-1.6859,-1.6523,-1.6211,-1.5958,-1.5874,-1.5826,-1.5903,-1.6037,-1.6377,-1.6806,-1.7675,-1.843,-1.9196,-1.961,-1.9434,-0.3448,-0.3697,-0.3781,-0.3982,-0.4252,-0.4421,-0.4529,-0.4629,-0.4793,-0.4984,-0.5165,-0.5199,-0.5327,-0.5477,-0.5533,-0.57,-0.5931,-0.6387,-0.6799,-0.7123,-0.7652,-0.8208,-0.8774,-0.9238,-0.9691,-1.0087,-1.0434,-1.081,-1.1053,-1.1449,-1.1604,-1.1802,-1.2247,-1.2535,-1.2747,-1.2752,-1.2563,-1.2577,-1.2736,-1.2917,-1.3127,-1.339,-1.3562,-1.3575,-1.3661,-1.3734,-1.3692,-1.3794,-1.379,-1.3962,-1.4307,-1.4312,-1.4428,-1.4804,-1.4839,-1.4811,-1.4664,-1.4556,-1.4543,-1.4736,-1.5127,-1.5283,-1.541,-1.541,-1.542,-1.542,-1.542,-1.542,-1.542,-1.542,-1.542,-1.542,-1.542,-1.542,-1.542,-1.542,-1.542,-1.542,-1.542,-1.542,-1.542,-1.542,-1.5478,-1.5572,-1.5839,-1.6102,-1.6381,-1.6942,-1.7462,-1.7694,-1.792,-1.8317,-1.8614,-1.8774,-1.8737,-1.8298,-1.7881,-1.7591,-1.7195,-1.6679,-1.6379,-1.6211,-1.6078,-1.5862,-1.5838,-1.5814,-1.5925,-1.6105,-1.6525,-1.7055,-1.7806,-1.8593,-1.9321,-1.9673,-1.9698,-0.304,-0.3367,-0.3449,-0.3613,-0.3868,-0.413,-0.4268,-0.4359,-0.4449,-0.4632,-0.4831,-0.4913,-0.4991,-0.5173,-0.5253,-0.5368,-0.5479,-0.5764,-0.6261,-0.6486,-0.6949,-0.7551,-0.8004,-0.8479,-0.9066,-0.9501,-0.9879,-1.0197,-1.0715,-1.0905,-1.1216,-1.1608,-1.1824,-1.2258,-1.2468,-1.2425,-1.2345,-1.2412,-1.2553,-1.2668,-1.2832,-1.3007,-1.3148,-1.3073,-1.3085,-1.3137,-1.3123,-1.3132,-1.3162,-1.3549,-1.3782,-1.3872,-1.4222,-1.4372,-1.4447,-1.4421,-1.4205,-1.4077,-1.4029,-1.4289,-1.4727,-1.5107,-1.5293,-1.54,-1.542,-1.542,-1.542,-1.542,-1.542,-1.542,-1.542,-1.542,-1.542,-1.542,-1.542,-1.542,-1.542,-1.542,-1.542,-1.542,-1.542,-1.542,-1.539,-1.5511,-1.5638,-1.5907,-1.6171,-1.6732,-1.7251,-1.7431,-1.7644,-1.8062,-1.8401,-1.8546,-1.8424,-1.8096,-1.7664,-1.7183,-1.6715,-1.6235,-1.6102,-1.597,-1.5874,-1.5814,-1.5814,-1.5836,-1.5969,-1.6186,-1.6534,-1.7028,-1.7691,-1.8505,-1.9371,-1.9572,-1.961,-0.2589,-0.2785,-0.3022,-0.3263,-0.3519,-0.3819,-0.4049,-0.4174,-0.4126,-0.4206,-0.4396,-0.4609,-0.4742,-0.4763,-0.4945,-0.5107,-0.5266,-0.5365,-0.575,-0.6177,-0.6525,-0.7022,-0.7561,-0.8055,-0.8589,-0.9079,-0.9496,-0.9911,-1.0443,-1.0738,-1.1149,-1.1558,-1.1824,-1.2085,-1.2234,-1.2301,-1.2305,-1.2342,-1.2357,-1.2444,-1.2506,-1.2579,-1.2603,-1.2555,-1.2487,-1.2495,-1.2525,-1.2586,-1.2756,-1.3052,-1.3346,-1.3623,-1.3838,-1.392,-1.3984,-1.3877,-1.3563,-1.3452,-1.3507,-1.3863,-1.4299,-1.4766,-1.5195,-1.5332,-1.542,-1.542,-1.542,-1.542,-1.542,-1.542,-1.542,-1.542,-1.542,-1.542,-1.542,-1.542,-1.542,-1.542,-1.542,-1.542,-1.542,-1.5381,-1.5292,-1.5364,-1.5396,-1.5464,-1.5684,-1.5996,-1.6487,-1.689,-1.7175,-1.7627,-1.7979,-1.8246,-1.809,-1.7712,-1.7376,-1.6895,-1.6379,-1.5946,-1.5826,-1.5814,-1.5814,-1.5814,-1.5814,-1.5881,-1.6001,-1.6218,-1.6485,-1.7003,-1.739,-1.8016,-1.8756,-1.9121,-1.9259,-0.212,-0.2588,-0.2628,-0.2863,-0.3222,-0.3501,-0.3742,-0.3918,-0.3888,-0.3997,-0.4194,-0.4387,-0.4543,-0.474,-0.494,-0.5015,-0.5132,-0.5246,-0.5479,-0.5828,-0.618,-0.6718,-0.7176,-0.7633,-0.8165,-0.8661,-0.9155,-0.9571,-1.0105,-1.0519,-1.0999,-1.1446,-1.1675,-1.1866,-1.205,-1.2218,-1.2228,-1.2218,-1.2157,-1.2158,-1.2171,-1.2235,-1.2158,-1.2046,-1.2072,-1.2072,-1.2107,-1.2212,-1.2398,-1.2744,-1.3117,-1.3374,-1.3255,-1.35,-1.3651,-1.3243,-1.2947,-1.2803,-1.3024,-1.3627,-1.4128,-1.4445,-1.4952,-1.5342,-1.542,-1.542,-1.542,-1.542,-1.542,-1.542,-1.542,-1.542,-1.542,-1.542,-1.542,-1.542,-1.542,-1.542,-1.542,-1.542,-1.542,-1.5264,-1.5184,-1.5127,-1.5164,-1.5114,-1.521,-1.5448,-1.5772,-1.6204,-1.6678,-1.7153,-1.7457,-1.7723,-1.7564,-1.7207,-1.6931,-1.6583,-1.6126,-1.5814,-1.5814,-1.5814,-1.5814,-1.5814,-1.5814,-1.5925,-1.6088,-1.6283,-1.6423,-1.6504,-1.6864,-1.7478,-1.8042,-1.8418,-1.8895,-0.164,-0.2097,-0.2289,-0.2554,-0.2935,-0.3201,-0.3391,-0.3554,-0.373,-0.3882,-0.3999,-0.4194,-0.4387,-0.4582,-0.4779,-0.4898,-0.5018,-0.5093,-0.5287,-0.5556,-0.5857,-0.6296,-0.6756,-0.7203,-0.7748,-0.828,-0.8737,-0.9198,-0.9722,-1.0363,-1.0887,-1.1248,-1.1409,-1.1584,-1.1751,-1.1834,-1.1846,-1.1875,-1.1893,-1.1871,-1.1819,-1.1797,-1.1739,-1.1675,-1.1764,-1.1792,-1.1816,-1.1934,-1.2182,-1.2451,-1.286,-1.2885,-1.2819,-1.3102,-1.2969,-1.2602,-1.2497,-1.2503,-1.2721,-1.3231,-1.3693,-1.415,-1.4682,-1.5089,-1.5332,-1.542,-1.542,-1.542,-1.542,-1.542,-1.542,-1.542,-1.542,-1.542,-1.542,-1.542,-1.542,-1.542,-1.542,-1.542,-1.5322,-1.5166,-1.5055,-1.5004,-1.4871,-1.4713,-1.4668,-1.4817,-1.5196,-1.5657,-1.617,-1.6653,-1.6926,-1.7165,-1.6943,-1.6787,-1.6583,-1.6343,-1.6032,-1.5804,-1.5814,-1.5814,-1.5814,-1.5814,-1.5814,-1.5947,-1.6088,-1.6166,-1.6268,-1.6383,-1.6513,-1.6914,-1.7403,-1.7765,-1.8279,-0.1058,-0.1498,-0.1896,-0.2269,-0.2586,-0.285,-0.3034,-0.3222,-0.3549,-0.3738,-0.3807,-0.401,-0.4185,-0.4351,-0.4545,-0.4745,-0.4852,-0.4928,-0.5075,-0.5289,-0.5472,-0.5848,-0.6346,-0.682,-0.7187,-0.7736,-0.8273,-0.8769,-0.9341,-0.9953,-1.0521,-1.0971,-1.0991,-1.1119,-1.1378,-1.1412,-1.1396,-1.1386,-1.1543,-1.1606,-1.1363,-1.1323,-1.141,-1.1357,-1.1495,-1.1622,-1.1747,-1.1864,-1.2011,-1.2195,-1.2356,-1.2375,-1.2462,-1.2436,-1.2181,-1.2135,-1.2072,-1.2218,-1.2476,-1.2919,-1.3437,-1.3917,-1.4376,-1.4915,-1.5216,-1.54,-1.542,-1.542,-1.542,-1.542,-1.542,-1.542,-1.542,-1.542,-1.542,-1.542,-1.542,-1.542,-1.542,-1.5371,-1.5215,-1.5019,-1.4666,-1.4582,-1.4417,-1.4239,-1.4289,-1.4372,-1.4744,-1.5234,-1.568,-1.6174,-1.6338,-1.6515,-1.6526,-1.6391,-1.6259,-1.6032,-1.5864,-1.5804,-1.5814,-1.5814,-1.5814,-1.5814,-1.5814,-1.5947,-1.6066,-1.6144,-1.6253,-1.6426,-1.6513,-1.6513,-1.681,-1.7187,-1.7626,-0.0474,-0.0911,-0.1421,-0.1931,-0.2437,-0.2511,-0.2728,-0.3061,-0.3242,-0.3413,-0.36,-0.3784,-0.39,-0.4024,-0.4321,-0.4509,-0.4577,-0.4752,-0.4896,-0.5024,-0.518,-0.5464,-0.5822,-0.6154,-0.6485,-0.6976,-0.7584,-0.8287,-0.8953,-0.9526,-0.9894,-1.0136,-1.033,-1.0633,-1.0871,-1.0938,-1.1039,-1.0955,-1.1076,-1.1196,-1.1094,-1.0987,-1.1006,-1.1146,-1.1303,-1.1498,-1.1615,-1.1756,-1.1699,-1.1661,-1.1913,-1.1958,-1.1915,-1.167,-1.1617,-1.1645,-1.1753,-1.1927,-1.2183,-1.2577,-1.3114,-1.3798,-1.4357,-1.4848,-1.5196,-1.5332,-1.542,-1.542,-1.542,-1.542,-1.542,-1.542,-1.542,-1.542,-1.542,-1.542,-1.542,-1.542,-1.542,-1.5254,-1.5088,-1.4784,-1.4392,-1.4156,-1.3952,-1.394,-1.402,-1.4183,-1.4578,-1.5013,-1.5291,-1.566,-1.5715,-1.583,-1.5964,-1.6102,-1.603,-1.5948,-1.5828,-1.5814,-1.5814,-1.5814,-1.5814,-1.5814,-1.5836,-1.5969,-1.6078,-1.6166,-1.6297,-1.6448,-1.6513,-1.6513,-1.6513,-1.6823,-1.7149,0.0106,-0.0317,-0.1056,-0.1548,-0.1898,-0.2109,-0.2357,-0.264,-0.278,-0.3028,-0.3291,-0.3524,-0.3711,-0.3781,-0.407,-0.4275,-0.4349,-0.4509,-0.4675,-0.4812,-0.4964,-0.5177,-0.5411,-0.5604,-0.5931,-0.6414,-0.7037,-0.7753,-0.8476,-0.8898,-0.9177,-0.9504,-0.9863,-1.0083,-1.0276,-1.0493,-1.0599,-1.0516,-1.0653,-1.075,-1.0822,-1.0814,-1.0902,-1.109,-1.124,-1.1397,-1.1463,-1.1574,-1.1427,-1.1307,-1.1495,-1.1296,-1.1229,-1.1148,-1.1209,-1.1326,-1.1444,-1.1603,-1.1874,-1.2231,-1.2761,-1.3526,-1.4026,-1.4399,-1.5168,-1.5342,-1.542,-1.542,-1.542,-1.542,-1.542,-1.542,-1.542,-1.542,-1.542,-1.542,-1.542,-1.542,-1.5264,-1.5019,-1.4814,-1.4531,-1.4204,-1.4007,-1.3846,-1.3765,-1.3831,-1.4185,-1.4557,-1.4822,-1.5074,-1.5311,-1.5446,-1.558,-1.5832,-1.5922,-1.5886,-1.5826,-1.5814,-1.5814,-1.5814,-1.5814,-1.5814,-1.5814,-1.5871,-1.5959,-1.6069,-1.6178,-1.6318,-1.6457,-1.65,-1.6513,-1.6513,-1.6513,-1.6763,0.0674,0.0202,-0.0605,-0.1043,-0.1244,-0.1615,-0.1887,-0.2091,-0.2291,-0.2597,-0.2884,-0.3219,-0.3526,-0.3676,-0.3781,-0.4032,-0.4194,-0.4295,-0.4466,-0.458,-0.4761,-0.4903,-0.505,-0.5261,-0.5541,-0.5948,-0.6517,-0.7128,-0.7729,-0.8143,-0.8573,-0.9018,-0.927,-0.9448,-0.9682,-0.9835,-0.9931,-1.0168,-1.0328,-1.0429,-1.0568,-1.0719,-1.087,-1.1028,-1.1209,-1.1358,-1.1359,-1.1305,-1.1189,-1.0994,-1.09,-1.0728,-1.0695,-1.0725,-1.087,-1.0998,-1.1141,-1.1326,-1.152,-1.1722,-1.2435,-1.3111,-1.3491,-1.4107,-1.4888,-1.5293,-1.5362,-1.542,-1.542,-1.542,-1.542,-1.542,-1.542,-1.542,-1.542,-1.542,-1.542,-1.54,-1.5156,-1.4863,-1.4561,-1.4297,-1.4031,-1.3804,-1.3745,-1.3662,-1.3881,-1.4267,-1.4604,-1.4788,-1.5006,-1.5244,-1.5446,-1.5603,-1.577,-1.5814,-1.5814,-1.5814,-1.5814,-1.5814,-1.5814,-1.5814,-1.5814,-1.5814,-1.5871,-1.6003,-1.6125,-1.6222,-1.6362,-1.6479,-1.65,-1.6513,-1.6513,-1.6513,-1.6513,0.1076,0.0437,-0.0034,-0.037,-0.0671,-0.1108,-0.1344,-0.1546,-0.2017,-0.2288,-0.2463,-0.2705,-0.3003,-0.3313,-0.3517,-0.3701,-0.3804,-0.3993,-0.4068,-0.4157,-0.4414,-0.4563,-0.4696,-0.4886,-0.5161,-0.5576,-0.6002,-0.6421,-0.6974,-0.7409,-0.7778,-0.8059,-0.8569,-0.8853,-0.9156,-0.937,-0.9646,-0.985,-1.0091,-1.0242,-1.0337,-1.0476,-1.0706,-1.087,-1.1059,-1.1022,-1.1011,-1.1054,-1.0755,-1.0457,-1.021,-1.0136,-1.0218,-1.0385,-1.0565,-1.0701,-1.0871,-1.1074,-1.1242,-1.1418,-1.2078,-1.3014,-1.346,-1.3951,-1.4649,-1.5186,-1.5284,-1.5391,-1.5391,-1.542,-1.542,-1.542,-1.542,-1.542,-1.542,-1.542,-1.542,-1.5352,-1.5176,-1.4814,-1.4424,-1.4053,-1.3629,-1.3501,-1.3512,-1.3563,-1.3821,-1.4231,-1.4627,-1.4811,-1.4937,-1.5198,-1.5457,-1.5603,-1.577,-1.5792,-1.5814,-1.5814,-1.5814,-1.5814,-1.5814,-1.5814,-1.5814,-1.5859,-1.5925,-1.6047,-1.6178,-1.6287,-1.6383,-1.6479,-1.65,-1.6513,-1.6513,-1.6513,-1.6513]}]]